﻿<?xml version="1.0" encoding="utf-8" standalone="yes"?>
<gpx version="1.0" creator="CanWay - http://www.canwaygps.com" xmlns:xsi="http://www.w3.org/2001/XMLSchema-instance" xmlns="http://www.topografix.com/GPX/1/0" xsi:schemaLocation="http://www.topografix.com/GPX/1/0 http://www.topografix.com/GPX/1/0/gpx.xsd">
<time>2023-05-14T21:31:48Z</time>
<bounds minlat="47.599612" minlon="8.358928" maxlat="47.606988" maxlon="8.438268" />
<trk>
<name>Bergscheunerhof-Küssaburg (Gasthof)-Bergscheunerhof</name>
<trkseg>
<trkpt lat="47.603101" lon="8.435946">
<ele>591.7</ele>
<time>2003-07-20T10:23:03Z</time>
<speed>0.3</speed>
</trkpt>
<trkpt lat="47.602987" lon="8.436276">
<ele>622.3</ele>
<time>2003-07-20T10:23:08Z</time>
<speed>0.0</speed>
</trkpt>
<trkpt lat="47.602994" lon="8.436265">
<ele>621.5</ele>
<time>2003-07-20T10:23:13Z</time>
<speed>0.0</speed>
</trkpt>
<trkpt lat="47.603036" lon="8.436238">
<ele>617.2</ele>
<time>2003-07-20T10:23:18Z</time>
<speed>0.6</speed>
</trkpt>
<trkpt lat="47.603066" lon="8.436191">
<ele>615.5</ele>
<time>2003-07-20T10:23:23Z</time>
<speed>0.8</speed>
</trkpt>
<trkpt lat="47.603065" lon="8.436110">
<ele>615.6</ele>
<time>2003-07-20T10:23:28Z</time>
<speed>0.6</speed>
</trkpt>
<trkpt lat="47.603053" lon="8.436029">
<ele>614.2</ele>
<time>2003-07-20T10:23:33Z</time>
<speed>0.8</speed>
</trkpt>
<trkpt lat="47.603075" lon="8.435916">
<ele>610.6</ele>
<time>2003-07-20T10:23:38Z</time>
<speed>0.6</speed>
</trkpt>
<trkpt lat="47.603079" lon="8.435864">
<ele>610.2</ele>
<time>2003-07-20T10:23:43Z</time>
<speed>0.6</speed>
</trkpt>
<trkpt lat="47.603059" lon="8.435779">
<ele>610.9</ele>
<time>2003-07-20T10:23:48Z</time>
<speed>0.6</speed>
</trkpt>
<trkpt lat="47.603054" lon="8.435687">
<ele>608.7</ele>
<time>2003-07-20T10:23:53Z</time>
<speed>0.6</speed>
</trkpt>
<trkpt lat="47.603071" lon="8.435638">
<ele>607.0</ele>
<time>2003-07-20T10:23:58Z</time>
<speed>0.6</speed>
</trkpt>
<trkpt lat="47.603076" lon="8.435557">
<ele>607.8</ele>
<time>2003-07-20T10:24:03Z</time>
<speed>0.8</speed>
</trkpt>
<trkpt lat="47.603081" lon="8.435477">
<ele>608.6</ele>
<time>2003-07-20T10:24:08Z</time>
<speed>0.6</speed>
</trkpt>
<trkpt lat="47.603087" lon="8.435396">
<ele>609.4</ele>
<time>2003-07-20T10:24:13Z</time>
<speed>0.6</speed>
</trkpt>
<trkpt lat="47.603097" lon="8.435343">
<ele>609.7</ele>
<time>2003-07-20T10:24:18Z</time>
<speed>0.6</speed>
</trkpt>
<trkpt lat="47.603108" lon="8.435262">
<ele>611.3</ele>
<time>2003-07-20T10:24:23Z</time>
<speed>0.3</speed>
</trkpt>
<trkpt lat="47.603139" lon="8.435187">
<ele>610.8</ele>
<time>2003-07-20T10:24:28Z</time>
<speed>0.6</speed>
</trkpt>
<trkpt lat="47.603144" lon="8.435121">
<ele>610.3</ele>
<time>2003-07-20T10:24:33Z</time>
<speed>0.3</speed>
</trkpt>
<trkpt lat="47.603169" lon="8.435044">
<ele>610.6</ele>
<time>2003-07-20T10:24:38Z</time>
<speed>0.6</speed>
</trkpt>
<trkpt lat="47.603198" lon="8.434981">
<ele>611.6</ele>
<time>2003-07-20T10:24:43Z</time>
<speed>0.8</speed>
</trkpt>
<trkpt lat="47.603211" lon="8.434889">
<ele>611.7</ele>
<time>2003-07-20T10:24:48Z</time>
<speed>0.6</speed>
</trkpt>
<trkpt lat="47.603249" lon="8.434798">
<ele>613.2</ele>
<time>2003-07-20T10:24:53Z</time>
<speed>0.6</speed>
</trkpt>
<trkpt lat="47.603279" lon="8.434720">
<ele>615.6</ele>
<time>2003-07-20T10:24:58Z</time>
<speed>0.8</speed>
</trkpt>
<trkpt lat="47.603304" lon="8.434627">
<ele>617.1</ele>
<time>2003-07-20T10:25:03Z</time>
<speed>0.8</speed>
</trkpt>
<trkpt lat="47.603308" lon="8.434560">
<ele>618.0</ele>
<time>2003-07-20T10:25:08Z</time>
<speed>0.8</speed>
</trkpt>
<trkpt lat="47.603320" lon="8.434479">
<ele>619.6</ele>
<time>2003-07-20T10:25:13Z</time>
<speed>0.8</speed>
</trkpt>
<trkpt lat="47.603319" lon="8.434398">
<ele>619.7</ele>
<time>2003-07-20T10:25:18Z</time>
<speed>0.8</speed>
</trkpt>
<trkpt lat="47.603330" lon="8.434332">
<ele>619.9</ele>
<time>2003-07-20T10:25:23Z</time>
<speed>0.6</speed>
</trkpt>
<trkpt lat="47.603341" lon="8.434266">
<ele>620.2</ele>
<time>2003-07-20T10:25:28Z</time>
<speed>0.6</speed>
</trkpt>
<trkpt lat="47.603326" lon="8.434197">
<ele>620.3</ele>
<time>2003-07-20T10:25:33Z</time>
<speed>0.6</speed>
</trkpt>
<trkpt lat="47.603347" lon="8.434094">
<ele>619.5</ele>
<time>2003-07-20T10:25:38Z</time>
<speed>0.8</speed>
</trkpt>
<trkpt lat="47.603372" lon="8.434003">
<ele>619.7</ele>
<time>2003-07-20T10:25:43Z</time>
<speed>0.6</speed>
</trkpt>
<trkpt lat="47.603367" lon="8.433909">
<ele>618.9</ele>
<time>2003-07-20T10:25:48Z</time>
<speed>0.6</speed>
</trkpt>
<trkpt lat="47.603373" lon="8.433815">
<ele>619.6</ele>
<time>2003-07-20T10:25:53Z</time>
<speed>0.8</speed>
</trkpt>
<trkpt lat="47.603377" lon="8.433748">
<ele>620.5</ele>
<time>2003-07-20T10:25:58Z</time>
<speed>0.8</speed>
</trkpt>
<trkpt lat="47.603400" lon="8.433697">
<ele>620.9</ele>
<time>2003-07-20T10:26:03Z</time>
<speed>0.8</speed>
</trkpt>
<trkpt lat="47.603430" lon="8.433635">
<ele>620.6</ele>
<time>2003-07-20T10:26:08Z</time>
<speed>0.8</speed>
</trkpt>
<trkpt lat="47.603454" lon="8.433571">
<ele>620.9</ele>
<time>2003-07-20T10:26:13Z</time>
<speed>0.8</speed>
</trkpt>
<trkpt lat="47.603465" lon="8.433492">
<ele>621.0</ele>
<time>2003-07-20T10:26:18Z</time>
<speed>0.8</speed>
</trkpt>
<trkpt lat="47.603483" lon="8.433413">
<ele>621.9</ele>
<time>2003-07-20T10:26:23Z</time>
<speed>0.8</speed>
</trkpt>
<trkpt lat="47.603501" lon="8.433350">
<ele>621.5</ele>
<time>2003-07-20T10:26:28Z</time>
<speed>0.6</speed>
</trkpt>
<trkpt lat="47.603513" lon="8.433271">
<ele>621.6</ele>
<time>2003-07-20T10:26:33Z</time>
<speed>0.6</speed>
</trkpt>
<trkpt lat="47.603519" lon="8.433192">
<ele>621.1</ele>
<time>2003-07-20T10:26:39Z</time>
<speed>0.6</speed>
</trkpt>
<trkpt lat="47.603549" lon="8.433115">
<ele>622.0</ele>
<time>2003-07-20T10:26:44Z</time>
<speed>0.8</speed>
</trkpt>
<trkpt lat="47.603569" lon="8.433010">
<ele>622.7</ele>
<time>2003-07-20T10:26:49Z</time>
<speed>0.8</speed>
</trkpt>
<trkpt lat="47.603581" lon="8.432929">
<ele>624.2</ele>
<time>2003-07-20T10:26:54Z</time>
<speed>0.8</speed>
</trkpt>
<trkpt lat="47.603591" lon="8.432861">
<ele>625.9</ele>
<time>2003-07-20T10:26:59Z</time>
<speed>1.1</speed>
</trkpt>
<trkpt lat="47.603583" lon="8.432776">
<ele>628.0</ele>
<time>2003-07-20T10:27:04Z</time>
<speed>0.6</speed>
</trkpt>
<trkpt lat="47.603588" lon="8.432708">
<ele>628.9</ele>
<time>2003-07-20T10:27:09Z</time>
<speed>0.8</speed>
</trkpt>
<trkpt lat="47.603612" lon="8.432630">
<ele>630.6</ele>
<time>2003-07-20T10:27:14Z</time>
<speed>0.8</speed>
</trkpt>
<trkpt lat="47.603642" lon="8.432551">
<ele>632.9</ele>
<time>2003-07-20T10:27:19Z</time>
<speed>0.6</speed>
</trkpt>
<trkpt lat="47.603666" lon="8.432472">
<ele>634.6</ele>
<time>2003-07-20T10:27:24Z</time>
<speed>0.8</speed>
</trkpt>
<trkpt lat="47.603690" lon="8.432395">
<ele>634.8</ele>
<time>2003-07-20T10:27:29Z</time>
<speed>0.8</speed>
</trkpt>
<trkpt lat="47.603722" lon="8.432305">
<ele>635.6</ele>
<time>2003-07-20T10:27:34Z</time>
<speed>1.1</speed>
</trkpt>
<trkpt lat="47.603741" lon="8.432213">
<ele>636.4</ele>
<time>2003-07-20T10:27:39Z</time>
<speed>0.8</speed>
</trkpt>
<trkpt lat="47.603751" lon="8.432145">
<ele>638.1</ele>
<time>2003-07-20T10:27:44Z</time>
<speed>0.8</speed>
</trkpt>
<trkpt lat="47.603750" lon="8.432064">
<ele>638.1</ele>
<time>2003-07-20T10:27:49Z</time>
<speed>0.8</speed>
</trkpt>
<trkpt lat="47.603768" lon="8.431985">
<ele>639.0</ele>
<time>2003-07-20T10:27:54Z</time>
<speed>0.8</speed>
</trkpt>
<trkpt lat="47.603788" lon="8.431895">
<ele>638.4</ele>
<time>2003-07-20T10:27:59Z</time>
<speed>1.1</speed>
</trkpt>
<trkpt lat="47.603794" lon="8.431816">
<ele>637.8</ele>
<time>2003-07-20T10:28:04Z</time>
<speed>0.8</speed>
</trkpt>
<trkpt lat="47.603824" lon="8.431739">
<ele>638.8</ele>
<time>2003-07-20T10:28:09Z</time>
<speed>1.1</speed>
</trkpt>
<trkpt lat="47.603844" lon="8.431649">
<ele>638.1</ele>
<time>2003-07-20T10:28:14Z</time>
<speed>1.1</speed>
</trkpt>
<trkpt lat="47.603875" lon="8.431559">
<ele>639.0</ele>
<time>2003-07-20T10:28:19Z</time>
<speed>0.8</speed>
</trkpt>
<trkpt lat="47.603893" lon="8.431480">
<ele>639.9</ele>
<time>2003-07-20T10:28:24Z</time>
<speed>0.8</speed>
</trkpt>
<trkpt lat="47.603899" lon="8.431399">
<ele>640.7</ele>
<time>2003-07-20T10:28:29Z</time>
<speed>0.6</speed>
</trkpt>
<trkpt lat="47.603888" lon="8.431371">
<ele>640.4</ele>
<time>2003-07-20T10:28:34Z</time>
<speed>0.0</speed>
</trkpt>
<trkpt lat="47.603882" lon="8.431356">
<ele>641.0</ele>
<time>2003-07-20T10:28:39Z</time>
<speed>0.0</speed>
</trkpt>
<trkpt lat="47.603896" lon="8.431329">
<ele>642.3</ele>
<time>2003-07-20T10:28:44Z</time>
<speed>0.6</speed>
</trkpt>
<trkpt lat="47.603903" lon="8.431235">
<ele>643.0</ele>
<time>2003-07-20T10:28:49Z</time>
<speed>1.1</speed>
</trkpt>
<trkpt lat="47.603915" lon="8.431156">
<ele>643.1</ele>
<time>2003-07-20T10:28:54Z</time>
<speed>0.8</speed>
</trkpt>
<trkpt lat="47.603914" lon="8.431075">
<ele>643.2</ele>
<time>2003-07-20T10:28:59Z</time>
<speed>0.8</speed>
</trkpt>
<trkpt lat="47.603932" lon="8.430981">
<ele>645.4</ele>
<time>2003-07-20T10:29:04Z</time>
<speed>0.8</speed>
</trkpt>
<trkpt lat="47.603944" lon="8.430903">
<ele>645.5</ele>
<time>2003-07-20T10:29:09Z</time>
<speed>0.8</speed>
</trkpt>
<trkpt lat="47.603950" lon="8.430824">
<ele>644.9</ele>
<time>2003-07-20T10:29:14Z</time>
<speed>0.6</speed>
</trkpt>
<trkpt lat="47.603964" lon="8.430733">
<ele>643.6</ele>
<time>2003-07-20T10:29:19Z</time>
<speed>1.1</speed>
</trkpt>
<trkpt lat="47.603989" lon="8.430658">
<ele>642.4</ele>
<time>2003-07-20T10:29:24Z</time>
<speed>1.1</speed>
</trkpt>
<trkpt lat="47.604001" lon="8.430580">
<ele>642.5</ele>
<time>2003-07-20T10:29:29Z</time>
<speed>0.8</speed>
</trkpt>
<trkpt lat="47.604019" lon="8.430487">
<ele>643.3</ele>
<time>2003-07-20T10:29:34Z</time>
<speed>1.1</speed>
</trkpt>
<trkpt lat="47.604039" lon="8.430397">
<ele>642.7</ele>
<time>2003-07-20T10:29:39Z</time>
<speed>0.8</speed>
</trkpt>
<trkpt lat="47.604051" lon="8.430318">
<ele>642.9</ele>
<time>2003-07-20T10:29:44Z</time>
<speed>1.1</speed>
</trkpt>
<trkpt lat="47.604076" lon="8.430228">
<ele>643.0</ele>
<time>2003-07-20T10:29:49Z</time>
<speed>0.8</speed>
</trkpt>
<trkpt lat="47.604107" lon="8.430151">
<ele>643.9</ele>
<time>2003-07-20T10:29:54Z</time>
<speed>0.8</speed>
</trkpt>
<trkpt lat="47.604124" lon="8.430086">
<ele>644.9</ele>
<time>2003-07-20T10:29:59Z</time>
<speed>0.8</speed>
</trkpt>
<trkpt lat="47.604124" lon="8.429992">
<ele>644.9</ele>
<time>2003-07-20T10:30:04Z</time>
<speed>0.6</speed>
</trkpt>
<trkpt lat="47.604125" lon="8.429899">
<ele>643.5</ele>
<time>2003-07-20T10:30:09Z</time>
<speed>0.8</speed>
</trkpt>
<trkpt lat="47.604158" lon="8.429798">
<ele>642.8</ele>
<time>2003-07-20T10:30:14Z</time>
<speed>0.8</speed>
</trkpt>
<trkpt lat="47.604178" lon="8.429695">
<ele>642.1</ele>
<time>2003-07-20T10:30:19Z</time>
<speed>0.8</speed>
</trkpt>
<trkpt lat="47.604193" lon="8.429592">
<ele>640.6</ele>
<time>2003-07-20T10:30:24Z</time>
<speed>0.8</speed>
</trkpt>
<trkpt lat="47.604219" lon="8.429488">
<ele>640.7</ele>
<time>2003-07-20T10:30:29Z</time>
<speed>1.1</speed>
</trkpt>
<trkpt lat="47.604238" lon="8.429396">
<ele>641.4</ele>
<time>2003-07-20T10:30:34Z</time>
<speed>1.4</speed>
</trkpt>
<trkpt lat="47.604258" lon="8.429291">
<ele>642.1</ele>
<time>2003-07-20T10:30:39Z</time>
<speed>0.8</speed>
</trkpt>
<trkpt lat="47.604277" lon="8.429199">
<ele>642.9</ele>
<time>2003-07-20T10:30:44Z</time>
<speed>1.1</speed>
</trkpt>
<trkpt lat="47.604315" lon="8.429126">
<ele>641.8</ele>
<time>2003-07-20T10:30:49Z</time>
<speed>1.1</speed>
</trkpt>
<trkpt lat="47.604339" lon="8.429049">
<ele>642.0</ele>
<time>2003-07-20T10:30:54Z</time>
<speed>0.8</speed>
</trkpt>
<trkpt lat="47.604363" lon="8.428987">
<ele>640.9</ele>
<time>2003-07-20T10:30:59Z</time>
<speed>0.8</speed>
</trkpt>
<trkpt lat="47.604401" lon="8.428914">
<ele>639.8</ele>
<time>2003-07-20T10:31:04Z</time>
<speed>0.8</speed>
</trkpt>
<trkpt lat="47.604450" lon="8.428856">
<ele>638.9</ele>
<time>2003-07-20T10:31:09Z</time>
<speed>0.8</speed>
</trkpt>
<trkpt lat="47.604486" lon="8.428807">
<ele>639.3</ele>
<time>2003-07-20T10:31:14Z</time>
<speed>0.6</speed>
</trkpt>
<trkpt lat="47.604509" lon="8.428758">
<ele>638.4</ele>
<time>2003-07-20T10:31:19Z</time>
<speed>0.8</speed>
</trkpt>
<trkpt lat="47.604558" lon="8.428700">
<ele>637.4</ele>
<time>2003-07-20T10:31:24Z</time>
<speed>1.1</speed>
</trkpt>
<trkpt lat="47.604602" lon="8.428627">
<ele>637.0</ele>
<time>2003-07-20T10:31:29Z</time>
<speed>0.8</speed>
</trkpt>
<trkpt lat="47.604645" lon="8.428552">
<ele>638.1</ele>
<time>2003-07-20T10:31:34Z</time>
<speed>0.8</speed>
</trkpt>
<trkpt lat="47.604670" lon="8.428475">
<ele>638.3</ele>
<time>2003-07-20T10:31:39Z</time>
<speed>0.8</speed>
</trkpt>
<trkpt lat="47.604693" lon="8.428412">
<ele>638.6</ele>
<time>2003-07-20T10:31:44Z</time>
<speed>0.8</speed>
</trkpt>
<trkpt lat="47.604761" lon="8.428354">
<ele>639.9</ele>
<time>2003-07-20T10:31:49Z</time>
<speed>1.1</speed>
</trkpt>
<trkpt lat="47.604786" lon="8.428279">
<ele>638.7</ele>
<time>2003-07-20T10:31:54Z</time>
<speed>1.1</speed>
</trkpt>
<trkpt lat="47.604847" lon="8.428221">
<ele>639.2</ele>
<time>2003-07-20T10:31:59Z</time>
<speed>1.4</speed>
</trkpt>
<trkpt lat="47.604890" lon="8.428161">
<ele>638.9</ele>
<time>2003-07-20T10:32:04Z</time>
<speed>0.8</speed>
</trkpt>
<trkpt lat="47.604933" lon="8.428101">
<ele>638.6</ele>
<time>2003-07-20T10:32:09Z</time>
<speed>0.8</speed>
</trkpt>
<trkpt lat="47.604962" lon="8.428052">
<ele>638.4</ele>
<time>2003-07-20T10:32:14Z</time>
<speed>0.6</speed>
</trkpt>
<trkpt lat="47.605012" lon="8.427979">
<ele>638.7</ele>
<time>2003-07-20T10:32:19Z</time>
<speed>0.8</speed>
</trkpt>
<trkpt lat="47.605060" lon="8.427919">
<ele>639.2</ele>
<time>2003-07-20T10:32:24Z</time>
<speed>0.8</speed>
</trkpt>
<trkpt lat="47.605109" lon="8.427859">
<ele>639.7</ele>
<time>2003-07-20T10:32:29Z</time>
<speed>1.1</speed>
</trkpt>
<trkpt lat="47.605158" lon="8.427799">
<ele>640.1</ele>
<time>2003-07-20T10:32:34Z</time>
<speed>0.8</speed>
</trkpt>
<trkpt lat="47.605181" lon="8.427733">
<ele>641.8</ele>
<time>2003-07-20T10:32:39Z</time>
<speed>0.8</speed>
</trkpt>
<trkpt lat="47.605198" lon="8.427668">
<ele>642.8</ele>
<time>2003-07-20T10:32:44Z</time>
<speed>0.8</speed>
</trkpt>
<trkpt lat="47.605222" lon="8.427604">
<ele>643.1</ele>
<time>2003-07-20T10:32:49Z</time>
<speed>0.6</speed>
</trkpt>
<trkpt lat="47.605233" lon="8.427538">
<ele>643.4</ele>
<time>2003-07-20T10:32:54Z</time>
<speed>1.1</speed>
</trkpt>
<trkpt lat="47.605265" lon="8.427435">
<ele>644.1</ele>
<time>2003-07-20T10:32:59Z</time>
<speed>0.8</speed>
</trkpt>
<trkpt lat="47.605302" lon="8.427360">
<ele>644.4</ele>
<time>2003-07-20T10:33:04Z</time>
<speed>0.8</speed>
</trkpt>
<trkpt lat="47.605333" lon="8.427283">
<ele>645.4</ele>
<time>2003-07-20T10:33:09Z</time>
<speed>0.6</speed>
</trkpt>
<trkpt lat="47.605356" lon="8.427232">
<ele>645.8</ele>
<time>2003-07-20T10:33:14Z</time>
<speed>0.8</speed>
</trkpt>
<trkpt lat="47.605380" lon="8.427155">
<ele>646.0</ele>
<time>2003-07-20T10:33:19Z</time>
<speed>0.8</speed>
</trkpt>
<trkpt lat="47.605391" lon="8.427089">
<ele>646.3</ele>
<time>2003-07-20T10:33:24Z</time>
<speed>0.6</speed>
</trkpt>
<trkpt lat="47.605430" lon="8.427003">
<ele>645.1</ele>
<time>2003-07-20T10:33:29Z</time>
<speed>0.8</speed>
</trkpt>
<trkpt lat="47.605461" lon="8.426928">
<ele>644.6</ele>
<time>2003-07-20T10:33:34Z</time>
<speed>0.6</speed>
</trkpt>
<trkpt lat="47.605466" lon="8.426847">
<ele>645.4</ele>
<time>2003-07-20T10:33:39Z</time>
<speed>0.6</speed>
</trkpt>
<trkpt lat="47.605510" lon="8.426774">
<ele>645.0</ele>
<time>2003-07-20T10:33:44Z</time>
<speed>0.8</speed>
</trkpt>
<trkpt lat="47.605529" lon="8.426682">
<ele>645.8</ele>
<time>2003-07-20T10:33:49Z</time>
<speed>0.8</speed>
</trkpt>
<trkpt lat="47.605560" lon="8.426607">
<ele>645.4</ele>
<time>2003-07-20T10:33:54Z</time>
<speed>0.8</speed>
</trkpt>
<trkpt lat="47.605603" lon="8.426532">
<ele>646.4</ele>
<time>2003-07-20T10:33:59Z</time>
<speed>0.8</speed>
</trkpt>
<trkpt lat="47.605627" lon="8.426468">
<ele>646.7</ele>
<time>2003-07-20T10:34:04Z</time>
<speed>0.6</speed>
</trkpt>
<trkpt lat="47.605645" lon="8.426389">
<ele>647.6</ele>
<time>2003-07-20T10:34:09Z</time>
<speed>0.8</speed>
</trkpt>
<trkpt lat="47.605675" lon="8.426327">
<ele>647.2</ele>
<time>2003-07-20T10:34:14Z</time>
<speed>0.8</speed>
</trkpt>
<trkpt lat="47.605703" lon="8.426277">
<ele>648.4</ele>
<time>2003-07-20T10:34:19Z</time>
<speed>0.3</speed>
</trkpt>
<trkpt lat="47.605731" lon="8.426239">
<ele>649.7</ele>
<time>2003-07-20T10:34:24Z</time>
<speed>0.8</speed>
</trkpt>
<trkpt lat="47.605767" lon="8.426177">
<ele>650.0</ele>
<time>2003-07-20T10:34:29Z</time>
<speed>0.6</speed>
</trkpt>
<trkpt lat="47.605790" lon="8.426127">
<ele>650.5</ele>
<time>2003-07-20T10:34:34Z</time>
<speed>0.6</speed>
</trkpt>
<trkpt lat="47.605826" lon="8.426065">
<ele>650.8</ele>
<time>2003-07-20T10:34:39Z</time>
<speed>0.6</speed>
</trkpt>
<trkpt lat="47.605855" lon="8.425999">
<ele>653.3</ele>
<time>2003-07-20T10:34:44Z</time>
<speed>1.1</speed>
</trkpt>
<trkpt lat="47.605890" lon="8.425948">
<ele>655.2</ele>
<time>2003-07-20T10:34:49Z</time>
<speed>0.6</speed>
</trkpt>
<trkpt lat="47.605918" lon="8.425911">
<ele>656.4</ele>
<time>2003-07-20T10:34:54Z</time>
<speed>0.6</speed>
</trkpt>
<trkpt lat="47.605946" lon="8.425875">
<ele>656.3</ele>
<time>2003-07-20T10:34:59Z</time>
<speed>0.6</speed>
</trkpt>
<trkpt lat="47.605969" lon="8.425811">
<ele>656.6</ele>
<time>2003-07-20T10:35:04Z</time>
<speed>0.8</speed>
</trkpt>
<trkpt lat="47.606005" lon="8.425748">
<ele>658.4</ele>
<time>2003-07-20T10:35:09Z</time>
<speed>0.6</speed>
</trkpt>
<trkpt lat="47.606035" lon="8.425684">
<ele>659.5</ele>
<time>2003-07-20T10:35:14Z</time>
<speed>0.6</speed>
</trkpt>
<trkpt lat="47.606057" lon="8.425631">
<ele>661.3</ele>
<time>2003-07-20T10:35:19Z</time>
<speed>0.3</speed>
</trkpt>
<trkpt lat="47.606068" lon="8.425565">
<ele>661.5</ele>
<time>2003-07-20T10:35:24Z</time>
<speed>0.3</speed>
</trkpt>
<trkpt lat="47.606083" lon="8.425526">
<ele>662.7</ele>
<time>2003-07-20T10:35:29Z</time>
<speed>0.3</speed>
</trkpt>
<trkpt lat="47.606099" lon="8.425473">
<ele>663.8</ele>
<time>2003-07-20T10:35:34Z</time>
<speed>0.3</speed>
</trkpt>
<trkpt lat="47.606116" lon="8.425409">
<ele>663.4</ele>
<time>2003-07-20T10:35:39Z</time>
<speed>0.8</speed>
</trkpt>
<trkpt lat="47.606140" lon="8.425346">
<ele>663.7</ele>
<time>2003-07-20T10:35:44Z</time>
<speed>0.6</speed>
</trkpt>
<trkpt lat="47.606156" lon="8.425293">
<ele>664.8</ele>
<time>2003-07-20T10:35:49Z</time>
<speed>0.6</speed>
</trkpt>
<trkpt lat="47.606173" lon="8.425227">
<ele>665.7</ele>
<time>2003-07-20T10:35:54Z</time>
<speed>0.6</speed>
</trkpt>
<trkpt lat="47.606176" lon="8.425173">
<ele>666.8</ele>
<time>2003-07-20T10:35:59Z</time>
<speed>0.3</speed>
</trkpt>
<trkpt lat="47.606199" lon="8.425122">
<ele>667.2</ele>
<time>2003-07-20T10:36:04Z</time>
<speed>0.3</speed>
</trkpt>
<trkpt lat="47.606235" lon="8.425060">
<ele>667.6</ele>
<time>2003-07-20T10:36:09Z</time>
<speed>0.3</speed>
</trkpt>
<trkpt lat="47.606245" lon="8.425008">
<ele>667.9</ele>
<time>2003-07-20T10:36:14Z</time>
<speed>0.6</speed>
</trkpt>
<trkpt lat="47.606273" lon="8.424972">
<ele>667.7</ele>
<time>2003-07-20T10:36:19Z</time>
<speed>0.3</speed>
</trkpt>
<trkpt lat="47.606281" lon="8.424946">
<ele>668.3</ele>
<time>2003-07-20T10:36:24Z</time>
<speed>0.6</speed>
</trkpt>
<trkpt lat="47.606317" lon="8.424884">
<ele>668.7</ele>
<time>2003-07-20T10:36:29Z</time>
<speed>0.6</speed>
</trkpt>
<trkpt lat="47.606341" lon="8.424820">
<ele>669.0</ele>
<time>2003-07-20T10:36:34Z</time>
<speed>0.8</speed>
</trkpt>
<trkpt lat="47.606358" lon="8.424756">
<ele>668.6</ele>
<time>2003-07-20T10:36:39Z</time>
<speed>0.6</speed>
</trkpt>
<trkpt lat="47.606383" lon="8.424679">
<ele>668.8</ele>
<time>2003-07-20T10:36:44Z</time>
<speed>0.6</speed>
</trkpt>
<trkpt lat="47.606418" lon="8.424613">
<ele>672.0</ele>
<time>2003-07-20T10:36:49Z</time>
<speed>0.3</speed>
</trkpt>
<trkpt lat="47.606440" lon="8.424576">
<ele>672.5</ele>
<time>2003-07-20T10:36:54Z</time>
<speed>0.3</speed>
</trkpt>
<trkpt lat="47.606468" lon="8.424525">
<ele>673.7</ele>
<time>2003-07-20T10:36:59Z</time>
<speed>0.6</speed>
</trkpt>
<trkpt lat="47.606487" lon="8.424448">
<ele>673.1</ele>
<time>2003-07-20T10:37:04Z</time>
<speed>0.6</speed>
</trkpt>
<trkpt lat="47.606499" lon="8.424369">
<ele>673.3</ele>
<time>2003-07-20T10:37:09Z</time>
<speed>0.6</speed>
</trkpt>
<trkpt lat="47.606544" lon="8.424283">
<ele>672.8</ele>
<time>2003-07-20T10:37:14Z</time>
<speed>0.6</speed>
</trkpt>
<trkpt lat="47.606586" lon="8.424223">
<ele>672.5</ele>
<time>2003-07-20T10:37:19Z</time>
<speed>0.6</speed>
</trkpt>
<trkpt lat="47.606610" lon="8.424144">
<ele>674.1</ele>
<time>2003-07-20T10:37:24Z</time>
<speed>0.6</speed>
</trkpt>
<trkpt lat="47.606623" lon="8.424052">
<ele>674.2</ele>
<time>2003-07-20T10:37:29Z</time>
<speed>0.3</speed>
</trkpt>
<trkpt lat="47.606629" lon="8.423971">
<ele>675.0</ele>
<time>2003-07-20T10:37:34Z</time>
<speed>0.6</speed>
</trkpt>
<trkpt lat="47.606610" lon="8.423873">
<ele>675.6</ele>
<time>2003-07-20T10:37:40Z</time>
<speed>0.3</speed>
</trkpt>
<trkpt lat="47.606602" lon="8.423791">
<ele>676.3</ele>
<time>2003-07-20T10:37:45Z</time>
<speed>0.8</speed>
</trkpt>
<trkpt lat="47.606595" lon="8.423708">
<ele>677.1</ele>
<time>2003-07-20T10:37:50Z</time>
<speed>0.6</speed>
</trkpt>
<trkpt lat="47.606594" lon="8.423627">
<ele>677.1</ele>
<time>2003-07-20T10:37:55Z</time>
<speed>0.6</speed>
</trkpt>
<trkpt lat="47.606582" lon="8.423531">
<ele>677.0</ele>
<time>2003-07-20T10:38:00Z</time>
<speed>0.8</speed>
</trkpt>
<trkpt lat="47.606562" lon="8.423448">
<ele>676.3</ele>
<time>2003-07-20T10:38:05Z</time>
<speed>0.6</speed>
</trkpt>
<trkpt lat="47.606574" lon="8.423367">
<ele>677.9</ele>
<time>2003-07-20T10:38:10Z</time>
<speed>0.6</speed>
</trkpt>
<trkpt lat="47.606592" lon="8.423290">
<ele>677.3</ele>
<time>2003-07-20T10:38:15Z</time>
<speed>0.6</speed>
</trkpt>
<trkpt lat="47.606598" lon="8.423209">
<ele>678.1</ele>
<time>2003-07-20T10:38:20Z</time>
<speed>0.6</speed>
</trkpt>
<trkpt lat="47.606585" lon="8.423113">
<ele>678.1</ele>
<time>2003-07-20T10:38:25Z</time>
<speed>0.6</speed>
</trkpt>
<trkpt lat="47.606584" lon="8.423032">
<ele>678.1</ele>
<time>2003-07-20T10:38:30Z</time>
<speed>0.8</speed>
</trkpt>
<trkpt lat="47.606597" lon="8.422940">
<ele>678.2</ele>
<time>2003-07-20T10:38:35Z</time>
<speed>0.8</speed>
</trkpt>
<trkpt lat="47.606604" lon="8.422848">
<ele>677.5</ele>
<time>2003-07-20T10:38:40Z</time>
<speed>0.6</speed>
</trkpt>
<trkpt lat="47.606602" lon="8.422779">
<ele>679.1</ele>
<time>2003-07-20T10:38:45Z</time>
<speed>0.8</speed>
</trkpt>
<trkpt lat="47.606577" lon="8.422681">
<ele>678.9</ele>
<time>2003-07-20T10:38:50Z</time>
<speed>1.1</speed>
</trkpt>
<trkpt lat="47.606570" lon="8.422598">
<ele>679.6</ele>
<time>2003-07-20T10:38:55Z</time>
<speed>0.6</speed>
</trkpt>
<trkpt lat="47.606564" lon="8.422504">
<ele>678.9</ele>
<time>2003-07-20T10:39:00Z</time>
<speed>0.8</speed>
</trkpt>
<trkpt lat="47.606580" lon="8.422453">
<ele>678.5</ele>
<time>2003-07-20T10:39:05Z</time>
<speed>0.8</speed>
</trkpt>
<trkpt lat="47.606597" lon="8.422404">
<ele>676.8</ele>
<time>2003-07-20T10:39:10Z</time>
<speed>0.8</speed>
</trkpt>
<trkpt lat="47.606635" lon="8.422329">
<ele>677.1</ele>
<time>2003-07-20T10:39:15Z</time>
<speed>0.8</speed>
</trkpt>
<trkpt lat="47.606667" lon="8.422226">
<ele>677.9</ele>
<time>2003-07-20T10:39:20Z</time>
<speed>1.1</speed>
</trkpt>
<trkpt lat="47.606686" lon="8.422149">
<ele>677.3</ele>
<time>2003-07-20T10:39:25Z</time>
<speed>0.8</speed>
</trkpt>
<trkpt lat="47.606690" lon="8.422083">
<ele>676.9</ele>
<time>2003-07-20T10:39:30Z</time>
<speed>0.8</speed>
</trkpt>
<trkpt lat="47.606697" lon="8.421991">
<ele>676.2</ele>
<time>2003-07-20T10:39:35Z</time>
<speed>0.8</speed>
</trkpt>
<trkpt lat="47.606715" lon="8.421927">
<ele>675.7</ele>
<time>2003-07-20T10:39:40Z</time>
<speed>0.8</speed>
</trkpt>
<trkpt lat="47.606753" lon="8.421839">
<ele>675.9</ele>
<time>2003-07-20T10:39:45Z</time>
<speed>0.8</speed>
</trkpt>
<trkpt lat="47.606766" lon="8.421747">
<ele>676.0</ele>
<time>2003-07-20T10:39:50Z</time>
<speed>0.8</speed>
</trkpt>
<trkpt lat="47.606779" lon="8.421655">
<ele>676.0</ele>
<time>2003-07-20T10:39:55Z</time>
<speed>0.8</speed>
</trkpt>
<trkpt lat="47.606791" lon="8.421563">
<ele>676.1</ele>
<time>2003-07-20T10:40:00Z</time>
<speed>0.6</speed>
</trkpt>
<trkpt lat="47.606817" lon="8.421473">
<ele>676.2</ele>
<time>2003-07-20T10:40:05Z</time>
<speed>0.8</speed>
</trkpt>
<trkpt lat="47.606835" lon="8.421396">
<ele>675.7</ele>
<time>2003-07-20T10:40:10Z</time>
<speed>0.6</speed>
</trkpt>
<trkpt lat="47.606834" lon="8.421328">
<ele>675.8</ele>
<time>2003-07-20T10:40:15Z</time>
<speed>0.6</speed>
</trkpt>
<trkpt lat="47.606847" lon="8.421236">
<ele>675.9</ele>
<time>2003-07-20T10:40:20Z</time>
<speed>0.8</speed>
</trkpt>
<trkpt lat="47.606865" lon="8.421157">
<ele>676.8</ele>
<time>2003-07-20T10:40:25Z</time>
<speed>0.8</speed>
</trkpt>
<trkpt lat="47.606875" lon="8.421105">
<ele>677.1</ele>
<time>2003-07-20T10:40:30Z</time>
<speed>0.6</speed>
</trkpt>
<trkpt lat="47.606898" lon="8.421039">
<ele>678.8</ele>
<time>2003-07-20T10:40:35Z</time>
<speed>0.6</speed>
</trkpt>
<trkpt lat="47.606916" lon="8.420962">
<ele>678.3</ele>
<time>2003-07-20T10:40:40Z</time>
<speed>0.8</speed>
</trkpt>
<trkpt lat="47.606927" lon="8.420896">
<ele>678.6</ele>
<time>2003-07-20T10:40:45Z</time>
<speed>0.8</speed>
</trkpt>
<trkpt lat="47.606946" lon="8.420804">
<ele>679.4</ele>
<time>2003-07-20T10:40:50Z</time>
<speed>0.6</speed>
</trkpt>
<trkpt lat="47.606950" lon="8.420736">
<ele>680.3</ele>
<time>2003-07-20T10:40:55Z</time>
<speed>0.6</speed>
</trkpt>
<trkpt lat="47.606969" lon="8.420644">
<ele>681.0</ele>
<time>2003-07-20T10:41:00Z</time>
<speed>0.6</speed>
</trkpt>
<trkpt lat="47.606981" lon="8.420563">
<ele>682.6</ele>
<time>2003-07-20T10:41:05Z</time>
<speed>0.6</speed>
</trkpt>
<trkpt lat="47.606980" lon="8.420482">
<ele>682.7</ele>
<time>2003-07-20T10:41:10Z</time>
<speed>0.6</speed>
</trkpt>
<trkpt lat="47.606987" lon="8.420390">
<ele>682.0</ele>
<time>2003-07-20T10:41:15Z</time>
<speed>0.6</speed>
</trkpt>
<trkpt lat="47.606986" lon="8.420294">
<ele>683.4</ele>
<time>2003-07-20T10:41:20Z</time>
<speed>0.8</speed>
</trkpt>
<trkpt lat="47.606987" lon="8.420200">
<ele>683.3</ele>
<time>2003-07-20T10:41:25Z</time>
<speed>0.8</speed>
</trkpt>
<trkpt lat="47.606967" lon="8.420115">
<ele>684.0</ele>
<time>2003-07-20T10:41:30Z</time>
<speed>0.6</speed>
</trkpt>
<trkpt lat="47.606966" lon="8.420037">
<ele>682.7</ele>
<time>2003-07-20T10:41:35Z</time>
<speed>0.6</speed>
</trkpt>
<trkpt lat="47.606967" lon="8.419943">
<ele>682.7</ele>
<time>2003-07-20T10:41:40Z</time>
<speed>0.6</speed>
</trkpt>
<trkpt lat="47.606966" lon="8.419862">
<ele>682.7</ele>
<time>2003-07-20T10:41:45Z</time>
<speed>0.6</speed>
</trkpt>
<trkpt lat="47.606978" lon="8.419783">
<ele>682.9</ele>
<time>2003-07-20T10:41:50Z</time>
<speed>0.8</speed>
</trkpt>
<trkpt lat="47.606984" lon="8.419704">
<ele>682.3</ele>
<time>2003-07-20T10:41:55Z</time>
<speed>0.8</speed>
</trkpt>
<trkpt lat="47.606969" lon="8.419634">
<ele>682.4</ele>
<time>2003-07-20T10:42:00Z</time>
<speed>0.6</speed>
</trkpt>
<trkpt lat="47.606988" lon="8.419557">
<ele>681.9</ele>
<time>2003-07-20T10:42:05Z</time>
<speed>0.6</speed>
</trkpt>
<trkpt lat="47.606980" lon="8.419489">
<ele>681.3</ele>
<time>2003-07-20T10:42:10Z</time>
<speed>0.6</speed>
</trkpt>
<trkpt lat="47.606960" lon="8.419403">
<ele>683.4</ele>
<time>2003-07-20T10:42:15Z</time>
<speed>0.6</speed>
</trkpt>
<trkpt lat="47.606934" lon="8.419318">
<ele>683.3</ele>
<time>2003-07-20T10:42:20Z</time>
<speed>0.6</speed>
</trkpt>
<trkpt lat="47.606920" lon="8.419235">
<ele>683.3</ele>
<time>2003-07-20T10:42:25Z</time>
<speed>0.6</speed>
</trkpt>
<trkpt lat="47.606905" lon="8.419179">
<ele>683.5</ele>
<time>2003-07-20T10:42:30Z</time>
<speed>0.6</speed>
</trkpt>
<trkpt lat="47.606879" lon="8.419094">
<ele>683.4</ele>
<time>2003-07-20T10:42:35Z</time>
<speed>0.6</speed>
</trkpt>
<trkpt lat="47.606871" lon="8.419024">
<ele>684.3</ele>
<time>2003-07-20T10:42:40Z</time>
<speed>0.3</speed>
</trkpt>
<trkpt lat="47.606857" lon="8.418941">
<ele>684.3</ele>
<time>2003-07-20T10:42:45Z</time>
<speed>0.3</speed>
</trkpt>
<trkpt lat="47.606830" lon="8.418870">
<ele>684.3</ele>
<time>2003-07-20T10:42:50Z</time>
<speed>0.3</speed>
</trkpt>
<trkpt lat="47.606766" lon="8.418779">
<ele>684.0</ele>
<time>2003-07-20T10:42:55Z</time>
<speed>0.8</speed>
</trkpt>
<trkpt lat="47.606753" lon="8.418696">
<ele>684.0</ele>
<time>2003-07-20T10:43:00Z</time>
<speed>0.6</speed>
</trkpt>
<trkpt lat="47.606740" lon="8.418615">
<ele>682.6</ele>
<time>2003-07-20T10:43:05Z</time>
<speed>0.6</speed>
</trkpt>
<trkpt lat="47.606754" lon="8.418510">
<ele>682.6</ele>
<time>2003-07-20T10:43:10Z</time>
<speed>0.6</speed>
</trkpt>
<trkpt lat="47.606766" lon="8.418416">
<ele>684.0</ele>
<time>2003-07-20T10:43:15Z</time>
<speed>0.3</speed>
</trkpt>
<trkpt lat="47.606733" lon="8.418345">
<ele>683.3</ele>
<time>2003-07-20T10:43:20Z</time>
<speed>0.0</speed>
</trkpt>
<trkpt lat="47.606711" lon="8.418301">
<ele>682.9</ele>
<time>2003-07-20T10:43:25Z</time>
<speed>0.6</speed>
</trkpt>
<trkpt lat="47.606708" lon="8.418247">
<ele>683.2</ele>
<time>2003-07-20T10:43:30Z</time>
<speed>0.6</speed>
</trkpt>
<trkpt lat="47.606700" lon="8.418192">
<ele>682.7</ele>
<time>2003-07-20T10:43:35Z</time>
<speed>0.6</speed>
</trkpt>
<trkpt lat="47.606692" lon="8.418109">
<ele>683.4</ele>
<time>2003-07-20T10:43:40Z</time>
<speed>0.6</speed>
</trkpt>
<trkpt lat="47.606667" lon="8.418026">
<ele>682.0</ele>
<time>2003-07-20T10:43:45Z</time>
<speed>0.6</speed>
</trkpt>
<trkpt lat="47.606671" lon="8.417974">
<ele>681.6</ele>
<time>2003-07-20T10:43:50Z</time>
<speed>0.3</speed>
</trkpt>
<trkpt lat="47.606689" lon="8.417895">
<ele>682.5</ele>
<time>2003-07-20T10:43:55Z</time>
<speed>0.8</speed>
</trkpt>
<trkpt lat="47.606663" lon="8.417812">
<ele>681.0</ele>
<time>2003-07-20T10:44:00Z</time>
<speed>0.6</speed>
</trkpt>
<trkpt lat="47.606655" lon="8.417744">
<ele>680.4</ele>
<time>2003-07-20T10:44:05Z</time>
<speed>0.6</speed>
</trkpt>
<trkpt lat="47.606637" lon="8.417648">
<ele>679.6</ele>
<time>2003-07-20T10:44:10Z</time>
<speed>0.6</speed>
</trkpt>
<trkpt lat="47.606636" lon="8.417566">
<ele>681.1</ele>
<time>2003-07-20T10:44:15Z</time>
<speed>0.6</speed>
</trkpt>
<trkpt lat="47.606642" lon="8.417471">
<ele>681.8</ele>
<time>2003-07-20T10:44:20Z</time>
<speed>0.3</speed>
</trkpt>
<trkpt lat="47.606661" lon="8.417381">
<ele>681.2</ele>
<time>2003-07-20T10:44:25Z</time>
<speed>0.6</speed>
</trkpt>
<trkpt lat="47.606647" lon="8.417312">
<ele>681.3</ele>
<time>2003-07-20T10:44:30Z</time>
<speed>0.0</speed>
</trkpt>
<trkpt lat="47.606621" lon="8.417227">
<ele>681.2</ele>
<time>2003-07-20T10:44:35Z</time>
<speed>0.8</speed>
</trkpt>
<trkpt lat="47.606616" lon="8.417120">
<ele>680.3</ele>
<time>2003-07-20T10:44:40Z</time>
<speed>0.8</speed>
</trkpt>
<trkpt lat="47.606596" lon="8.417035">
<ele>681.0</ele>
<time>2003-07-20T10:44:45Z</time>
<speed>0.6</speed>
</trkpt>
<trkpt lat="47.606583" lon="8.416952">
<ele>681.0</ele>
<time>2003-07-20T10:44:50Z</time>
<speed>0.3</speed>
</trkpt>
<trkpt lat="47.606535" lon="8.416903">
<ele>681.8</ele>
<time>2003-07-20T10:44:55Z</time>
<speed>0.8</speed>
</trkpt>
<trkpt lat="47.606495" lon="8.416829">
<ele>681.8</ele>
<time>2003-07-20T10:45:00Z</time>
<speed>0.6</speed>
</trkpt>
<trkpt lat="47.606469" lon="8.416745">
<ele>681.7</ele>
<time>2003-07-20T10:45:05Z</time>
<speed>0.3</speed>
</trkpt>
<trkpt lat="47.606455" lon="8.416675">
<ele>681.8</ele>
<time>2003-07-20T10:45:10Z</time>
<speed>0.3</speed>
</trkpt>
<trkpt lat="47.606434" lon="8.416605">
<ele>681.2</ele>
<time>2003-07-20T10:45:15Z</time>
<speed>0.3</speed>
</trkpt>
<trkpt lat="47.606411" lon="8.416575">
<ele>680.8</ele>
<time>2003-07-20T10:45:20Z</time>
<speed>0.0</speed>
</trkpt>
<trkpt lat="47.606365" lon="8.416502">
<ele>680.1</ele>
<time>2003-07-20T10:45:25Z</time>
<speed>0.6</speed>
</trkpt>
<trkpt lat="47.606338" lon="8.416430">
<ele>680.1</ele>
<time>2003-07-20T10:45:30Z</time>
<speed>0.0</speed>
</trkpt>
<trkpt lat="47.606310" lon="8.416371">
<ele>680.2</ele>
<time>2003-07-20T10:45:35Z</time>
<speed>0.3</speed>
</trkpt>
<trkpt lat="47.606275" lon="8.416326">
<ele>679.7</ele>
<time>2003-07-20T10:45:40Z</time>
<speed>0.0</speed>
</trkpt>
<trkpt lat="47.606247" lon="8.416281">
<ele>679.9</ele>
<time>2003-07-20T10:45:45Z</time>
<speed>0.3</speed>
</trkpt>
<trkpt lat="47.606243" lon="8.416239">
<ele>680.3</ele>
<time>2003-07-20T10:45:50Z</time>
<speed>0.0</speed>
</trkpt>
<trkpt lat="47.606251" lon="8.416213">
<ele>680.8</ele>
<time>2003-07-20T10:45:55Z</time>
<speed>0.0</speed>
</trkpt>
<trkpt lat="47.606259" lon="8.416189">
<ele>680.0</ele>
<time>2003-07-20T10:46:00Z</time>
<speed>0.0</speed>
</trkpt>
<trkpt lat="47.606267" lon="8.416178">
<ele>679.2</ele>
<time>2003-07-20T10:46:05Z</time>
<speed>0.3</speed>
</trkpt>
<trkpt lat="47.606269" lon="8.416151">
<ele>679.0</ele>
<time>2003-07-20T10:46:10Z</time>
<speed>0.0</speed>
</trkpt>
<trkpt lat="47.606240" lon="8.416108">
<ele>677.8</ele>
<time>2003-07-20T10:46:15Z</time>
<speed>0.0</speed>
</trkpt>
<trkpt lat="47.606199" lon="8.416061">
<ele>678.0</ele>
<time>2003-07-20T10:46:20Z</time>
<speed>0.0</speed>
</trkpt>
<trkpt lat="47.606214" lon="8.416023">
<ele>677.8</ele>
<time>2003-07-20T10:46:25Z</time>
<speed>0.0</speed>
</trkpt>
<trkpt lat="47.606212" lon="8.415970">
<ele>676.6</ele>
<time>2003-07-20T10:46:30Z</time>
<speed>0.3</speed>
</trkpt>
<trkpt lat="47.606190" lon="8.415927">
<ele>676.2</ele>
<time>2003-07-20T10:46:35Z</time>
<speed>0.0</speed>
</trkpt>
<trkpt lat="47.606168" lon="8.415884">
<ele>675.8</ele>
<time>2003-07-20T10:46:40Z</time>
<speed>0.3</speed>
</trkpt>
<trkpt lat="47.606152" lon="8.415827">
<ele>676.0</ele>
<time>2003-07-20T10:46:45Z</time>
<speed>0.0</speed>
</trkpt>
<trkpt lat="47.606145" lon="8.415744">
<ele>676.7</ele>
<time>2003-07-20T10:46:50Z</time>
<speed>0.8</speed>
</trkpt>
<trkpt lat="47.606143" lon="8.415692">
<ele>675.6</ele>
<time>2003-07-20T10:46:55Z</time>
<speed>0.8</speed>
</trkpt>
<trkpt lat="47.606153" lon="8.415641">
<ele>674.5</ele>
<time>2003-07-20T10:47:00Z</time>
<speed>0.0</speed>
</trkpt>
<trkpt lat="47.606087" lon="8.415592">
<ele>673.1</ele>
<time>2003-07-20T10:47:05Z</time>
<speed>0.3</speed>
</trkpt>
<trkpt lat="47.606088" lon="8.415579">
<ele>673.0</ele>
<time>2003-07-20T10:47:10Z</time>
<speed>0.0</speed>
</trkpt>
<trkpt lat="47.606065" lon="8.415549">
<ele>672.7</ele>
<time>2003-07-20T10:47:15Z</time>
<speed>0.3</speed>
</trkpt>
<trkpt lat="47.606049" lon="8.415492">
<ele>672.9</ele>
<time>2003-07-20T10:47:20Z</time>
<speed>0.6</speed>
</trkpt>
<trkpt lat="47.606048" lon="8.415426">
<ele>671.6</ele>
<time>2003-07-20T10:47:25Z</time>
<speed>0.6</speed>
</trkpt>
<trkpt lat="47.606041" lon="8.415343">
<ele>672.4</ele>
<time>2003-07-20T10:47:30Z</time>
<speed>0.8</speed>
</trkpt>
<trkpt lat="47.606021" lon="8.415261">
<ele>671.7</ele>
<time>2003-07-20T10:47:35Z</time>
<speed>0.6</speed>
</trkpt>
<trkpt lat="47.606002" lon="8.415178">
<ele>670.9</ele>
<time>2003-07-20T10:47:40Z</time>
<speed>0.6</speed>
</trkpt>
<trkpt lat="47.605971" lon="8.415080">
<ele>670.0</ele>
<time>2003-07-20T10:47:45Z</time>
<speed>0.3</speed>
</trkpt>
<trkpt lat="47.605951" lon="8.414997">
<ele>669.3</ele>
<time>2003-07-20T10:47:50Z</time>
<speed>0.6</speed>
</trkpt>
<trkpt lat="47.605937" lon="8.414927">
<ele>669.4</ele>
<time>2003-07-20T10:47:55Z</time>
<speed>0.0</speed>
</trkpt>
<trkpt lat="47.605930" lon="8.414847">
<ele>668.7</ele>
<time>2003-07-20T10:48:00Z</time>
<speed>0.3</speed>
</trkpt>
<trkpt lat="47.605916" lon="8.414777">
<ele>668.8</ele>
<time>2003-07-20T10:48:05Z</time>
<speed>0.6</speed>
</trkpt>
<trkpt lat="47.605889" lon="8.414705">
<ele>668.8</ele>
<time>2003-07-20T10:48:10Z</time>
<speed>0.3</speed>
</trkpt>
<trkpt lat="47.605811" lon="8.414643">
<ele>665.9</ele>
<time>2003-07-20T10:48:15Z</time>
<speed>0.3</speed>
</trkpt>
<trkpt lat="47.605725" lon="8.414605">
<ele>663.8</ele>
<time>2003-07-20T10:48:20Z</time>
<speed>0.3</speed>
</trkpt>
<trkpt lat="47.605666" lon="8.414558">
<ele>661.7</ele>
<time>2003-07-20T10:48:25Z</time>
<speed>0.0</speed>
</trkpt>
<trkpt lat="47.605618" lon="8.414526">
<ele>659.8</ele>
<time>2003-07-20T10:48:30Z</time>
<speed>0.3</speed>
</trkpt>
<trkpt lat="47.605544" lon="8.414488">
<ele>659.2</ele>
<time>2003-07-20T10:48:35Z</time>
<speed>0.3</speed>
</trkpt>
<trkpt lat="47.605490" lon="8.414440">
<ele>657.9</ele>
<time>2003-07-20T10:48:40Z</time>
<speed>0.6</speed>
</trkpt>
<trkpt lat="47.605500" lon="8.414403">
<ele>656.9</ele>
<time>2003-07-20T10:48:45Z</time>
<speed>0.3</speed>
</trkpt>
<trkpt lat="47.605514" lon="8.414394">
<ele>655.5</ele>
<time>2003-07-20T10:48:50Z</time>
<speed>0.3</speed>
</trkpt>
<trkpt lat="47.605517" lon="8.414356">
<ele>653.8</ele>
<time>2003-07-20T10:48:55Z</time>
<speed>0.0</speed>
</trkpt>
<trkpt lat="47.605507" lon="8.414315">
<ele>653.4</ele>
<time>2003-07-20T10:49:00Z</time>
<speed>0.0</speed>
</trkpt>
<trkpt lat="47.605510" lon="8.414275">
<ele>653.1</ele>
<time>2003-07-20T10:49:05Z</time>
<speed>0.3</speed>
</trkpt>
<trkpt lat="47.605543" lon="8.414266">
<ele>653.9</ele>
<time>2003-07-20T10:49:10Z</time>
<speed>0.6</speed>
</trkpt>
<trkpt lat="47.605564" lon="8.414261">
<ele>650.4</ele>
<time>2003-07-20T10:49:15Z</time>
<speed>0.6</speed>
</trkpt>
<trkpt lat="47.605597" lon="8.414253">
<ele>649.8</ele>
<time>2003-07-20T10:49:20Z</time>
<speed>0.6</speed>
</trkpt>
<trkpt lat="47.605606" lon="8.414199">
<ele>651.5</ele>
<time>2003-07-20T10:49:25Z</time>
<speed>0.3</speed>
</trkpt>
<trkpt lat="47.605635" lon="8.414150">
<ele>651.3</ele>
<time>2003-07-20T10:49:30Z</time>
<speed>0.3</speed>
</trkpt>
<trkpt lat="47.605654" lon="8.414073">
<ele>650.8</ele>
<time>2003-07-20T10:49:35Z</time>
<speed>0.3</speed>
</trkpt>
<trkpt lat="47.605638" lon="8.414016">
<ele>651.0</ele>
<time>2003-07-20T10:49:40Z</time>
<speed>0.0</speed>
</trkpt>
<trkpt lat="47.605584" lon="8.413982">
<ele>649.7</ele>
<time>2003-07-20T10:49:45Z</time>
<speed>0.3</speed>
</trkpt>
<trkpt lat="47.605568" lon="8.413926">
<ele>649.9</ele>
<time>2003-07-20T10:49:50Z</time>
<speed>0.3</speed>
</trkpt>
<trkpt lat="47.605540" lon="8.413867">
<ele>650.1</ele>
<time>2003-07-20T10:49:55Z</time>
<speed>0.3</speed>
</trkpt>
<trkpt lat="47.605500" lon="8.413807">
<ele>650.1</ele>
<time>2003-07-20T10:50:00Z</time>
<speed>0.6</speed>
</trkpt>
<trkpt lat="47.605365" lon="8.413688">
<ele>642.2</ele>
<time>2003-07-20T10:50:05Z</time>
<speed>1.1</speed>
</trkpt>
<trkpt lat="47.605276" lon="8.413596">
<ele>640.4</ele>
<time>2003-07-20T10:50:10Z</time>
<speed>1.4</speed>
</trkpt>
<trkpt lat="47.605224" lon="8.413520">
<ele>640.2</ele>
<time>2003-07-20T10:50:15Z</time>
<speed>1.1</speed>
</trkpt>
<trkpt lat="47.605169" lon="8.413471">
<ele>640.3</ele>
<time>2003-07-20T10:50:20Z</time>
<speed>1.1</speed>
</trkpt>
<trkpt lat="47.605122" lon="8.413409">
<ele>641.0</ele>
<time>2003-07-20T10:50:25Z</time>
<speed>1.1</speed>
</trkpt>
<trkpt lat="47.605082" lon="8.413348">
<ele>641.1</ele>
<time>2003-07-20T10:50:30Z</time>
<speed>1.1</speed>
</trkpt>
<trkpt lat="47.605048" lon="8.413275">
<ele>641.8</ele>
<time>2003-07-20T10:50:35Z</time>
<speed>1.4</speed>
</trkpt>
<trkpt lat="47.605015" lon="8.413218">
<ele>639.8</ele>
<time>2003-07-20T10:50:40Z</time>
<speed>1.4</speed>
</trkpt>
<trkpt lat="47.605000" lon="8.413163">
<ele>638.6</ele>
<time>2003-07-20T10:50:45Z</time>
<speed>1.4</speed>
</trkpt>
<trkpt lat="47.604961" lon="8.413092">
<ele>637.1</ele>
<time>2003-07-20T10:50:50Z</time>
<speed>1.1</speed>
</trkpt>
<trkpt lat="47.604927" lon="8.413033">
<ele>636.5</ele>
<time>2003-07-20T10:50:55Z</time>
<speed>1.1</speed>
</trkpt>
<trkpt lat="47.604899" lon="8.412975">
<ele>636.7</ele>
<time>2003-07-20T10:51:00Z</time>
<speed>0.8</speed>
</trkpt>
<trkpt lat="47.604878" lon="8.412905">
<ele>636.0</ele>
<time>2003-07-20T10:51:05Z</time>
<speed>1.4</speed>
</trkpt>
<trkpt lat="47.604840" lon="8.412819">
<ele>635.9</ele>
<time>2003-07-20T10:51:10Z</time>
<speed>1.4</speed>
</trkpt>
<trkpt lat="47.604805" lon="8.412758">
<ele>636.7</ele>
<time>2003-07-20T10:51:15Z</time>
<speed>1.1</speed>
</trkpt>
<trkpt lat="47.604757" lon="8.412724">
<ele>636.2</ele>
<time>2003-07-20T10:51:20Z</time>
<speed>1.1</speed>
</trkpt>
<trkpt lat="47.604710" lon="8.412664">
<ele>635.5</ele>
<time>2003-07-20T10:51:25Z</time>
<speed>1.1</speed>
</trkpt>
<trkpt lat="47.604668" lon="8.412616">
<ele>635.7</ele>
<time>2003-07-20T10:51:30Z</time>
<speed>1.4</speed>
</trkpt>
<trkpt lat="47.604621" lon="8.412569">
<ele>635.1</ele>
<time>2003-07-20T10:51:35Z</time>
<speed>1.1</speed>
</trkpt>
<trkpt lat="47.604573" lon="8.412520">
<ele>635.9</ele>
<time>2003-07-20T10:51:40Z</time>
<speed>1.1</speed>
</trkpt>
<trkpt lat="47.604540" lon="8.412448">
<ele>635.2</ele>
<time>2003-07-20T10:51:45Z</time>
<speed>1.1</speed>
</trkpt>
<trkpt lat="47.604520" lon="8.412366">
<ele>634.5</ele>
<time>2003-07-20T10:51:50Z</time>
<speed>1.1</speed>
</trkpt>
<trkpt lat="47.604539" lon="8.412289">
<ele>634.0</ele>
<time>2003-07-20T10:51:55Z</time>
<speed>1.1</speed>
</trkpt>
<trkpt lat="47.604555" lon="8.412236">
<ele>635.0</ele>
<time>2003-07-20T10:52:00Z</time>
<speed>0.6</speed>
</trkpt>
<trkpt lat="47.604573" lon="8.412159">
<ele>634.5</ele>
<time>2003-07-20T10:52:05Z</time>
<speed>1.1</speed>
</trkpt>
<trkpt lat="47.604572" lon="8.412078">
<ele>634.6</ele>
<time>2003-07-20T10:52:10Z</time>
<speed>1.1</speed>
</trkpt>
<trkpt lat="47.604573" lon="8.411984">
<ele>634.6</ele>
<time>2003-07-20T10:52:15Z</time>
<speed>1.1</speed>
</trkpt>
<trkpt lat="47.604565" lon="8.411901">
<ele>635.3</ele>
<time>2003-07-20T10:52:20Z</time>
<speed>0.6</speed>
</trkpt>
<trkpt lat="47.604572" lon="8.411903">
<ele>634.6</ele>
<time>2003-07-20T10:52:25Z</time>
<speed>0.3</speed>
</trkpt>
<trkpt lat="47.604583" lon="8.411933">
<ele>633.5</ele>
<time>2003-07-20T10:52:30Z</time>
<speed>0.0</speed>
</trkpt>
<trkpt lat="47.604583" lon="8.411933">
<ele>633.5</ele>
<time>2003-07-20T10:52:35Z</time>
<speed>0.0</speed>
</trkpt>
<trkpt lat="47.604577" lon="8.411931">
<ele>634.2</ele>
<time>2003-07-20T10:52:40Z</time>
<speed>0.3</speed>
</trkpt>
<trkpt lat="47.604577" lon="8.411931">
<ele>634.2</ele>
<time>2003-07-20T10:52:45Z</time>
<speed>0.0</speed>
</trkpt>
<trkpt lat="47.604577" lon="8.411931">
<ele>634.2</ele>
<time>2003-07-20T10:52:50Z</time>
<speed>0.0</speed>
</trkpt>
<trkpt lat="47.604577" lon="8.411931">
<ele>634.2</ele>
<time>2003-07-20T10:52:55Z</time>
<speed>0.6</speed>
</trkpt>
<trkpt lat="47.604575" lon="8.411864">
<ele>634.3</ele>
<time>2003-07-20T10:53:00Z</time>
<speed>1.1</speed>
</trkpt>
<trkpt lat="47.604574" lon="8.411783">
<ele>634.4</ele>
<time>2003-07-20T10:53:05Z</time>
<speed>0.8</speed>
</trkpt>
<trkpt lat="47.604573" lon="8.411702">
<ele>634.5</ele>
<time>2003-07-20T10:53:10Z</time>
<speed>0.8</speed>
</trkpt>
<trkpt lat="47.604567" lon="8.411621">
<ele>633.8</ele>
<time>2003-07-20T10:53:15Z</time>
<speed>1.1</speed>
</trkpt>
<trkpt lat="47.604538" lon="8.411576">
<ele>634.1</ele>
<time>2003-07-20T10:53:20Z</time>
<speed>0.6</speed>
</trkpt>
<trkpt lat="47.604493" lon="8.411568">
<ele>634.5</ele>
<time>2003-07-20T10:53:25Z</time>
<speed>0.8</speed>
</trkpt>
<trkpt lat="47.604444" lon="8.411547">
<ele>634.1</ele>
<time>2003-07-20T10:53:30Z</time>
<speed>0.8</speed>
</trkpt>
<trkpt lat="47.604393" lon="8.411524">
<ele>635.1</ele>
<time>2003-07-20T10:53:35Z</time>
<speed>0.8</speed>
</trkpt>
<trkpt lat="47.604350" lon="8.411488">
<ele>636.8</ele>
<time>2003-07-20T10:53:40Z</time>
<speed>0.8</speed>
</trkpt>
<trkpt lat="47.604308" lon="8.411454">
<ele>637.1</ele>
<time>2003-07-20T10:53:45Z</time>
<speed>0.6</speed>
</trkpt>
<trkpt lat="47.604259" lon="8.411418">
<ele>638.0</ele>
<time>2003-07-20T10:53:50Z</time>
<speed>0.8</speed>
</trkpt>
<trkpt lat="47.604218" lon="8.411358">
<ele>638.0</ele>
<time>2003-07-20T10:53:55Z</time>
<speed>1.4</speed>
</trkpt>
<trkpt lat="47.604165" lon="8.411295">
<ele>638.0</ele>
<time>2003-07-20T10:54:00Z</time>
<speed>0.8</speed>
</trkpt>
<trkpt lat="47.604123" lon="8.411248">
<ele>638.2</ele>
<time>2003-07-20T10:54:05Z</time>
<speed>0.0</speed>
</trkpt>
<trkpt lat="47.604107" lon="8.411205">
<ele>638.5</ele>
<time>2003-07-20T10:54:10Z</time>
<speed>1.1</speed>
</trkpt>
<trkpt lat="47.604049" lon="8.411114">
<ele>638.9</ele>
<time>2003-07-20T10:54:15Z</time>
<speed>1.1</speed>
</trkpt>
<trkpt lat="47.604011" lon="8.411027">
<ele>638.8</ele>
<time>2003-07-20T10:54:20Z</time>
<speed>1.1</speed>
</trkpt>
<trkpt lat="47.603952" lon="8.410950">
<ele>639.4</ele>
<time>2003-07-20T10:54:25Z</time>
<speed>1.4</speed>
</trkpt>
<trkpt lat="47.603907" lon="8.410863">
<ele>638.5</ele>
<time>2003-07-20T10:54:30Z</time>
<speed>1.1</speed>
</trkpt>
<trkpt lat="47.603862" lon="8.410775">
<ele>639.0</ele>
<time>2003-07-20T10:54:35Z</time>
<speed>1.4</speed>
</trkpt>
<trkpt lat="47.603841" lon="8.410703">
<ele>639.8</ele>
<time>2003-07-20T10:54:40Z</time>
<speed>0.8</speed>
</trkpt>
<trkpt lat="47.603833" lon="8.410633">
<ele>640.6</ele>
<time>2003-07-20T10:54:45Z</time>
<speed>0.8</speed>
</trkpt>
<trkpt lat="47.603831" lon="8.410564">
<ele>642.2</ele>
<time>2003-07-20T10:54:50Z</time>
<speed>0.6</speed>
</trkpt>
<trkpt lat="47.603810" lon="8.410492">
<ele>643.0</ele>
<time>2003-07-20T10:54:55Z</time>
<speed>1.1</speed>
</trkpt>
<trkpt lat="47.603787" lon="8.410432">
<ele>645.2</ele>
<time>2003-07-20T10:55:00Z</time>
<speed>0.8</speed>
</trkpt>
<trkpt lat="47.603777" lon="8.410388">
<ele>646.3</ele>
<time>2003-07-20T10:55:05Z</time>
<speed>0.6</speed>
</trkpt>
<trkpt lat="47.603768" lon="8.410332">
<ele>647.2</ele>
<time>2003-07-20T10:55:10Z</time>
<speed>0.6</speed>
</trkpt>
<trkpt lat="47.603758" lon="8.410275">
<ele>648.2</ele>
<time>2003-07-20T10:55:15Z</time>
<speed>0.8</speed>
</trkpt>
<trkpt lat="47.603750" lon="8.410206">
<ele>649.0</ele>
<time>2003-07-20T10:55:20Z</time>
<speed>0.6</speed>
</trkpt>
<trkpt lat="47.603742" lon="8.410138">
<ele>648.4</ele>
<time>2003-07-20T10:55:25Z</time>
<speed>0.6</speed>
</trkpt>
<trkpt lat="47.603742" lon="8.410057">
<ele>648.5</ele>
<time>2003-07-20T10:55:30Z</time>
<speed>0.6</speed>
</trkpt>
<trkpt lat="47.603722" lon="8.409974">
<ele>647.8</ele>
<time>2003-07-20T10:55:35Z</time>
<speed>0.8</speed>
</trkpt>
<trkpt lat="47.603700" lon="8.409916">
<ele>648.6</ele>
<time>2003-07-20T10:55:40Z</time>
<speed>0.6</speed>
</trkpt>
<trkpt lat="47.603693" lon="8.409848">
<ele>648.1</ele>
<time>2003-07-20T10:55:45Z</time>
<speed>0.3</speed>
</trkpt>
<trkpt lat="47.603673" lon="8.409763">
<ele>648.7</ele>
<time>2003-07-20T10:55:50Z</time>
<speed>0.8</speed>
</trkpt>
<trkpt lat="47.603645" lon="8.409690">
<ele>650.2</ele>
<time>2003-07-20T10:55:55Z</time>
<speed>0.6</speed>
</trkpt>
<trkpt lat="47.603617" lon="8.409631">
<ele>650.3</ele>
<time>2003-07-20T10:56:00Z</time>
<speed>0.3</speed>
</trkpt>
<trkpt lat="47.603603" lon="8.409562">
<ele>650.4</ele>
<time>2003-07-20T10:56:05Z</time>
<speed>0.6</speed>
</trkpt>
<trkpt lat="47.603552" lon="8.409473">
<ele>650.2</ele>
<time>2003-07-20T10:56:10Z</time>
<speed>0.3</speed>
</trkpt>
<trkpt lat="47.603541" lon="8.409430">
<ele>651.2</ele>
<time>2003-07-20T10:56:15Z</time>
<speed>0.6</speed>
</trkpt>
<trkpt lat="47.603532" lon="8.409373">
<ele>652.2</ele>
<time>2003-07-20T10:56:20Z</time>
<speed>0.6</speed>
</trkpt>
<trkpt lat="47.603518" lon="8.409304">
<ele>652.3</ele>
<time>2003-07-20T10:56:25Z</time>
<speed>0.6</speed>
</trkpt>
<trkpt lat="47.603496" lon="8.409245">
<ele>653.2</ele>
<time>2003-07-20T10:56:30Z</time>
<speed>0.6</speed>
</trkpt>
<trkpt lat="47.603468" lon="8.409187">
<ele>653.3</ele>
<time>2003-07-20T10:56:35Z</time>
<speed>0.3</speed>
</trkpt>
<trkpt lat="47.603427" lon="8.409124">
<ele>654.7</ele>
<time>2003-07-20T10:56:40Z</time>
<speed>0.3</speed>
</trkpt>
<trkpt lat="47.603372" lon="8.409088">
<ele>654.9</ele>
<time>2003-07-20T10:56:45Z</time>
<speed>0.3</speed>
</trkpt>
<trkpt lat="47.603335" lon="8.409054">
<ele>655.9</ele>
<time>2003-07-20T10:56:50Z</time>
<speed>0.3</speed>
</trkpt>
<trkpt lat="47.603280" lon="8.409018">
<ele>656.1</ele>
<time>2003-07-20T10:56:55Z</time>
<speed>0.3</speed>
</trkpt>
<trkpt lat="47.603250" lon="8.408986">
<ele>656.4</ele>
<time>2003-07-20T10:57:00Z</time>
<speed>0.3</speed>
</trkpt>
<trkpt lat="47.603214" lon="8.408952">
<ele>657.4</ele>
<time>2003-07-20T10:57:05Z</time>
<speed>0.3</speed>
</trkpt>
<trkpt lat="47.603172" lon="8.408905">
<ele>657.6</ele>
<time>2003-07-20T10:57:10Z</time>
<speed>0.6</speed>
</trkpt>
<trkpt lat="47.603143" lon="8.408859">
<ele>657.8</ele>
<time>2003-07-20T10:57:15Z</time>
<speed>0.0</speed>
</trkpt>
<trkpt lat="47.603114" lon="8.408814">
<ele>658.0</ele>
<time>2003-07-20T10:57:20Z</time>
<speed>0.6</speed>
</trkpt>
<trkpt lat="47.603092" lon="8.408754">
<ele>660.3</ele>
<time>2003-07-20T10:57:25Z</time>
<speed>0.6</speed>
</trkpt>
<trkpt lat="47.603077" lon="8.408697">
<ele>660.5</ele>
<time>2003-07-20T10:57:30Z</time>
<speed>0.6</speed>
</trkpt>
<trkpt lat="47.603062" lon="8.408627">
<ele>660.6</ele>
<time>2003-07-20T10:57:35Z</time>
<speed>0.3</speed>
</trkpt>
<trkpt lat="47.603039" lon="8.408582">
<ele>661.6</ele>
<time>2003-07-20T10:57:40Z</time>
<speed>0.3</speed>
</trkpt>
<trkpt lat="47.603024" lon="8.408526">
<ele>661.8</ele>
<time>2003-07-20T10:57:45Z</time>
<speed>0.6</speed>
</trkpt>
<trkpt lat="47.603008" lon="8.408482">
<ele>662.1</ele>
<time>2003-07-20T10:57:50Z</time>
<speed>0.6</speed>
</trkpt>
<trkpt lat="47.602998" lon="8.408426">
<ele>663.0</ele>
<time>2003-07-20T10:57:55Z</time>
<speed>0.6</speed>
</trkpt>
<trkpt lat="47.603002" lon="8.408371">
<ele>664.0</ele>
<time>2003-07-20T10:58:00Z</time>
<speed>0.6</speed>
</trkpt>
<trkpt lat="47.603000" lon="8.408302">
<ele>665.6</ele>
<time>2003-07-20T10:58:05Z</time>
<speed>0.6</speed>
</trkpt>
<trkpt lat="47.602990" lon="8.408245">
<ele>666.6</ele>
<time>2003-07-20T10:58:10Z</time>
<speed>0.6</speed>
</trkpt>
<trkpt lat="47.602968" lon="8.408187">
<ele>667.4</ele>
<time>2003-07-20T10:58:15Z</time>
<speed>0.6</speed>
</trkpt>
<trkpt lat="47.602960" lon="8.408117">
<ele>668.3</ele>
<time>2003-07-20T10:58:20Z</time>
<speed>0.8</speed>
</trkpt>
<trkpt lat="47.602968" lon="8.408012">
<ele>667.5</ele>
<time>2003-07-20T10:58:25Z</time>
<speed>0.3</speed>
</trkpt>
<trkpt lat="47.602973" lon="8.407931">
<ele>668.3</ele>
<time>2003-07-20T10:58:30Z</time>
<speed>0.8</speed>
</trkpt>
<trkpt lat="47.602998" lon="8.407854">
<ele>668.5</ele>
<time>2003-07-20T10:58:35Z</time>
<speed>0.6</speed>
</trkpt>
<trkpt lat="47.603002" lon="8.407786">
<ele>669.4</ele>
<time>2003-07-20T10:58:40Z</time>
<speed>0.6</speed>
</trkpt>
<trkpt lat="47.603012" lon="8.407732">
<ele>671.2</ele>
<time>2003-07-20T10:58:45Z</time>
<speed>0.6</speed>
</trkpt>
<trkpt lat="47.602996" lon="8.407673">
<ele>672.8</ele>
<time>2003-07-20T10:58:50Z</time>
<speed>0.8</speed>
</trkpt>
<trkpt lat="47.602967" lon="8.407613">
<ele>674.3</ele>
<time>2003-07-20T10:58:55Z</time>
<speed>0.6</speed>
</trkpt>
<trkpt lat="47.602965" lon="8.407543">
<ele>675.9</ele>
<time>2003-07-20T10:59:00Z</time>
<speed>0.6</speed>
</trkpt>
<trkpt lat="47.602942" lon="8.407498">
<ele>676.9</ele>
<time>2003-07-20T10:59:05Z</time>
<speed>0.6</speed>
</trkpt>
<trkpt lat="47.602921" lon="8.407426">
<ele>677.6</ele>
<time>2003-07-20T10:59:10Z</time>
<speed>0.8</speed>
</trkpt>
<trkpt lat="47.602894" lon="8.407355">
<ele>677.7</ele>
<time>2003-07-20T10:59:15Z</time>
<speed>0.6</speed>
</trkpt>
<trkpt lat="47.602873" lon="8.407283">
<ele>678.4</ele>
<time>2003-07-20T10:59:20Z</time>
<speed>0.3</speed>
</trkpt>
<trkpt lat="47.602865" lon="8.407213">
<ele>679.3</ele>
<time>2003-07-20T10:59:25Z</time>
<speed>0.8</speed>
</trkpt>
<trkpt lat="47.602850" lon="8.407142">
<ele>680.8</ele>
<time>2003-07-20T10:59:30Z</time>
<speed>0.6</speed>
</trkpt>
<trkpt lat="47.602848" lon="8.407072">
<ele>682.4</ele>
<time>2003-07-20T10:59:35Z</time>
<speed>0.6</speed>
</trkpt>
<trkpt lat="47.602839" lon="8.407016">
<ele>683.3</ele>
<time>2003-07-20T10:59:40Z</time>
<speed>0.6</speed>
</trkpt>
<trkpt lat="47.602786" lon="8.406970">
<ele>680.6</ele>
<time>2003-07-20T10:59:45Z</time>
<speed>0.0</speed>
</trkpt>
<trkpt lat="47.602787" lon="8.406957">
<ele>680.5</ele>
<time>2003-07-20T10:59:50Z</time>
<speed>0.0</speed>
</trkpt>
<trkpt lat="47.602781" lon="8.406957">
<ele>679.7</ele>
<time>2003-07-20T10:59:55Z</time>
<speed>0.0</speed>
</trkpt>
<trkpt lat="47.602781" lon="8.406957">
<ele>679.7</ele>
<time>2003-07-20T11:00:00Z</time>
<speed>0.0</speed>
</trkpt>
<trkpt lat="47.602780" lon="8.406970">
<ele>679.8</ele>
<time>2003-07-20T11:00:05Z</time>
<speed>0.0</speed>
</trkpt>
<trkpt lat="47.602767" lon="8.406970">
<ele>678.4</ele>
<time>2003-07-20T11:00:10Z</time>
<speed>0.0</speed>
</trkpt>
<trkpt lat="47.602762" lon="8.406957">
<ele>677.5</ele>
<time>2003-07-20T11:00:15Z</time>
<speed>0.0</speed>
</trkpt>
<trkpt lat="47.602750" lon="8.406955">
<ele>677.5</ele>
<time>2003-07-20T11:00:20Z</time>
<speed>0.3</speed>
</trkpt>
<trkpt lat="47.602737" lon="8.406951">
<ele>678.8</ele>
<time>2003-07-20T11:00:25Z</time>
<speed>0.0</speed>
</trkpt>
<trkpt lat="47.602736" lon="8.406964">
<ele>678.9</ele>
<time>2003-07-20T11:00:30Z</time>
<speed>0.0</speed>
</trkpt>
<trkpt lat="47.602730" lon="8.406951">
<ele>678.0</ele>
<time>2003-07-20T11:00:35Z</time>
<speed>0.0</speed>
</trkpt>
<trkpt lat="47.602739" lon="8.406927">
<ele>677.2</ele>
<time>2003-07-20T11:00:40Z</time>
<speed>0.6</speed>
</trkpt>
<trkpt lat="47.602751" lon="8.406848">
<ele>677.3</ele>
<time>2003-07-20T11:00:45Z</time>
<speed>0.6</speed>
</trkpt>
<trkpt lat="47.602732" lon="8.406750">
<ele>677.9</ele>
<time>2003-07-20T11:00:50Z</time>
<speed>0.6</speed>
</trkpt>
<trkpt lat="47.602738" lon="8.406656">
<ele>678.6</ele>
<time>2003-07-20T11:00:55Z</time>
<speed>0.8</speed>
</trkpt>
<trkpt lat="47.602719" lon="8.406558">
<ele>679.2</ele>
<time>2003-07-20T11:01:00Z</time>
<speed>0.6</speed>
</trkpt>
<trkpt lat="47.602691" lon="8.406500">
<ele>679.3</ele>
<time>2003-07-20T11:01:05Z</time>
<speed>0.3</speed>
</trkpt>
<trkpt lat="47.602675" lon="8.406441">
<ele>680.9</ele>
<time>2003-07-20T11:01:10Z</time>
<speed>0.6</speed>
</trkpt>
<trkpt lat="47.602627" lon="8.406407">
<ele>680.4</ele>
<time>2003-07-20T11:01:15Z</time>
<speed>0.3</speed>
</trkpt>
<trkpt lat="47.602591" lon="8.406360">
<ele>681.3</ele>
<time>2003-07-20T11:01:20Z</time>
<speed>0.6</speed>
</trkpt>
<trkpt lat="47.602548" lon="8.406324">
<ele>683.0</ele>
<time>2003-07-20T11:01:25Z</time>
<speed>0.3</speed>
</trkpt>
<trkpt lat="47.602485" lon="8.406312">
<ele>684.0</ele>
<time>2003-07-20T11:01:30Z</time>
<speed>0.6</speed>
</trkpt>
<trkpt lat="47.602455" lon="8.406280">
<ele>684.4</ele>
<time>2003-07-20T11:01:35Z</time>
<speed>0.3</speed>
</trkpt>
<trkpt lat="47.602419" lon="8.406248">
<ele>684.0</ele>
<time>2003-07-20T11:01:40Z</time>
<speed>0.6</speed>
</trkpt>
<trkpt lat="47.602394" lon="8.406214">
<ele>686.4</ele>
<time>2003-07-20T11:01:45Z</time>
<speed>0.3</speed>
</trkpt>
<trkpt lat="47.602378" lon="8.406171">
<ele>686.7</ele>
<time>2003-07-20T11:01:50Z</time>
<speed>0.3</speed>
</trkpt>
<trkpt lat="47.602369" lon="8.406114">
<ele>687.7</ele>
<time>2003-07-20T11:01:55Z</time>
<speed>0.8</speed>
</trkpt>
<trkpt lat="47.602363" lon="8.406114">
<ele>686.9</ele>
<time>2003-07-20T11:02:00Z</time>
<speed>0.0</speed>
</trkpt>
<trkpt lat="47.602370" lon="8.406101">
<ele>687.6</ele>
<time>2003-07-20T11:02:05Z</time>
<speed>0.8</speed>
</trkpt>
<trkpt lat="47.602374" lon="8.406033">
<ele>688.5</ele>
<time>2003-07-20T11:02:10Z</time>
<speed>0.3</speed>
</trkpt>
<trkpt lat="47.602366" lon="8.405964">
<ele>689.3</ele>
<time>2003-07-20T11:02:15Z</time>
<speed>0.8</speed>
</trkpt>
<trkpt lat="47.602352" lon="8.405894">
<ele>689.4</ele>
<time>2003-07-20T11:02:20Z</time>
<speed>0.6</speed>
</trkpt>
<trkpt lat="47.602338" lon="8.405809">
<ele>690.8</ele>
<time>2003-07-20T11:02:25Z</time>
<speed>0.3</speed>
</trkpt>
<trkpt lat="47.602329" lon="8.405739">
<ele>691.7</ele>
<time>2003-07-20T11:02:30Z</time>
<speed>0.8</speed>
</trkpt>
<trkpt lat="47.602317" lon="8.405643">
<ele>691.6</ele>
<time>2003-07-20T11:02:35Z</time>
<speed>0.8</speed>
</trkpt>
<trkpt lat="47.602297" lon="8.405574">
<ele>691.0</ele>
<time>2003-07-20T11:02:40Z</time>
<speed>0.8</speed>
</trkpt>
<trkpt lat="47.602270" lon="8.405487">
<ele>692.3</ele>
<time>2003-07-20T11:02:45Z</time>
<speed>0.8</speed>
</trkpt>
<trkpt lat="47.602256" lon="8.405417">
<ele>692.4</ele>
<time>2003-07-20T11:02:50Z</time>
<speed>0.3</speed>
</trkpt>
<trkpt lat="47.602248" lon="8.405350">
<ele>691.8</ele>
<time>2003-07-20T11:02:55Z</time>
<speed>0.3</speed>
</trkpt>
<trkpt lat="47.602252" lon="8.405297">
<ele>691.4</ele>
<time>2003-07-20T11:03:00Z</time>
<speed>0.3</speed>
</trkpt>
<trkpt lat="47.602243" lon="8.405243">
<ele>691.0</ele>
<time>2003-07-20T11:03:05Z</time>
<speed>0.3</speed>
</trkpt>
<trkpt lat="47.602233" lon="8.405201">
<ele>690.6</ele>
<time>2003-07-20T11:03:10Z</time>
<speed>0.3</speed>
</trkpt>
<trkpt lat="47.602225" lon="8.405132">
<ele>691.4</ele>
<time>2003-07-20T11:03:15Z</time>
<speed>0.6</speed>
</trkpt>
<trkpt lat="47.602231" lon="8.405053">
<ele>690.9</ele>
<time>2003-07-20T11:03:20Z</time>
<speed>0.6</speed>
</trkpt>
<trkpt lat="47.602210" lon="8.404981">
<ele>691.6</ele>
<time>2003-07-20T11:03:25Z</time>
<speed>0.6</speed>
</trkpt>
<trkpt lat="47.602208" lon="8.404913">
<ele>691.8</ele>
<time>2003-07-20T11:03:30Z</time>
<speed>0.8</speed>
</trkpt>
<trkpt lat="47.602202" lon="8.404819">
<ele>691.0</ele>
<time>2003-07-20T11:03:35Z</time>
<speed>0.8</speed>
</trkpt>
<trkpt lat="47.602183" lon="8.404721">
<ele>691.6</ele>
<time>2003-07-20T11:03:40Z</time>
<speed>0.6</speed>
</trkpt>
<trkpt lat="47.602176" lon="8.404639">
<ele>692.4</ele>
<time>2003-07-20T11:03:45Z</time>
<speed>0.6</speed>
</trkpt>
<trkpt lat="47.602156" lon="8.404554">
<ele>693.0</ele>
<time>2003-07-20T11:03:50Z</time>
<speed>0.8</speed>
</trkpt>
<trkpt lat="47.602150" lon="8.404460">
<ele>692.3</ele>
<time>2003-07-20T11:03:55Z</time>
<speed>0.8</speed>
</trkpt>
<trkpt lat="47.602144" lon="8.404379">
<ele>691.6</ele>
<time>2003-07-20T11:04:00Z</time>
<speed>0.8</speed>
</trkpt>
<trkpt lat="47.602135" lon="8.404309">
<ele>692.4</ele>
<time>2003-07-20T11:04:05Z</time>
<speed>0.8</speed>
</trkpt>
<trkpt lat="47.602134" lon="8.404228">
<ele>692.5</ele>
<time>2003-07-20T11:04:10Z</time>
<speed>0.8</speed>
</trkpt>
<trkpt lat="47.602122" lon="8.404132">
<ele>692.4</ele>
<time>2003-07-20T11:04:15Z</time>
<speed>0.8</speed>
</trkpt>
<trkpt lat="47.602107" lon="8.404076">
<ele>692.6</ele>
<time>2003-07-20T11:04:20Z</time>
<speed>0.6</speed>
</trkpt>
<trkpt lat="47.602074" lon="8.404006">
<ele>690.5</ele>
<time>2003-07-20T11:04:25Z</time>
<speed>0.6</speed>
</trkpt>
<trkpt lat="47.602066" lon="8.403937">
<ele>691.4</ele>
<time>2003-07-20T11:04:30Z</time>
<speed>0.6</speed>
</trkpt>
<trkpt lat="47.602040" lon="8.403852">
<ele>691.3</ele>
<time>2003-07-20T11:04:35Z</time>
<speed>0.6</speed>
</trkpt>
<trkpt lat="47.602027" lon="8.403769">
<ele>691.3</ele>
<time>2003-07-20T11:04:40Z</time>
<speed>0.8</speed>
</trkpt>
<trkpt lat="47.602012" lon="8.403699">
<ele>691.4</ele>
<time>2003-07-20T11:04:45Z</time>
<speed>0.6</speed>
</trkpt>
<trkpt lat="47.602010" lon="8.403632">
<ele>691.6</ele>
<time>2003-07-20T11:04:50Z</time>
<speed>0.8</speed>
</trkpt>
<trkpt lat="47.601991" lon="8.403547">
<ele>692.2</ele>
<time>2003-07-20T11:04:55Z</time>
<speed>0.8</speed>
</trkpt>
<trkpt lat="47.601991" lon="8.403453">
<ele>692.2</ele>
<time>2003-07-20T11:05:00Z</time>
<speed>0.6</speed>
</trkpt>
<trkpt lat="47.601965" lon="8.403368">
<ele>692.1</ele>
<time>2003-07-20T11:05:05Z</time>
<speed>0.6</speed>
</trkpt>
<trkpt lat="47.601971" lon="8.403274">
<ele>692.9</ele>
<time>2003-07-20T11:05:10Z</time>
<speed>0.8</speed>
</trkpt>
<trkpt lat="47.601958" lon="8.403176">
<ele>694.2</ele>
<time>2003-07-20T11:05:15Z</time>
<speed>0.8</speed>
</trkpt>
<trkpt lat="47.601944" lon="8.403107">
<ele>694.3</ele>
<time>2003-07-20T11:05:20Z</time>
<speed>0.3</speed>
</trkpt>
<trkpt lat="47.601935" lon="8.403037">
<ele>695.1</ele>
<time>2003-07-20T11:05:25Z</time>
<speed>0.3</speed>
</trkpt>
<trkpt lat="47.601934" lon="8.402954">
<ele>696.6</ele>
<time>2003-07-20T11:05:30Z</time>
<speed>0.6</speed>
</trkpt>
<trkpt lat="47.601914" lon="8.402869">
<ele>697.3</ele>
<time>2003-07-20T11:05:35Z</time>
<speed>0.6</speed>
</trkpt>
<trkpt lat="47.601925" lon="8.402804">
<ele>697.5</ele>
<time>2003-07-20T11:05:40Z</time>
<speed>0.3</speed>
</trkpt>
<trkpt lat="47.601916" lon="8.402749">
<ele>697.1</ele>
<time>2003-07-20T11:05:45Z</time>
<speed>0.6</speed>
</trkpt>
<trkpt lat="47.601897" lon="8.402666">
<ele>696.3</ele>
<time>2003-07-20T11:05:50Z</time>
<speed>0.6</speed>
</trkpt>
<trkpt lat="47.601889" lon="8.402598">
<ele>695.8</ele>
<time>2003-07-20T11:05:55Z</time>
<speed>0.6</speed>
</trkpt>
<trkpt lat="47.601870" lon="8.402516">
<ele>695.0</ele>
<time>2003-07-20T11:06:00Z</time>
<speed>0.6</speed>
</trkpt>
<trkpt lat="47.601868" lon="8.402448">
<ele>695.2</ele>
<time>2003-07-20T11:06:05Z</time>
<speed>0.3</speed>
</trkpt>
<trkpt lat="47.601861" lon="8.402367">
<ele>694.5</ele>
<time>2003-07-20T11:06:10Z</time>
<speed>0.6</speed>
</trkpt>
<trkpt lat="47.601848" lon="8.402286">
<ele>693.1</ele>
<time>2003-07-20T11:06:15Z</time>
<speed>0.6</speed>
</trkpt>
<trkpt lat="47.601843" lon="8.402177">
<ele>693.7</ele>
<time>2003-07-20T11:06:20Z</time>
<speed>1.1</speed>
</trkpt>
<trkpt lat="47.601800" lon="8.402062">
<ele>694.0</ele>
<time>2003-07-20T11:06:25Z</time>
<speed>1.1</speed>
</trkpt>
<trkpt lat="47.601774" lon="8.401977">
<ele>693.9</ele>
<time>2003-07-20T11:06:30Z</time>
<speed>0.6</speed>
</trkpt>
<trkpt lat="47.601746" lon="8.401919">
<ele>694.1</ele>
<time>2003-07-20T11:06:35Z</time>
<speed>0.0</speed>
</trkpt>
<trkpt lat="47.601716" lon="8.401887">
<ele>694.4</ele>
<time>2003-07-20T11:06:40Z</time>
<speed>0.0</speed>
</trkpt>
<trkpt lat="47.601722" lon="8.401889">
<ele>693.7</ele>
<time>2003-07-20T11:06:45Z</time>
<speed>0.0</speed>
</trkpt>
<trkpt lat="47.601746" lon="8.401827">
<ele>692.6</ele>
<time>2003-07-20T11:06:50Z</time>
<speed>0.6</speed>
</trkpt>
<trkpt lat="47.601739" lon="8.401759">
<ele>692.1</ele>
<time>2003-07-20T11:06:55Z</time>
<speed>0.6</speed>
</trkpt>
<trkpt lat="47.601757" lon="8.401682">
<ele>691.6</ele>
<time>2003-07-20T11:07:00Z</time>
<speed>0.8</speed>
</trkpt>
<trkpt lat="47.601769" lon="8.401603">
<ele>691.7</ele>
<time>2003-07-20T11:07:05Z</time>
<speed>0.8</speed>
</trkpt>
<trkpt lat="47.601775" lon="8.401524">
<ele>691.1</ele>
<time>2003-07-20T11:07:10Z</time>
<speed>0.8</speed>
</trkpt>
<trkpt lat="47.601756" lon="8.401426">
<ele>691.7</ele>
<time>2003-07-20T11:07:15Z</time>
<speed>0.6</speed>
</trkpt>
<trkpt lat="47.601766" lon="8.401374">
<ele>692.0</ele>
<time>2003-07-20T11:07:20Z</time>
<speed>0.3</speed>
</trkpt>
<trkpt lat="47.601772" lon="8.401297">
<ele>690.0</ele>
<time>2003-07-20T11:07:25Z</time>
<speed>0.3</speed>
</trkpt>
<trkpt lat="47.601797" lon="8.401220">
<ele>690.3</ele>
<time>2003-07-20T11:07:30Z</time>
<speed>0.6</speed>
</trkpt>
<trkpt lat="47.601789" lon="8.401137">
<ele>691.0</ele>
<time>2003-07-20T11:07:35Z</time>
<speed>0.3</speed>
</trkpt>
<trkpt lat="47.601768" lon="8.401065">
<ele>691.8</ele>
<time>2003-07-20T11:07:40Z</time>
<speed>0.8</speed>
</trkpt>
<trkpt lat="47.601691" lon="8.400926">
<ele>686.1</ele>
<time>2003-07-20T11:07:45Z</time>
<speed>1.1</speed>
</trkpt>
<trkpt lat="47.601685" lon="8.400830">
<ele>686.7</ele>
<time>2003-07-20T11:07:50Z</time>
<speed>0.8</speed>
</trkpt>
<trkpt lat="47.601684" lon="8.400749">
<ele>686.8</ele>
<time>2003-07-20T11:07:55Z</time>
<speed>0.8</speed>
</trkpt>
<trkpt lat="47.601676" lon="8.400682">
<ele>686.2</ele>
<time>2003-07-20T11:08:00Z</time>
<speed>0.8</speed>
</trkpt>
<trkpt lat="47.601663" lon="8.400599">
<ele>686.2</ele>
<time>2003-07-20T11:08:05Z</time>
<speed>0.6</speed>
</trkpt>
<trkpt lat="47.601655" lon="8.400531">
<ele>685.7</ele>
<time>2003-07-20T11:08:10Z</time>
<speed>0.3</speed>
</trkpt>
<trkpt lat="47.601654" lon="8.400450">
<ele>685.7</ele>
<time>2003-07-20T11:08:15Z</time>
<speed>0.8</speed>
</trkpt>
<trkpt lat="47.601661" lon="8.400358">
<ele>685.1</ele>
<time>2003-07-20T11:08:20Z</time>
<speed>0.8</speed>
</trkpt>
<trkpt lat="47.601673" lon="8.400277">
<ele>686.6</ele>
<time>2003-07-20T11:08:25Z</time>
<speed>1.1</speed>
</trkpt>
<trkpt lat="47.601692" lon="8.400187">
<ele>686.0</ele>
<time>2003-07-20T11:08:30Z</time>
<speed>1.1</speed>
</trkpt>
<trkpt lat="47.601686" lon="8.400091">
<ele>686.6</ele>
<time>2003-07-20T11:08:35Z</time>
<speed>0.8</speed>
</trkpt>
<trkpt lat="47.601670" lon="8.400035">
<ele>686.8</ele>
<time>2003-07-20T11:08:40Z</time>
<speed>0.6</speed>
</trkpt>
<trkpt lat="47.601676" lon="8.399954">
<ele>687.6</ele>
<time>2003-07-20T11:08:45Z</time>
<speed>0.6</speed>
</trkpt>
<trkpt lat="47.601655" lon="8.399882">
<ele>688.4</ele>
<time>2003-07-20T11:08:50Z</time>
<speed>0.6</speed>
</trkpt>
<trkpt lat="47.601646" lon="8.399812">
<ele>689.3</ele>
<time>2003-07-20T11:08:55Z</time>
<speed>0.6</speed>
</trkpt>
<trkpt lat="47.601644" lon="8.399743">
<ele>690.8</ele>
<time>2003-07-20T11:09:00Z</time>
<speed>0.6</speed>
</trkpt>
<trkpt lat="47.601675" lon="8.399668">
<ele>690.4</ele>
<time>2003-07-20T11:09:05Z</time>
<speed>0.6</speed>
</trkpt>
<trkpt lat="47.601666" lon="8.399611">
<ele>691.3</ele>
<time>2003-07-20T11:09:10Z</time>
<speed>0.6</speed>
</trkpt>
<trkpt lat="47.601670" lon="8.399544">
<ele>692.2</ele>
<time>2003-07-20T11:09:15Z</time>
<speed>0.3</speed>
</trkpt>
<trkpt lat="47.601654" lon="8.399500">
<ele>692.5</ele>
<time>2003-07-20T11:09:20Z</time>
<speed>0.6</speed>
</trkpt>
<trkpt lat="47.601650" lon="8.399459">
<ele>692.9</ele>
<time>2003-07-20T11:09:25Z</time>
<speed>0.3</speed>
</trkpt>
<trkpt lat="47.601647" lon="8.399417">
<ele>693.3</ele>
<time>2003-07-20T11:09:30Z</time>
<speed>0.6</speed>
</trkpt>
<trkpt lat="47.601640" lon="8.399337">
<ele>692.6</ele>
<time>2003-07-20T11:09:35Z</time>
<speed>0.6</speed>
</trkpt>
<trkpt lat="47.601622" lon="8.399243">
<ele>690.4</ele>
<time>2003-07-20T11:09:40Z</time>
<speed>0.6</speed>
</trkpt>
<trkpt lat="47.601621" lon="8.399162">
<ele>690.5</ele>
<time>2003-07-20T11:09:45Z</time>
<speed>0.6</speed>
</trkpt>
<trkpt lat="47.601632" lon="8.399096">
<ele>690.7</ele>
<time>2003-07-20T11:09:50Z</time>
<speed>0.8</speed>
</trkpt>
<trkpt lat="47.601642" lon="8.399043">
<ele>691.1</ele>
<time>2003-07-20T11:09:55Z</time>
<speed>0.6</speed>
</trkpt>
<trkpt lat="47.601640" lon="8.398976">
<ele>691.2</ele>
<time>2003-07-20T11:10:00Z</time>
<speed>0.6</speed>
</trkpt>
<trkpt lat="47.601653" lon="8.398883">
<ele>691.3</ele>
<time>2003-07-20T11:10:05Z</time>
<speed>0.8</speed>
</trkpt>
<trkpt lat="47.601659" lon="8.398789">
<ele>692.0</ele>
<time>2003-07-20T11:10:10Z</time>
<speed>0.8</speed>
</trkpt>
<trkpt lat="47.601683" lon="8.398726">
<ele>692.3</ele>
<time>2003-07-20T11:10:15Z</time>
<speed>0.8</speed>
</trkpt>
<trkpt lat="47.601713" lon="8.398662">
<ele>693.4</ele>
<time>2003-07-20T11:10:20Z</time>
<speed>0.6</speed>
</trkpt>
<trkpt lat="47.601737" lon="8.398585">
<ele>693.6</ele>
<time>2003-07-20T11:10:25Z</time>
<speed>0.8</speed>
</trkpt>
<trkpt lat="47.601754" lon="8.398519">
<ele>694.6</ele>
<time>2003-07-20T11:10:30Z</time>
<speed>0.6</speed>
</trkpt>
<trkpt lat="47.601747" lon="8.398438">
<ele>693.9</ele>
<time>2003-07-20T11:10:35Z</time>
<speed>0.8</speed>
</trkpt>
<trkpt lat="47.601759" lon="8.398359">
<ele>694.1</ele>
<time>2003-07-20T11:10:40Z</time>
<speed>0.6</speed>
</trkpt>
<trkpt lat="47.601757" lon="8.398305">
<ele>694.3</ele>
<time>2003-07-20T11:10:45Z</time>
<speed>0.6</speed>
</trkpt>
<trkpt lat="47.601767" lon="8.398239">
<ele>694.6</ele>
<time>2003-07-20T11:10:50Z</time>
<speed>0.8</speed>
</trkpt>
<trkpt lat="47.601772" lon="8.398171">
<ele>695.5</ele>
<time>2003-07-20T11:10:55Z</time>
<speed>0.6</speed>
</trkpt>
<trkpt lat="47.601770" lon="8.398103">
<ele>695.7</ele>
<time>2003-07-20T11:11:00Z</time>
<speed>0.6</speed>
</trkpt>
<trkpt lat="47.601768" lon="8.398036">
<ele>695.8</ele>
<time>2003-07-20T11:11:05Z</time>
<speed>0.8</speed>
</trkpt>
<trkpt lat="47.601774" lon="8.397955">
<ele>696.7</ele>
<time>2003-07-20T11:11:10Z</time>
<speed>0.6</speed>
</trkpt>
<trkpt lat="47.601772" lon="8.397887">
<ele>696.8</ele>
<time>2003-07-20T11:11:15Z</time>
<speed>0.6</speed>
</trkpt>
<trkpt lat="47.601785" lon="8.397795">
<ele>696.9</ele>
<time>2003-07-20T11:11:20Z</time>
<speed>0.8</speed>
</trkpt>
<trkpt lat="47.601777" lon="8.397727">
<ele>696.3</ele>
<time>2003-07-20T11:11:25Z</time>
<speed>0.6</speed>
</trkpt>
<trkpt lat="47.601753" lon="8.397695">
<ele>697.4</ele>
<time>2003-07-20T11:11:30Z</time>
<speed>0.6</speed>
</trkpt>
<trkpt lat="47.601746" lon="8.397612">
<ele>698.1</ele>
<time>2003-07-20T11:11:35Z</time>
<speed>0.3</speed>
</trkpt>
<trkpt lat="47.601738" lon="8.397543">
<ele>699.0</ele>
<time>2003-07-20T11:11:40Z</time>
<speed>0.3</speed>
</trkpt>
<trkpt lat="47.601698" lon="8.397471">
<ele>697.5</ele>
<time>2003-07-20T11:11:45Z</time>
<speed>0.0</speed>
</trkpt>
<trkpt lat="47.601664" lon="8.397428">
<ele>695.6</ele>
<time>2003-07-20T11:11:50Z</time>
<speed>0.3</speed>
</trkpt>
<trkpt lat="47.601641" lon="8.397383">
<ele>696.6</ele>
<time>2003-07-20T11:11:55Z</time>
<speed>0.6</speed>
</trkpt>
<trkpt lat="47.601639" lon="8.397315">
<ele>696.7</ele>
<time>2003-07-20T11:12:00Z</time>
<speed>0.3</speed>
</trkpt>
<trkpt lat="47.601637" lon="8.397260">
<ele>697.0</ele>
<time>2003-07-20T11:12:05Z</time>
<speed>0.3</speed>
</trkpt>
<trkpt lat="47.601639" lon="8.397219">
<ele>698.1</ele>
<time>2003-07-20T11:12:10Z</time>
<speed>0.3</speed>
</trkpt>
<trkpt lat="47.601629" lon="8.397177">
<ele>697.8</ele>
<time>2003-07-20T11:12:15Z</time>
<speed>0.3</speed>
</trkpt>
<trkpt lat="47.601600" lon="8.397132">
<ele>698.0</ele>
<time>2003-07-20T11:12:20Z</time>
<speed>0.3</speed>
</trkpt>
<trkpt lat="47.601598" lon="8.397078">
<ele>698.3</ele>
<time>2003-07-20T11:12:25Z</time>
<speed>0.3</speed>
</trkpt>
<trkpt lat="47.601596" lon="8.397025">
<ele>697.1</ele>
<time>2003-07-20T11:12:30Z</time>
<speed>0.3</speed>
</trkpt>
<trkpt lat="47.601606" lon="8.396974">
<ele>696.1</ele>
<time>2003-07-20T11:12:35Z</time>
<speed>0.3</speed>
</trkpt>
<trkpt lat="47.601615" lon="8.396937">
<ele>695.1</ele>
<time>2003-07-20T11:12:40Z</time>
<speed>0.3</speed>
</trkpt>
<trkpt lat="47.601614" lon="8.396869">
<ele>695.3</ele>
<time>2003-07-20T11:12:45Z</time>
<speed>0.6</speed>
</trkpt>
<trkpt lat="47.601637" lon="8.396805">
<ele>695.6</ele>
<time>2003-07-20T11:12:50Z</time>
<speed>0.8</speed>
</trkpt>
<trkpt lat="47.601642" lon="8.396740">
<ele>695.1</ele>
<time>2003-07-20T11:12:55Z</time>
<speed>0.6</speed>
</trkpt>
<trkpt lat="47.601628" lon="8.396670">
<ele>695.2</ele>
<time>2003-07-20T11:13:00Z</time>
<speed>0.3</speed>
</trkpt>
<trkpt lat="47.601632" lon="8.396617">
<ele>694.8</ele>
<time>2003-07-20T11:13:05Z</time>
<speed>0.6</speed>
</trkpt>
<trkpt lat="47.601630" lon="8.396550">
<ele>695.0</ele>
<time>2003-07-20T11:13:10Z</time>
<speed>0.6</speed>
</trkpt>
<trkpt lat="47.601628" lon="8.396482">
<ele>695.2</ele>
<time>2003-07-20T11:13:15Z</time>
<speed>0.6</speed>
</trkpt>
<trkpt lat="47.601628" lon="8.396388">
<ele>695.1</ele>
<time>2003-07-20T11:13:20Z</time>
<speed>0.8</speed>
</trkpt>
<trkpt lat="47.601640" lon="8.396309">
<ele>695.3</ele>
<time>2003-07-20T11:13:25Z</time>
<speed>0.6</speed>
</trkpt>
<trkpt lat="47.601652" lon="8.396230">
<ele>695.4</ele>
<time>2003-07-20T11:13:30Z</time>
<speed>0.6</speed>
</trkpt>
<trkpt lat="47.601659" lon="8.396136">
<ele>696.2</ele>
<time>2003-07-20T11:13:35Z</time>
<speed>0.0</speed>
</trkpt>
<trkpt lat="47.601651" lon="8.396053">
<ele>696.9</ele>
<time>2003-07-20T11:13:40Z</time>
<speed>0.6</speed>
</trkpt>
<trkpt lat="47.601649" lon="8.395985">
<ele>697.1</ele>
<time>2003-07-20T11:13:45Z</time>
<speed>0.3</speed>
</trkpt>
<trkpt lat="47.601667" lon="8.395922">
<ele>696.7</ele>
<time>2003-07-20T11:13:50Z</time>
<speed>0.3</speed>
</trkpt>
<trkpt lat="47.601661" lon="8.395843">
<ele>694.6</ele>
<time>2003-07-20T11:13:55Z</time>
<speed>0.6</speed>
</trkpt>
<trkpt lat="47.601681" lon="8.395754">
<ele>692.6</ele>
<time>2003-07-20T11:14:00Z</time>
<speed>0.6</speed>
</trkpt>
<trkpt lat="47.601678" lon="8.395700">
<ele>692.8</ele>
<time>2003-07-20T11:14:05Z</time>
<speed>0.3</speed>
</trkpt>
<trkpt lat="47.601688" lon="8.395649">
<ele>691.8</ele>
<time>2003-07-20T11:14:10Z</time>
<speed>0.6</speed>
</trkpt>
<trkpt lat="47.601706" lon="8.395585">
<ele>691.4</ele>
<time>2003-07-20T11:14:15Z</time>
<speed>0.6</speed>
</trkpt>
<trkpt lat="47.601743" lon="8.395512">
<ele>690.2</ele>
<time>2003-07-20T11:14:20Z</time>
<speed>0.6</speed>
</trkpt>
<trkpt lat="47.601776" lon="8.395424">
<ele>689.7</ele>
<time>2003-07-20T11:14:25Z</time>
<speed>0.6</speed>
</trkpt>
<trkpt lat="47.601794" lon="8.395347">
<ele>689.2</ele>
<time>2003-07-20T11:14:30Z</time>
<speed>0.6</speed>
</trkpt>
<trkpt lat="47.601793" lon="8.395283">
<ele>686.5</ele>
<time>2003-07-20T11:14:35Z</time>
<speed>0.6</speed>
</trkpt>
<trkpt lat="47.601798" lon="8.395218">
<ele>686.0</ele>
<time>2003-07-20T11:14:40Z</time>
<speed>0.6</speed>
</trkpt>
<trkpt lat="47.601830" lon="8.395129">
<ele>685.5</ele>
<time>2003-07-20T11:14:45Z</time>
<speed>0.8</speed>
</trkpt>
<trkpt lat="47.601829" lon="8.395064">
<ele>684.3</ele>
<time>2003-07-20T11:14:50Z</time>
<speed>0.6</speed>
</trkpt>
<trkpt lat="47.601814" lon="8.395009">
<ele>683.1</ele>
<time>2003-07-20T11:14:55Z</time>
<speed>0.6</speed>
</trkpt>
<trkpt lat="47.601799" lon="8.394954">
<ele>681.9</ele>
<time>2003-07-20T11:15:00Z</time>
<speed>0.6</speed>
</trkpt>
<trkpt lat="47.601806" lon="8.394862">
<ele>681.2</ele>
<time>2003-07-20T11:15:05Z</time>
<speed>0.3</speed>
</trkpt>
<trkpt lat="47.601847" lon="8.394831">
<ele>679.7</ele>
<time>2003-07-20T11:15:10Z</time>
<speed>0.6</speed>
</trkpt>
<trkpt lat="47.601889" lon="8.394784">
<ele>679.5</ele>
<time>2003-07-20T11:15:15Z</time>
<speed>0.8</speed>
</trkpt>
<trkpt lat="47.601925" lon="8.394737">
<ele>678.6</ele>
<time>2003-07-20T11:15:20Z</time>
<speed>0.6</speed>
</trkpt>
<trkpt lat="47.601960" lon="8.394703">
<ele>677.8</ele>
<time>2003-07-20T11:15:25Z</time>
<speed>0.3</speed>
</trkpt>
<trkpt lat="47.602008" lon="8.394659">
<ele>676.9</ele>
<time>2003-07-20T11:15:30Z</time>
<speed>0.3</speed>
</trkpt>
<trkpt lat="47.602050" lon="8.394614">
<ele>675.3</ele>
<time>2003-07-20T11:15:35Z</time>
<speed>0.8</speed>
</trkpt>
<trkpt lat="47.602116" lon="8.394584">
<ele>675.4</ele>
<time>2003-07-20T11:15:40Z</time>
<speed>0.6</speed>
</trkpt>
<trkpt lat="47.602172" lon="8.394526">
<ele>675.2</ele>
<time>2003-07-20T11:15:45Z</time>
<speed>1.1</speed>
</trkpt>
<trkpt lat="47.602227" lon="8.394468">
<ele>675.0</ele>
<time>2003-07-20T11:15:50Z</time>
<speed>1.1</speed>
</trkpt>
<trkpt lat="47.602283" lon="8.394412">
<ele>673.4</ele>
<time>2003-07-20T11:15:55Z</time>
<speed>0.8</speed>
</trkpt>
<trkpt lat="47.602330" lon="8.394380">
<ele>672.6</ele>
<time>2003-07-20T11:16:00Z</time>
<speed>0.6</speed>
</trkpt>
<trkpt lat="47.602360" lon="8.394331">
<ele>672.4</ele>
<time>2003-07-20T11:16:05Z</time>
<speed>0.3</speed>
</trkpt>
<trkpt lat="47.602391" lon="8.394256">
<ele>671.9</ele>
<time>2003-07-20T11:16:10Z</time>
<speed>0.6</speed>
</trkpt>
<trkpt lat="47.602410" lon="8.394166">
<ele>671.3</ele>
<time>2003-07-20T11:16:15Z</time>
<speed>0.6</speed>
</trkpt>
<trkpt lat="47.602403" lon="8.394083">
<ele>672.1</ele>
<time>2003-07-20T11:16:20Z</time>
<speed>0.6</speed>
</trkpt>
<trkpt lat="47.602408" lon="8.394003">
<ele>672.9</ele>
<time>2003-07-20T11:16:25Z</time>
<speed>0.6</speed>
</trkpt>
<trkpt lat="47.602394" lon="8.393933">
<ele>673.0</ele>
<time>2003-07-20T11:16:30Z</time>
<speed>0.6</speed>
</trkpt>
<trkpt lat="47.602407" lon="8.393843">
<ele>671.6</ele>
<time>2003-07-20T11:16:35Z</time>
<speed>0.6</speed>
</trkpt>
<trkpt lat="47.602407" lon="8.393749">
<ele>671.6</ele>
<time>2003-07-20T11:16:40Z</time>
<speed>0.6</speed>
</trkpt>
<trkpt lat="47.602390" lon="8.393642">
<ele>669.3</ele>
<time>2003-07-20T11:16:45Z</time>
<speed>0.8</speed>
</trkpt>
<trkpt lat="47.602371" lon="8.393559">
<ele>668.5</ele>
<time>2003-07-20T11:16:50Z</time>
<speed>0.8</speed>
</trkpt>
<trkpt lat="47.602365" lon="8.393480">
<ele>666.5</ele>
<time>2003-07-20T11:16:55Z</time>
<speed>0.6</speed>
</trkpt>
<trkpt lat="47.602376" lon="8.393401">
<ele>666.6</ele>
<time>2003-07-20T11:17:00Z</time>
<speed>0.6</speed>
</trkpt>
<trkpt lat="47.602372" lon="8.393296">
<ele>664.3</ele>
<time>2003-07-20T11:17:05Z</time>
<speed>0.8</speed>
</trkpt>
<trkpt lat="47.602354" lon="8.393200">
<ele>663.5</ele>
<time>2003-07-20T11:17:10Z</time>
<speed>0.3</speed>
</trkpt>
<trkpt lat="47.602347" lon="8.393119">
<ele>662.8</ele>
<time>2003-07-20T11:17:15Z</time>
<speed>0.8</speed>
</trkpt>
<trkpt lat="47.602366" lon="8.393027">
<ele>663.6</ele>
<time>2003-07-20T11:17:20Z</time>
<speed>0.6</speed>
</trkpt>
<trkpt lat="47.602359" lon="8.392946">
<ele>663.0</ele>
<time>2003-07-20T11:17:25Z</time>
<speed>0.8</speed>
</trkpt>
<trkpt lat="47.602327" lon="8.392846">
<ele>663.5</ele>
<time>2003-07-20T11:17:30Z</time>
<speed>0.8</speed>
</trkpt>
<trkpt lat="47.602314" lon="8.392763">
<ele>663.5</ele>
<time>2003-07-20T11:17:35Z</time>
<speed>0.8</speed>
</trkpt>
<trkpt lat="47.602313" lon="8.392697">
<ele>662.2</ele>
<time>2003-07-20T11:17:40Z</time>
<speed>0.6</speed>
</trkpt>
<trkpt lat="47.602326" lon="8.392607">
<ele>660.9</ele>
<time>2003-07-20T11:17:45Z</time>
<speed>0.8</speed>
</trkpt>
<trkpt lat="47.602327" lon="8.392515">
<ele>659.5</ele>
<time>2003-07-20T11:17:50Z</time>
<speed>0.6</speed>
</trkpt>
<trkpt lat="47.602352" lon="8.392425">
<ele>659.6</ele>
<time>2003-07-20T11:17:55Z</time>
<speed>0.8</speed>
</trkpt>
<trkpt lat="47.602346" lon="8.392331">
<ele>658.8</ele>
<time>2003-07-20T11:18:00Z</time>
<speed>0.6</speed>
</trkpt>
<trkpt lat="47.602353" lon="8.392237">
<ele>659.5</ele>
<time>2003-07-20T11:18:05Z</time>
<speed>0.8</speed>
</trkpt>
<trkpt lat="47.602384" lon="8.392162">
<ele>659.1</ele>
<time>2003-07-20T11:18:10Z</time>
<speed>0.8</speed>
</trkpt>
<trkpt lat="47.602441" lon="8.392063">
<ele>660.0</ele>
<time>2003-07-20T11:18:15Z</time>
<speed>0.8</speed>
</trkpt>
<trkpt lat="47.602518" lon="8.391967">
<ele>660.3</ele>
<time>2003-07-20T11:18:20Z</time>
<speed>1.1</speed>
</trkpt>
<trkpt lat="47.602582" lon="8.391883">
<ele>660.6</ele>
<time>2003-07-20T11:18:25Z</time>
<speed>1.4</speed>
</trkpt>
<trkpt lat="47.602627" lon="8.391796">
<ele>660.2</ele>
<time>2003-07-20T11:18:30Z</time>
<speed>0.8</speed>
</trkpt>
<trkpt lat="47.602640" lon="8.391691">
<ele>660.1</ele>
<time>2003-07-20T11:18:35Z</time>
<speed>0.8</speed>
</trkpt>
<trkpt lat="47.602647" lon="8.391599">
<ele>659.4</ele>
<time>2003-07-20T11:18:40Z</time>
<speed>0.8</speed>
</trkpt>
<trkpt lat="47.602653" lon="8.391505">
<ele>660.1</ele>
<time>2003-07-20T11:18:45Z</time>
<speed>1.1</speed>
</trkpt>
<trkpt lat="47.602665" lon="8.391426">
<ele>660.3</ele>
<time>2003-07-20T11:18:50Z</time>
<speed>0.6</speed>
</trkpt>
<trkpt lat="47.602696" lon="8.391351">
<ele>659.8</ele>
<time>2003-07-20T11:18:55Z</time>
<speed>0.8</speed>
</trkpt>
<trkpt lat="47.602691" lon="8.391244">
<ele>659.0</ele>
<time>2003-07-20T11:19:00Z</time>
<speed>0.8</speed>
</trkpt>
<trkpt lat="47.602675" lon="8.391122">
<ele>658.0</ele>
<time>2003-07-20T11:19:05Z</time>
<speed>0.8</speed>
</trkpt>
<trkpt lat="47.602680" lon="8.391041">
<ele>658.8</ele>
<time>2003-07-20T11:19:10Z</time>
<speed>0.8</speed>
</trkpt>
<trkpt lat="47.602662" lon="8.390945">
<ele>657.9</ele>
<time>2003-07-20T11:19:15Z</time>
<speed>0.6</speed>
</trkpt>
<trkpt lat="47.602650" lon="8.390836">
<ele>657.8</ele>
<time>2003-07-20T11:19:20Z</time>
<speed>0.6</speed>
</trkpt>
<trkpt lat="47.602619" lon="8.390736">
<ele>658.3</ele>
<time>2003-07-20T11:19:25Z</time>
<speed>0.6</speed>
</trkpt>
<trkpt lat="47.602613" lon="8.390627">
<ele>658.8</ele>
<time>2003-07-20T11:19:30Z</time>
<speed>0.8</speed>
</trkpt>
<trkpt lat="47.602606" lon="8.390546">
<ele>658.1</ele>
<time>2003-07-20T11:19:35Z</time>
<speed>0.8</speed>
</trkpt>
<trkpt lat="47.602618" lon="8.390467">
<ele>658.3</ele>
<time>2003-07-20T11:19:40Z</time>
<speed>0.8</speed>
</trkpt>
<trkpt lat="47.602632" lon="8.390362">
<ele>658.2</ele>
<time>2003-07-20T11:19:45Z</time>
<speed>0.8</speed>
</trkpt>
<trkpt lat="47.602620" lon="8.390266">
<ele>658.1</ele>
<time>2003-07-20T11:19:50Z</time>
<speed>0.8</speed>
</trkpt>
<trkpt lat="47.602620" lon="8.390172">
<ele>658.1</ele>
<time>2003-07-20T11:19:55Z</time>
<speed>1.1</speed>
</trkpt>
<trkpt lat="47.602601" lon="8.390076">
<ele>657.3</ele>
<time>2003-07-20T11:20:00Z</time>
<speed>1.1</speed>
</trkpt>
<trkpt lat="47.602603" lon="8.389969">
<ele>657.2</ele>
<time>2003-07-20T11:20:05Z</time>
<speed>0.8</speed>
</trkpt>
<trkpt lat="47.602621" lon="8.389892">
<ele>656.7</ele>
<time>2003-07-20T11:20:10Z</time>
<speed>1.1</speed>
</trkpt>
<trkpt lat="47.602673" lon="8.389792">
<ele>656.8</ele>
<time>2003-07-20T11:20:15Z</time>
<speed>0.8</speed>
</trkpt>
<trkpt lat="47.602666" lon="8.389696">
<ele>657.5</ele>
<time>2003-07-20T11:20:20Z</time>
<speed>1.4</speed>
</trkpt>
<trkpt lat="47.602679" lon="8.389604">
<ele>657.5</ele>
<time>2003-07-20T11:20:25Z</time>
<speed>1.4</speed>
</trkpt>
<trkpt lat="47.602680" lon="8.389510">
<ele>657.5</ele>
<time>2003-07-20T11:20:30Z</time>
<speed>1.4</speed>
</trkpt>
<trkpt lat="47.602687" lon="8.389405">
<ele>656.7</ele>
<time>2003-07-20T11:20:35Z</time>
<speed>1.1</speed>
</trkpt>
<trkpt lat="47.602681" lon="8.389309">
<ele>657.4</ele>
<time>2003-07-20T11:20:40Z</time>
<speed>1.1</speed>
</trkpt>
<trkpt lat="47.602693" lon="8.389230">
<ele>657.5</ele>
<time>2003-07-20T11:20:45Z</time>
<speed>1.1</speed>
</trkpt>
<trkpt lat="47.602686" lon="8.389134">
<ele>658.1</ele>
<time>2003-07-20T11:20:50Z</time>
<speed>1.1</speed>
</trkpt>
<trkpt lat="47.602660" lon="8.389064">
<ele>656.8</ele>
<time>2003-07-20T11:20:55Z</time>
<speed>0.8</speed>
</trkpt>
<trkpt lat="47.602659" lon="8.388984">
<ele>656.8</ele>
<time>2003-07-20T11:21:00Z</time>
<speed>0.8</speed>
</trkpt>
<trkpt lat="47.602653" lon="8.388889">
<ele>656.1</ele>
<time>2003-07-20T11:21:05Z</time>
<speed>0.8</speed>
</trkpt>
<trkpt lat="47.602655" lon="8.388782">
<ele>656.0</ele>
<time>2003-07-20T11:21:10Z</time>
<speed>1.4</speed>
</trkpt>
<trkpt lat="47.602663" lon="8.388664">
<ele>655.1</ele>
<time>2003-07-20T11:21:15Z</time>
<speed>1.4</speed>
</trkpt>
<trkpt lat="47.602664" lon="8.388557">
<ele>655.0</ele>
<time>2003-07-20T11:21:20Z</time>
<speed>1.4</speed>
</trkpt>
<trkpt lat="47.602679" lon="8.388453">
<ele>653.5</ele>
<time>2003-07-20T11:21:25Z</time>
<speed>1.4</speed>
</trkpt>
<trkpt lat="47.602662" lon="8.388331">
<ele>652.5</ele>
<time>2003-07-20T11:21:31Z</time>
<speed>1.1</speed>
</trkpt>
<trkpt lat="47.602656" lon="8.388237">
<ele>651.7</ele>
<time>2003-07-20T11:21:36Z</time>
<speed>1.4</speed>
</trkpt>
<trkpt lat="47.602658" lon="8.388130">
<ele>651.6</ele>
<time>2003-07-20T11:21:41Z</time>
<speed>1.4</speed>
</trkpt>
<trkpt lat="47.602659" lon="8.388023">
<ele>651.5</ele>
<time>2003-07-20T11:21:46Z</time>
<speed>1.4</speed>
</trkpt>
<trkpt lat="47.602660" lon="8.387916">
<ele>651.4</ele>
<time>2003-07-20T11:21:51Z</time>
<speed>1.4</speed>
</trkpt>
<trkpt lat="47.602660" lon="8.387822">
<ele>651.3</ele>
<time>2003-07-20T11:21:56Z</time>
<speed>1.1</speed>
</trkpt>
<trkpt lat="47.602661" lon="8.387712">
<ele>652.6</ele>
<time>2003-07-20T11:22:01Z</time>
<speed>1.1</speed>
</trkpt>
<trkpt lat="47.602669" lon="8.387592">
<ele>653.1</ele>
<time>2003-07-20T11:22:06Z</time>
<speed>1.4</speed>
</trkpt>
<trkpt lat="47.602677" lon="8.387472">
<ele>653.7</ele>
<time>2003-07-20T11:22:11Z</time>
<speed>1.4</speed>
</trkpt>
<trkpt lat="47.602659" lon="8.387376">
<ele>652.8</ele>
<time>2003-07-20T11:22:16Z</time>
<speed>1.4</speed>
</trkpt>
<trkpt lat="47.602653" lon="8.387267">
<ele>653.4</ele>
<time>2003-07-20T11:22:21Z</time>
<speed>1.1</speed>
</trkpt>
<trkpt lat="47.602647" lon="8.387171">
<ele>654.0</ele>
<time>2003-07-20T11:22:26Z</time>
<speed>1.1</speed>
</trkpt>
<trkpt lat="47.602634" lon="8.387088">
<ele>654.0</ele>
<time>2003-07-20T11:22:31Z</time>
<speed>1.4</speed>
</trkpt>
<trkpt lat="47.602635" lon="8.386966">
<ele>655.2</ele>
<time>2003-07-20T11:22:36Z</time>
<speed>1.4</speed>
</trkpt>
<trkpt lat="47.602661" lon="8.386858">
<ele>658.1</ele>
<time>2003-07-20T11:22:41Z</time>
<speed>1.1</speed>
</trkpt>
<trkpt lat="47.602629" lon="8.386774">
<ele>657.3</ele>
<time>2003-07-20T11:22:46Z</time>
<speed>1.1</speed>
</trkpt>
<trkpt lat="47.602613" lon="8.386717">
<ele>657.5</ele>
<time>2003-07-20T11:22:51Z</time>
<speed>0.3</speed>
</trkpt>
<trkpt lat="47.602613" lon="8.386717">
<ele>657.5</ele>
<time>2003-07-20T11:22:56Z</time>
<speed>0.0</speed>
</trkpt>
<trkpt lat="47.602609" lon="8.386689">
<ele>657.9</ele>
<time>2003-07-20T11:23:01Z</time>
<speed>0.6</speed>
</trkpt>
<trkpt lat="47.602574" lon="8.386644">
<ele>657.4</ele>
<time>2003-07-20T11:23:06Z</time>
<speed>0.8</speed>
</trkpt>
<trkpt lat="47.602539" lon="8.386600">
<ele>655.5</ele>
<time>2003-07-20T11:23:11Z</time>
<speed>0.6</speed>
</trkpt>
<trkpt lat="47.602505" lon="8.386542">
<ele>654.9</ele>
<time>2003-07-20T11:23:16Z</time>
<speed>0.8</speed>
</trkpt>
<trkpt lat="47.602479" lon="8.386457">
<ele>654.8</ele>
<time>2003-07-20T11:23:21Z</time>
<speed>0.8</speed>
</trkpt>
<trkpt lat="47.602459" lon="8.386388">
<ele>654.2</ele>
<time>2003-07-20T11:23:26Z</time>
<speed>0.6</speed>
</trkpt>
<trkpt lat="47.602427" lon="8.386303">
<ele>653.4</ele>
<time>2003-07-20T11:23:31Z</time>
<speed>1.1</speed>
</trkpt>
<trkpt lat="47.602363" lon="8.386212">
<ele>653.1</ele>
<time>2003-07-20T11:23:36Z</time>
<speed>1.1</speed>
</trkpt>
<trkpt lat="47.602338" lon="8.386114">
<ele>652.9</ele>
<time>2003-07-20T11:23:41Z</time>
<speed>1.1</speed>
</trkpt>
<trkpt lat="47.602280" lon="8.386026">
<ele>652.0</ele>
<time>2003-07-20T11:23:46Z</time>
<speed>1.1</speed>
</trkpt>
<trkpt lat="47.602236" lon="8.385924">
<ele>652.4</ele>
<time>2003-07-20T11:23:51Z</time>
<speed>0.8</speed>
</trkpt>
<trkpt lat="47.602196" lon="8.385850">
<ele>652.4</ele>
<time>2003-07-20T11:23:56Z</time>
<speed>0.8</speed>
</trkpt>
<trkpt lat="47.602189" lon="8.385770">
<ele>651.7</ele>
<time>2003-07-20T11:24:01Z</time>
<speed>0.6</speed>
</trkpt>
<trkpt lat="47.602165" lon="8.385658">
<ele>651.5</ele>
<time>2003-07-20T11:24:06Z</time>
<speed>0.6</speed>
</trkpt>
<trkpt lat="47.602134" lon="8.385561">
<ele>650.6</ele>
<time>2003-07-20T11:24:11Z</time>
<speed>0.6</speed>
</trkpt>
<trkpt lat="47.602130" lon="8.385455">
<ele>648.3</ele>
<time>2003-07-20T11:24:16Z</time>
<speed>0.6</speed>
</trkpt>
<trkpt lat="47.602134" lon="8.385388">
<ele>649.2</ele>
<time>2003-07-20T11:24:21Z</time>
<speed>0.8</speed>
</trkpt>
<trkpt lat="47.602127" lon="8.385307">
<ele>648.6</ele>
<time>2003-07-20T11:24:26Z</time>
<speed>0.6</speed>
</trkpt>
<trkpt lat="47.602099" lon="8.385167">
<ele>648.8</ele>
<time>2003-07-20T11:24:31Z</time>
<speed>1.1</speed>
</trkpt>
<trkpt lat="47.602075" lon="8.385056">
<ele>648.5</ele>
<time>2003-07-20T11:24:36Z</time>
<speed>0.6</speed>
</trkpt>
<trkpt lat="47.602079" lon="8.384989">
<ele>649.4</ele>
<time>2003-07-20T11:24:41Z</time>
<speed>0.6</speed>
</trkpt>
<trkpt lat="47.602047" lon="8.384904">
<ele>648.6</ele>
<time>2003-07-20T11:24:46Z</time>
<speed>0.8</speed>
</trkpt>
<trkpt lat="47.602047" lon="8.384825">
<ele>647.3</ele>
<time>2003-07-20T11:24:51Z</time>
<speed>0.8</speed>
</trkpt>
<trkpt lat="47.602053" lon="8.384731">
<ele>648.0</ele>
<time>2003-07-20T11:24:56Z</time>
<speed>0.8</speed>
</trkpt>
<trkpt lat="47.602065" lon="8.384637">
<ele>649.5</ele>
<time>2003-07-20T11:25:01Z</time>
<speed>0.6</speed>
</trkpt>
<trkpt lat="47.602034" lon="8.384539">
<ele>648.5</ele>
<time>2003-07-20T11:25:06Z</time>
<speed>0.8</speed>
</trkpt>
<trkpt lat="47.602009" lon="8.384441">
<ele>648.4</ele>
<time>2003-07-20T11:25:11Z</time>
<speed>1.4</speed>
</trkpt>
<trkpt lat="47.602017" lon="8.384336">
<ele>647.6</ele>
<time>2003-07-20T11:25:16Z</time>
<speed>0.6</speed>
</trkpt>
<trkpt lat="47.602024" lon="8.384231">
<ele>646.8</ele>
<time>2003-07-20T11:25:21Z</time>
<speed>0.8</speed>
</trkpt>
<trkpt lat="47.602027" lon="8.384112">
<ele>645.2</ele>
<time>2003-07-20T11:25:26Z</time>
<speed>0.8</speed>
</trkpt>
<trkpt lat="47.602021" lon="8.384018">
<ele>644.4</ele>
<time>2003-07-20T11:25:31Z</time>
<speed>0.8</speed>
</trkpt>
<trkpt lat="47.602015" lon="8.383924">
<ele>643.7</ele>
<time>2003-07-20T11:25:36Z</time>
<speed>0.6</speed>
</trkpt>
<trkpt lat="47.601991" lon="8.383813">
<ele>643.4</ele>
<time>2003-07-20T11:25:41Z</time>
<speed>1.1</speed>
</trkpt>
<trkpt lat="47.601961" lon="8.383702">
<ele>642.4</ele>
<time>2003-07-20T11:25:46Z</time>
<speed>1.1</speed>
</trkpt>
<trkpt lat="47.601973" lon="8.383623">
<ele>642.6</ele>
<time>2003-07-20T11:25:51Z</time>
<speed>0.6</speed>
</trkpt>
<trkpt lat="47.601966" lon="8.383540">
<ele>643.3</ele>
<time>2003-07-20T11:25:56Z</time>
<speed>0.6</speed>
</trkpt>
<trkpt lat="47.601979" lon="8.383448">
<ele>643.4</ele>
<time>2003-07-20T11:26:01Z</time>
<speed>0.6</speed>
</trkpt>
<trkpt lat="47.601978" lon="8.383367">
<ele>643.4</ele>
<time>2003-07-20T11:26:06Z</time>
<speed>0.6</speed>
</trkpt>
<trkpt lat="47.601947" lon="8.383254">
<ele>643.8</ele>
<time>2003-07-20T11:26:11Z</time>
<speed>1.1</speed>
</trkpt>
<trkpt lat="47.601935" lon="8.383158">
<ele>643.7</ele>
<time>2003-07-20T11:26:16Z</time>
<speed>0.8</speed>
</trkpt>
<trkpt lat="47.601904" lon="8.383061">
<ele>642.8</ele>
<time>2003-07-20T11:26:21Z</time>
<speed>0.6</speed>
</trkpt>
<trkpt lat="47.601878" lon="8.382976">
<ele>642.8</ele>
<time>2003-07-20T11:26:26Z</time>
<speed>0.6</speed>
</trkpt>
<trkpt lat="47.601852" lon="8.382876">
<ele>644.0</ele>
<time>2003-07-20T11:26:31Z</time>
<speed>1.1</speed>
</trkpt>
<trkpt lat="47.601831" lon="8.382804">
<ele>644.8</ele>
<time>2003-07-20T11:26:36Z</time>
<speed>0.6</speed>
</trkpt>
<trkpt lat="47.601822" lon="8.382748">
<ele>645.7</ele>
<time>2003-07-20T11:26:41Z</time>
<speed>0.6</speed>
</trkpt>
<trkpt lat="47.601778" lon="8.382648">
<ele>644.8</ele>
<time>2003-07-20T11:26:46Z</time>
<speed>1.1</speed>
</trkpt>
<trkpt lat="47.601765" lon="8.382565">
<ele>644.8</ele>
<time>2003-07-20T11:26:51Z</time>
<speed>0.6</speed>
</trkpt>
<trkpt lat="47.601744" lon="8.382494">
<ele>645.5</ele>
<time>2003-07-20T11:26:56Z</time>
<speed>0.6</speed>
</trkpt>
<trkpt lat="47.601742" lon="8.382426">
<ele>645.7</ele>
<time>2003-07-20T11:27:01Z</time>
<speed>0.6</speed>
</trkpt>
<trkpt lat="47.601749" lon="8.382319">
<ele>646.3</ele>
<time>2003-07-20T11:27:06Z</time>
<speed>0.6</speed>
</trkpt>
<trkpt lat="47.601711" lon="8.382232">
<ele>646.2</ele>
<time>2003-07-20T11:27:11Z</time>
<speed>0.6</speed>
</trkpt>
<trkpt lat="47.601698" lon="8.382136">
<ele>646.1</ele>
<time>2003-07-20T11:27:16Z</time>
<speed>0.8</speed>
</trkpt>
<trkpt lat="47.601672" lon="8.382049">
<ele>647.4</ele>
<time>2003-07-20T11:27:21Z</time>
<speed>0.8</speed>
</trkpt>
<trkpt lat="47.601672" lon="8.381938">
<ele>650.1</ele>
<time>2003-07-20T11:27:26Z</time>
<speed>0.6</speed>
</trkpt>
<trkpt lat="47.601673" lon="8.381831">
<ele>650.0</ele>
<time>2003-07-20T11:27:31Z</time>
<speed>0.8</speed>
</trkpt>
<trkpt lat="47.601665" lon="8.381764">
<ele>649.4</ele>
<time>2003-07-20T11:27:36Z</time>
<speed>0.6</speed>
</trkpt>
<trkpt lat="47.601639" lon="8.381694">
<ele>648.1</ele>
<time>2003-07-20T11:27:41Z</time>
<speed>0.6</speed>
</trkpt>
<trkpt lat="47.601592" lon="8.381633">
<ele>647.4</ele>
<time>2003-07-20T11:27:46Z</time>
<speed>0.3</speed>
</trkpt>
<trkpt lat="47.601576" lon="8.381590">
<ele>647.7</ele>
<time>2003-07-20T11:27:51Z</time>
<speed>0.6</speed>
</trkpt>
<trkpt lat="47.601551" lon="8.381492">
<ele>647.5</ele>
<time>2003-07-20T11:27:56Z</time>
<speed>0.6</speed>
</trkpt>
<trkpt lat="47.601506" lon="8.381390">
<ele>648.0</ele>
<time>2003-07-20T11:28:01Z</time>
<speed>0.8</speed>
</trkpt>
<trkpt lat="47.601480" lon="8.381304">
<ele>649.3</ele>
<time>2003-07-20T11:28:06Z</time>
<speed>1.1</speed>
</trkpt>
<trkpt lat="47.601428" lon="8.381215">
<ele>649.1</ele>
<time>2003-07-20T11:28:11Z</time>
<speed>1.1</speed>
</trkpt>
<trkpt lat="47.601376" lon="8.381138">
<ele>650.4</ele>
<time>2003-07-20T11:28:16Z</time>
<speed>1.1</speed>
</trkpt>
<trkpt lat="47.601318" lon="8.381049">
<ele>649.4</ele>
<time>2003-07-20T11:28:21Z</time>
<speed>0.6</speed>
</trkpt>
<trkpt lat="47.601304" lon="8.380980">
<ele>649.5</ele>
<time>2003-07-20T11:28:26Z</time>
<speed>0.3</speed>
</trkpt>
<trkpt lat="47.601308" lon="8.380912">
<ele>650.5</ele>
<time>2003-07-20T11:28:31Z</time>
<speed>0.3</speed>
</trkpt>
<trkpt lat="47.601308" lon="8.380831">
<ele>650.5</ele>
<time>2003-07-20T11:28:36Z</time>
<speed>0.6</speed>
</trkpt>
<trkpt lat="47.601275" lon="8.380744">
<ele>651.1</ele>
<time>2003-07-20T11:28:41Z</time>
<speed>0.6</speed>
</trkpt>
<trkpt lat="47.601255" lon="8.380661">
<ele>650.4</ele>
<time>2003-07-20T11:28:46Z</time>
<speed>0.6</speed>
</trkpt>
<trkpt lat="47.601235" lon="8.380590">
<ele>651.2</ele>
<time>2003-07-20T11:28:51Z</time>
<speed>1.1</speed>
</trkpt>
<trkpt lat="47.601202" lon="8.380505">
<ele>650.4</ele>
<time>2003-07-20T11:28:56Z</time>
<speed>0.8</speed>
</trkpt>
<trkpt lat="47.601189" lon="8.380422">
<ele>650.4</ele>
<time>2003-07-20T11:29:01Z</time>
<speed>0.6</speed>
</trkpt>
<trkpt lat="47.601163" lon="8.380338">
<ele>650.3</ele>
<time>2003-07-20T11:29:06Z</time>
<speed>0.6</speed>
</trkpt>
<trkpt lat="47.601136" lon="8.380266">
<ele>650.4</ele>
<time>2003-07-20T11:29:11Z</time>
<speed>0.6</speed>
</trkpt>
<trkpt lat="47.601110" lon="8.380181">
<ele>650.3</ele>
<time>2003-07-20T11:29:16Z</time>
<speed>0.3</speed>
</trkpt>
<trkpt lat="47.601066" lon="8.380081">
<ele>649.3</ele>
<time>2003-07-20T11:29:21Z</time>
<speed>0.6</speed>
</trkpt>
<trkpt lat="47.601040" lon="8.379997">
<ele>649.2</ele>
<time>2003-07-20T11:29:26Z</time>
<speed>0.3</speed>
</trkpt>
<trkpt lat="47.601001" lon="8.379923">
<ele>649.2</ele>
<time>2003-07-20T11:29:31Z</time>
<speed>0.6</speed>
</trkpt>
<trkpt lat="47.600966" lon="8.379863">
<ele>650.0</ele>
<time>2003-07-20T11:29:36Z</time>
<speed>0.3</speed>
</trkpt>
<trkpt lat="47.600939" lon="8.379791">
<ele>650.0</ele>
<time>2003-07-20T11:29:41Z</time>
<speed>0.8</speed>
</trkpt>
<trkpt lat="47.600912" lon="8.379720">
<ele>650.1</ele>
<time>2003-07-20T11:29:46Z</time>
<speed>0.6</speed>
</trkpt>
<trkpt lat="47.600903" lon="8.379663">
<ele>651.0</ele>
<time>2003-07-20T11:29:51Z</time>
<speed>0.8</speed>
</trkpt>
<trkpt lat="47.600876" lon="8.379592">
<ele>651.0</ele>
<time>2003-07-20T11:29:56Z</time>
<speed>0.6</speed>
</trkpt>
<trkpt lat="47.600860" lon="8.379535">
<ele>651.2</ele>
<time>2003-07-20T11:30:01Z</time>
<speed>0.6</speed>
</trkpt>
<trkpt lat="47.600839" lon="8.379463">
<ele>652.0</ele>
<time>2003-07-20T11:30:06Z</time>
<speed>0.8</speed>
</trkpt>
<trkpt lat="47.600827" lon="8.379367">
<ele>651.9</ele>
<time>2003-07-20T11:30:12Z</time>
<speed>0.6</speed>
</trkpt>
<trkpt lat="47.600832" lon="8.379287">
<ele>652.7</ele>
<time>2003-07-20T11:30:17Z</time>
<speed>0.6</speed>
</trkpt>
<trkpt lat="47.600809" lon="8.379241">
<ele>653.7</ele>
<time>2003-07-20T11:30:22Z</time>
<speed>0.6</speed>
</trkpt>
<trkpt lat="47.600781" lon="8.379181">
<ele>655.2</ele>
<time>2003-07-20T11:30:27Z</time>
<speed>0.6</speed>
</trkpt>
<trkpt lat="47.600753" lon="8.379121">
<ele>656.8</ele>
<time>2003-07-20T11:30:32Z</time>
<speed>0.6</speed>
</trkpt>
<trkpt lat="47.600732" lon="8.379051">
<ele>656.2</ele>
<time>2003-07-20T11:30:37Z</time>
<speed>0.8</speed>
</trkpt>
<trkpt lat="47.600704" lon="8.378993">
<ele>656.3</ele>
<time>2003-07-20T11:30:42Z</time>
<speed>0.6</speed>
</trkpt>
<trkpt lat="47.600683" lon="8.378921">
<ele>657.1</ele>
<time>2003-07-20T11:30:47Z</time>
<speed>0.3</speed>
</trkpt>
<trkpt lat="47.600659" lon="8.378889">
<ele>658.1</ele>
<time>2003-07-20T11:30:52Z</time>
<speed>0.3</speed>
</trkpt>
<trkpt lat="47.600633" lon="8.378804">
<ele>658.1</ele>
<time>2003-07-20T11:30:57Z</time>
<speed>0.6</speed>
</trkpt>
<trkpt lat="47.600613" lon="8.378719">
<ele>658.7</ele>
<time>2003-07-20T11:31:02Z</time>
<speed>0.6</speed>
</trkpt>
<trkpt lat="47.600587" lon="8.378633">
<ele>660.1</ele>
<time>2003-07-20T11:31:07Z</time>
<speed>0.6</speed>
</trkpt>
<trkpt lat="47.600568" lon="8.378535">
<ele>660.6</ele>
<time>2003-07-20T11:31:12Z</time>
<speed>0.8</speed>
</trkpt>
<trkpt lat="47.600529" lon="8.378446">
<ele>661.9</ele>
<time>2003-07-20T11:31:17Z</time>
<speed>1.1</speed>
</trkpt>
<trkpt lat="47.600489" lon="8.378358">
<ele>663.2</ele>
<time>2003-07-20T11:31:22Z</time>
<speed>1.7</speed>
</trkpt>
<trkpt lat="47.600425" lon="8.378265">
<ele>664.3</ele>
<time>2003-07-20T11:31:27Z</time>
<speed>1.4</speed>
</trkpt>
<trkpt lat="47.600397" lon="8.378207">
<ele>664.4</ele>
<time>2003-07-20T11:31:32Z</time>
<speed>0.8</speed>
</trkpt>
<trkpt lat="47.600365" lon="8.378107">
<ele>664.9</ele>
<time>2003-07-20T11:31:37Z</time>
<speed>0.8</speed>
</trkpt>
<trkpt lat="47.600386" lon="8.378003">
<ele>664.2</ele>
<time>2003-07-20T11:31:42Z</time>
<speed>0.8</speed>
</trkpt>
<trkpt lat="47.600404" lon="8.377926">
<ele>663.7</ele>
<time>2003-07-20T11:31:47Z</time>
<speed>0.8</speed>
</trkpt>
<trkpt lat="47.600404" lon="8.377848">
<ele>662.4</ele>
<time>2003-07-20T11:31:52Z</time>
<speed>0.8</speed>
</trkpt>
<trkpt lat="47.600411" lon="8.377755">
<ele>661.7</ele>
<time>2003-07-20T11:31:57Z</time>
<speed>0.8</speed>
</trkpt>
<trkpt lat="47.600419" lon="8.377635">
<ele>662.2</ele>
<time>2003-07-20T11:32:02Z</time>
<speed>0.8</speed>
</trkpt>
<trkpt lat="47.600419" lon="8.377556">
<ele>660.9</ele>
<time>2003-07-20T11:32:07Z</time>
<speed>0.6</speed>
</trkpt>
<trkpt lat="47.600420" lon="8.377451">
<ele>659.4</ele>
<time>2003-07-20T11:32:12Z</time>
<speed>0.8</speed>
</trkpt>
<trkpt lat="47.600414" lon="8.377370">
<ele>658.7</ele>
<time>2003-07-20T11:32:17Z</time>
<speed>0.6</speed>
</trkpt>
<trkpt lat="47.600414" lon="8.377276">
<ele>658.7</ele>
<time>2003-07-20T11:32:22Z</time>
<speed>0.6</speed>
</trkpt>
<trkpt lat="47.600402" lon="8.377182">
<ele>657.2</ele>
<time>2003-07-20T11:32:27Z</time>
<speed>0.6</speed>
</trkpt>
<trkpt lat="47.600371" lon="8.377084">
<ele>656.3</ele>
<time>2003-07-20T11:32:32Z</time>
<speed>0.8</speed>
</trkpt>
<trkpt lat="47.600339" lon="8.376999">
<ele>655.5</ele>
<time>2003-07-20T11:32:37Z</time>
<speed>0.8</speed>
</trkpt>
<trkpt lat="47.600314" lon="8.376902">
<ele>655.3</ele>
<time>2003-07-20T11:32:42Z</time>
<speed>0.8</speed>
</trkpt>
<trkpt lat="47.600329" lon="8.376770">
<ele>655.1</ele>
<time>2003-07-20T11:32:47Z</time>
<speed>1.1</speed>
</trkpt>
<trkpt lat="47.600318" lon="8.376661">
<ele>654.9</ele>
<time>2003-07-20T11:32:52Z</time>
<speed>1.4</speed>
</trkpt>
<trkpt lat="47.600318" lon="8.376552">
<ele>656.2</ele>
<time>2003-07-20T11:32:57Z</time>
<speed>1.1</speed>
</trkpt>
<trkpt lat="47.600318" lon="8.376471">
<ele>656.2</ele>
<time>2003-07-20T11:33:02Z</time>
<speed>0.8</speed>
</trkpt>
<trkpt lat="47.600317" lon="8.376375">
<ele>657.6</ele>
<time>2003-07-20T11:33:07Z</time>
<speed>1.1</speed>
</trkpt>
<trkpt lat="47.600342" lon="8.376283">
<ele>659.2</ele>
<time>2003-07-20T11:33:12Z</time>
<speed>1.1</speed>
</trkpt>
<trkpt lat="47.600368" lon="8.376193">
<ele>659.3</ele>
<time>2003-07-20T11:33:17Z</time>
<speed>1.1</speed>
</trkpt>
<trkpt lat="47.600406" lon="8.376105">
<ele>659.5</ele>
<time>2003-07-20T11:33:22Z</time>
<speed>1.4</speed>
</trkpt>
<trkpt lat="47.600425" lon="8.376012">
<ele>660.3</ele>
<time>2003-07-20T11:33:27Z</time>
<speed>0.8</speed>
</trkpt>
<trkpt lat="47.600449" lon="8.375935">
<ele>660.5</ele>
<time>2003-07-20T11:33:32Z</time>
<speed>0.8</speed>
</trkpt>
<trkpt lat="47.600451" lon="8.375828">
<ele>660.4</ele>
<time>2003-07-20T11:33:37Z</time>
<speed>0.8</speed>
</trkpt>
<trkpt lat="47.600457" lon="8.375736">
<ele>659.7</ele>
<time>2003-07-20T11:33:42Z</time>
<speed>0.8</speed>
</trkpt>
<trkpt lat="47.600439" lon="8.375640">
<ele>658.9</ele>
<time>2003-07-20T11:33:47Z</time>
<speed>0.8</speed>
</trkpt>
<trkpt lat="47.600426" lon="8.375544">
<ele>658.8</ele>
<time>2003-07-20T11:33:52Z</time>
<speed>0.8</speed>
</trkpt>
<trkpt lat="47.600420" lon="8.375450">
<ele>658.0</ele>
<time>2003-07-20T11:33:57Z</time>
<speed>0.8</speed>
</trkpt>
<trkpt lat="47.600407" lon="8.375367">
<ele>658.0</ele>
<time>2003-07-20T11:34:02Z</time>
<speed>0.8</speed>
</trkpt>
<trkpt lat="47.600402" lon="8.375260">
<ele>657.1</ele>
<time>2003-07-20T11:34:07Z</time>
<speed>0.6</speed>
</trkpt>
<trkpt lat="47.600386" lon="8.375138">
<ele>656.1</ele>
<time>2003-07-20T11:34:12Z</time>
<speed>0.8</speed>
</trkpt>
<trkpt lat="47.600369" lon="8.375016">
<ele>655.1</ele>
<time>2003-07-20T11:34:17Z</time>
<speed>0.6</speed>
</trkpt>
<trkpt lat="47.600343" lon="8.374931">
<ele>655.0</ele>
<time>2003-07-20T11:34:22Z</time>
<speed>0.6</speed>
</trkpt>
<trkpt lat="47.600297" lon="8.374857">
<ele>654.3</ele>
<time>2003-07-20T11:34:27Z</time>
<speed>0.8</speed>
</trkpt>
<trkpt lat="47.600266" lon="8.374760">
<ele>653.4</ele>
<time>2003-07-20T11:34:32Z</time>
<speed>0.8</speed>
</trkpt>
<trkpt lat="47.600242" lon="8.374649">
<ele>653.1</ele>
<time>2003-07-20T11:34:37Z</time>
<speed>0.8</speed>
</trkpt>
<trkpt lat="47.600217" lon="8.374566">
<ele>651.6</ele>
<time>2003-07-20T11:34:42Z</time>
<speed>0.8</speed>
</trkpt>
<trkpt lat="47.600230" lon="8.374460">
<ele>651.6</ele>
<time>2003-07-20T11:34:47Z</time>
<speed>0.6</speed>
</trkpt>
<trkpt lat="47.600230" lon="8.374380">
<ele>651.7</ele>
<time>2003-07-20T11:34:52Z</time>
<speed>0.6</speed>
</trkpt>
<trkpt lat="47.600236" lon="8.374288">
<ele>651.0</ele>
<time>2003-07-20T11:34:57Z</time>
<speed>0.6</speed>
</trkpt>
<trkpt lat="47.600186" lon="8.374184">
<ele>652.1</ele>
<time>2003-07-20T11:35:02Z</time>
<speed>0.8</speed>
</trkpt>
<trkpt lat="47.600128" lon="8.374095">
<ele>651.1</ele>
<time>2003-07-20T11:35:07Z</time>
<speed>0.6</speed>
</trkpt>
<trkpt lat="47.600097" lon="8.373997">
<ele>650.2</ele>
<time>2003-07-20T11:35:12Z</time>
<speed>0.8</speed>
</trkpt>
<trkpt lat="47.600064" lon="8.373911">
<ele>650.8</ele>
<time>2003-07-20T11:35:17Z</time>
<speed>0.8</speed>
</trkpt>
<trkpt lat="47.600026" lon="8.373826">
<ele>649.3</ele>
<time>2003-07-20T11:35:22Z</time>
<speed>1.1</speed>
</trkpt>
<trkpt lat="47.600033" lon="8.373734">
<ele>648.6</ele>
<time>2003-07-20T11:35:27Z</time>
<speed>0.6</speed>
</trkpt>
<trkpt lat="47.600021" lon="8.373638">
<ele>648.5</ele>
<time>2003-07-20T11:35:32Z</time>
<speed>1.1</speed>
</trkpt>
<trkpt lat="47.600002" lon="8.373542">
<ele>647.7</ele>
<time>2003-07-20T11:35:37Z</time>
<speed>0.8</speed>
</trkpt>
<trkpt lat="47.599976" lon="8.373457">
<ele>647.6</ele>
<time>2003-07-20T11:35:42Z</time>
<speed>0.8</speed>
</trkpt>
<trkpt lat="47.599976" lon="8.373363">
<ele>647.6</ele>
<time>2003-07-20T11:35:47Z</time>
<speed>1.1</speed>
</trkpt>
<trkpt lat="47.599992" lon="8.373232">
<ele>647.3</ele>
<time>2003-07-20T11:35:52Z</time>
<speed>1.1</speed>
</trkpt>
<trkpt lat="47.599973" lon="8.373134">
<ele>647.9</ele>
<time>2003-07-20T11:35:57Z</time>
<speed>1.1</speed>
</trkpt>
<trkpt lat="47.599954" lon="8.373038">
<ele>647.1</ele>
<time>2003-07-20T11:36:02Z</time>
<speed>0.8</speed>
</trkpt>
<trkpt lat="47.599919" lon="8.372912">
<ele>646.7</ele>
<time>2003-07-20T11:36:07Z</time>
<speed>1.1</speed>
</trkpt>
<trkpt lat="47.599880" lon="8.372825">
<ele>646.5</ele>
<time>2003-07-20T11:36:12Z</time>
<speed>1.4</speed>
</trkpt>
<trkpt lat="47.599848" lon="8.372725">
<ele>647.0</ele>
<time>2003-07-20T11:36:17Z</time>
<speed>1.4</speed>
</trkpt>
<trkpt lat="47.599816" lon="8.372638">
<ele>647.6</ele>
<time>2003-07-20T11:36:22Z</time>
<speed>1.4</speed>
</trkpt>
<trkpt lat="47.599796" lon="8.372556">
<ele>646.9</ele>
<time>2003-07-20T11:36:27Z</time>
<speed>1.4</speed>
</trkpt>
<trkpt lat="47.599797" lon="8.372462">
<ele>646.9</ele>
<time>2003-07-20T11:36:32Z</time>
<speed>1.1</speed>
</trkpt>
<trkpt lat="47.599791" lon="8.372368">
<ele>646.1</ele>
<time>2003-07-20T11:36:37Z</time>
<speed>1.4</speed>
</trkpt>
<trkpt lat="47.599804" lon="8.372262">
<ele>646.1</ele>
<time>2003-07-20T11:36:42Z</time>
<speed>1.4</speed>
</trkpt>
<trkpt lat="47.599805" lon="8.372168">
<ele>646.0</ele>
<time>2003-07-20T11:36:47Z</time>
<speed>1.1</speed>
</trkpt>
<trkpt lat="47.599805" lon="8.372074">
<ele>646.0</ele>
<time>2003-07-20T11:36:52Z</time>
<speed>1.4</speed>
</trkpt>
<trkpt lat="47.599819" lon="8.371969">
<ele>646.0</ele>
<time>2003-07-20T11:36:57Z</time>
<speed>1.4</speed>
</trkpt>
<trkpt lat="47.599819" lon="8.371875">
<ele>646.0</ele>
<time>2003-07-20T11:37:02Z</time>
<speed>1.1</speed>
</trkpt>
<trkpt lat="47.599826" lon="8.371783">
<ele>645.3</ele>
<time>2003-07-20T11:37:07Z</time>
<speed>1.1</speed>
</trkpt>
<trkpt lat="47.599827" lon="8.371676">
<ele>645.2</ele>
<time>2003-07-20T11:37:12Z</time>
<speed>1.1</speed>
</trkpt>
<trkpt lat="47.599834" lon="8.371584">
<ele>644.5</ele>
<time>2003-07-20T11:37:17Z</time>
<speed>1.1</speed>
</trkpt>
<trkpt lat="47.599835" lon="8.371479">
<ele>642.9</ele>
<time>2003-07-20T11:37:22Z</time>
<speed>1.1</speed>
</trkpt>
<trkpt lat="47.599843" lon="8.371373">
<ele>642.2</ele>
<time>2003-07-20T11:37:27Z</time>
<speed>1.1</speed>
</trkpt>
<trkpt lat="47.599844" lon="8.371281">
<ele>640.7</ele>
<time>2003-07-20T11:37:32Z</time>
<speed>1.1</speed>
</trkpt>
<trkpt lat="47.599857" lon="8.371176">
<ele>640.7</ele>
<time>2003-07-20T11:37:37Z</time>
<speed>1.1</speed>
</trkpt>
<trkpt lat="47.599864" lon="8.371084">
<ele>640.0</ele>
<time>2003-07-20T11:37:42Z</time>
<speed>0.8</speed>
</trkpt>
<trkpt lat="47.599871" lon="8.370977">
<ele>640.6</ele>
<time>2003-07-20T11:37:47Z</time>
<speed>1.1</speed>
</trkpt>
<trkpt lat="47.599871" lon="8.370896">
<ele>640.7</ele>
<time>2003-07-20T11:37:52Z</time>
<speed>0.8</speed>
</trkpt>
<trkpt lat="47.599877" lon="8.370804">
<ele>640.0</ele>
<time>2003-07-20T11:37:57Z</time>
<speed>0.6</speed>
</trkpt>
<trkpt lat="47.599879" lon="8.370697">
<ele>639.9</ele>
<time>2003-07-20T11:38:02Z</time>
<speed>0.8</speed>
</trkpt>
<trkpt lat="47.599859" lon="8.370614">
<ele>639.2</ele>
<time>2003-07-20T11:38:07Z</time>
<speed>0.8</speed>
</trkpt>
<trkpt lat="47.599835" lon="8.370503">
<ele>638.9</ele>
<time>2003-07-20T11:38:12Z</time>
<speed>1.1</speed>
</trkpt>
<trkpt lat="47.599831" lon="8.370380">
<ele>639.4</ele>
<time>2003-07-20T11:38:17Z</time>
<speed>1.1</speed>
</trkpt>
<trkpt lat="47.599825" lon="8.370286">
<ele>638.6</ele>
<time>2003-07-20T11:38:22Z</time>
<speed>0.8</speed>
</trkpt>
<trkpt lat="47.599800" lon="8.370189">
<ele>638.4</ele>
<time>2003-07-20T11:38:27Z</time>
<speed>1.1</speed>
</trkpt>
<trkpt lat="47.599781" lon="8.370093">
<ele>637.6</ele>
<time>2003-07-20T11:38:32Z</time>
<speed>1.4</speed>
</trkpt>
<trkpt lat="47.599769" lon="8.369997">
<ele>637.5</ele>
<time>2003-07-20T11:38:37Z</time>
<speed>1.1</speed>
</trkpt>
<trkpt lat="47.599762" lon="8.369916">
<ele>636.8</ele>
<time>2003-07-20T11:38:42Z</time>
<speed>1.4</speed>
</trkpt>
<trkpt lat="47.599762" lon="8.369837">
<ele>635.5</ele>
<time>2003-07-20T11:38:47Z</time>
<speed>1.1</speed>
</trkpt>
<trkpt lat="47.599763" lon="8.369732">
<ele>634.0</ele>
<time>2003-07-20T11:38:52Z</time>
<speed>1.4</speed>
</trkpt>
<trkpt lat="47.599784" lon="8.369613">
<ele>634.6</ele>
<time>2003-07-20T11:38:57Z</time>
<speed>1.7</speed>
</trkpt>
<trkpt lat="47.599780" lon="8.369491">
<ele>635.0</ele>
<time>2003-07-20T11:39:02Z</time>
<speed>1.7</speed>
</trkpt>
<trkpt lat="47.599774" lon="8.369397">
<ele>634.3</ele>
<time>2003-07-20T11:39:07Z</time>
<speed>1.4</speed>
</trkpt>
<trkpt lat="47.599774" lon="8.369303">
<ele>634.3</ele>
<time>2003-07-20T11:39:12Z</time>
<speed>1.4</speed>
</trkpt>
<trkpt lat="47.599774" lon="8.369209">
<ele>634.2</ele>
<time>2003-07-20T11:39:17Z</time>
<speed>1.4</speed>
</trkpt>
<trkpt lat="47.599795" lon="8.369106">
<ele>633.5</ele>
<time>2003-07-20T11:39:22Z</time>
<speed>1.4</speed>
</trkpt>
<trkpt lat="47.599781" lon="8.369023">
<ele>633.5</ele>
<time>2003-07-20T11:39:27Z</time>
<speed>1.4</speed>
</trkpt>
<trkpt lat="47.599788" lon="8.368916">
<ele>634.2</ele>
<time>2003-07-20T11:39:32Z</time>
<speed>1.1</speed>
</trkpt>
<trkpt lat="47.599795" lon="8.368822">
<ele>634.9</ele>
<time>2003-07-20T11:39:37Z</time>
<speed>0.8</speed>
</trkpt>
<trkpt lat="47.599816" lon="8.368705">
<ele>634.1</ele>
<time>2003-07-20T11:39:42Z</time>
<speed>1.4</speed>
</trkpt>
<trkpt lat="47.599816" lon="8.368611">
<ele>634.0</ele>
<time>2003-07-20T11:39:47Z</time>
<speed>1.4</speed>
</trkpt>
<trkpt lat="47.599818" lon="8.368506">
<ele>632.5</ele>
<time>2003-07-20T11:39:52Z</time>
<speed>1.4</speed>
</trkpt>
<trkpt lat="47.599799" lon="8.368410">
<ele>631.7</ele>
<time>2003-07-20T11:39:57Z</time>
<speed>1.1</speed>
</trkpt>
<trkpt lat="47.599780" lon="8.368327">
<ele>631.0</ele>
<time>2003-07-20T11:40:02Z</time>
<speed>0.8</speed>
</trkpt>
<trkpt lat="47.599779" lon="8.368246">
<ele>631.0</ele>
<time>2003-07-20T11:40:07Z</time>
<speed>1.1</speed>
</trkpt>
<trkpt lat="47.599799" lon="8.368158">
<ele>629.0</ele>
<time>2003-07-20T11:40:12Z</time>
<speed>1.1</speed>
</trkpt>
<trkpt lat="47.599819" lon="8.368055">
<ele>628.3</ele>
<time>2003-07-20T11:40:17Z</time>
<speed>1.1</speed>
</trkpt>
<trkpt lat="47.599814" lon="8.367961">
<ele>627.5</ele>
<time>2003-07-20T11:40:22Z</time>
<speed>1.1</speed>
</trkpt>
<trkpt lat="47.599808" lon="8.367867">
<ele>626.8</ele>
<time>2003-07-20T11:40:27Z</time>
<speed>0.8</speed>
</trkpt>
<trkpt lat="47.599802" lon="8.367758">
<ele>627.3</ele>
<time>2003-07-20T11:40:32Z</time>
<speed>1.4</speed>
</trkpt>
<trkpt lat="47.599784" lon="8.367662">
<ele>626.5</ele>
<time>2003-07-20T11:40:37Z</time>
<speed>1.1</speed>
</trkpt>
<trkpt lat="47.599772" lon="8.367568">
<ele>625.0</ele>
<time>2003-07-20T11:40:42Z</time>
<speed>1.4</speed>
</trkpt>
<trkpt lat="47.599766" lon="8.367474">
<ele>624.3</ele>
<time>2003-07-20T11:40:47Z</time>
<speed>1.4</speed>
</trkpt>
<trkpt lat="47.599768" lon="8.367368">
<ele>622.7</ele>
<time>2003-07-20T11:40:52Z</time>
<speed>1.4</speed>
</trkpt>
<trkpt lat="47.599775" lon="8.367263">
<ele>621.9</ele>
<time>2003-07-20T11:40:57Z</time>
<speed>1.4</speed>
</trkpt>
<trkpt lat="47.599782" lon="8.367171">
<ele>621.3</ele>
<time>2003-07-20T11:41:02Z</time>
<speed>1.4</speed>
</trkpt>
<trkpt lat="47.599789" lon="8.367064">
<ele>621.9</ele>
<time>2003-07-20T11:41:07Z</time>
<speed>1.1</speed>
</trkpt>
<trkpt lat="47.599804" lon="8.366961">
<ele>620.4</ele>
<time>2003-07-20T11:41:12Z</time>
<speed>1.4</speed>
</trkpt>
<trkpt lat="47.599816" lon="8.366868">
<ele>620.5</ele>
<time>2003-07-20T11:41:17Z</time>
<speed>1.4</speed>
</trkpt>
<trkpt lat="47.599823" lon="8.366776">
<ele>619.8</ele>
<time>2003-07-20T11:41:22Z</time>
<speed>1.4</speed>
</trkpt>
<trkpt lat="47.599825" lon="8.366671">
<ele>618.3</ele>
<time>2003-07-20T11:41:27Z</time>
<speed>1.4</speed>
</trkpt>
<trkpt lat="47.599838" lon="8.366579">
<ele>618.3</ele>
<time>2003-07-20T11:41:32Z</time>
<speed>1.1</speed>
</trkpt>
<trkpt lat="47.599838" lon="8.366485">
<ele>618.3</ele>
<time>2003-07-20T11:41:37Z</time>
<speed>1.4</speed>
</trkpt>
<trkpt lat="47.599846" lon="8.366380">
<ele>617.5</ele>
<time>2003-07-20T11:41:42Z</time>
<speed>1.4</speed>
</trkpt>
<trkpt lat="47.599846" lon="8.366286">
<ele>617.5</ele>
<time>2003-07-20T11:41:47Z</time>
<speed>1.4</speed>
</trkpt>
<trkpt lat="47.599847" lon="8.366179">
<ele>617.4</ele>
<time>2003-07-20T11:41:52Z</time>
<speed>1.4</speed>
</trkpt>
<trkpt lat="47.599846" lon="8.366098">
<ele>617.5</ele>
<time>2003-07-20T11:41:57Z</time>
<speed>1.1</speed>
</trkpt>
<trkpt lat="47.599835" lon="8.365991">
<ele>615.9</ele>
<time>2003-07-20T11:42:02Z</time>
<speed>1.4</speed>
</trkpt>
<trkpt lat="47.599844" lon="8.365872">
<ele>615.0</ele>
<time>2003-07-20T11:42:07Z</time>
<speed>1.4</speed>
</trkpt>
<trkpt lat="47.599852" lon="8.365767">
<ele>614.2</ele>
<time>2003-07-20T11:42:12Z</time>
<speed>1.4</speed>
</trkpt>
<trkpt lat="47.599859" lon="8.365662">
<ele>613.4</ele>
<time>2003-07-20T11:42:17Z</time>
<speed>1.4</speed>
</trkpt>
<trkpt lat="47.599860" lon="8.365568">
<ele>613.4</ele>
<time>2003-07-20T11:42:22Z</time>
<speed>1.4</speed>
</trkpt>
<trkpt lat="47.599854" lon="8.365474">
<ele>612.6</ele>
<time>2003-07-20T11:42:27Z</time>
<speed>1.4</speed>
</trkpt>
<trkpt lat="47.599847" lon="8.365393">
<ele>612.0</ele>
<time>2003-07-20T11:42:32Z</time>
<speed>1.4</speed>
</trkpt>
<trkpt lat="47.599859" lon="8.365299">
<ele>613.4</ele>
<time>2003-07-20T11:42:37Z</time>
<speed>1.4</speed>
</trkpt>
<trkpt lat="47.599873" lon="8.365194">
<ele>613.4</ele>
<time>2003-07-20T11:42:42Z</time>
<speed>1.4</speed>
</trkpt>
<trkpt lat="47.599886" lon="8.365086">
<ele>614.7</ele>
<time>2003-07-20T11:42:47Z</time>
<speed>1.4</speed>
</trkpt>
<trkpt lat="47.599893" lon="8.364994">
<ele>614.1</ele>
<time>2003-07-20T11:42:52Z</time>
<speed>1.1</speed>
</trkpt>
<trkpt lat="47.599893" lon="8.364900">
<ele>614.0</ele>
<time>2003-07-20T11:42:57Z</time>
<speed>1.4</speed>
</trkpt>
<trkpt lat="47.599894" lon="8.364793">
<ele>613.9</ele>
<time>2003-07-20T11:43:02Z</time>
<speed>1.4</speed>
</trkpt>
<trkpt lat="47.599889" lon="8.364699">
<ele>613.2</ele>
<time>2003-07-20T11:43:07Z</time>
<speed>1.4</speed>
</trkpt>
<trkpt lat="47.599870" lon="8.364601">
<ele>613.7</ele>
<time>2003-07-20T11:43:12Z</time>
<speed>1.4</speed>
</trkpt>
<trkpt lat="47.599850" lon="8.364518">
<ele>613.0</ele>
<time>2003-07-20T11:43:17Z</time>
<speed>1.4</speed>
</trkpt>
<trkpt lat="47.599837" lon="8.364421">
<ele>614.3</ele>
<time>2003-07-20T11:43:22Z</time>
<speed>1.4</speed>
</trkpt>
<trkpt lat="47.599811" lon="8.364336">
<ele>614.3</ele>
<time>2003-07-20T11:43:27Z</time>
<speed>1.4</speed>
</trkpt>
<trkpt lat="47.599792" lon="8.364238">
<ele>614.8</ele>
<time>2003-07-20T11:43:32Z</time>
<speed>1.4</speed>
</trkpt>
<trkpt lat="47.599767" lon="8.364140">
<ele>614.7</ele>
<time>2003-07-20T11:43:37Z</time>
<speed>1.4</speed>
</trkpt>
<trkpt lat="47.599741" lon="8.364055">
<ele>614.6</ele>
<time>2003-07-20T11:43:42Z</time>
<speed>1.1</speed>
</trkpt>
<trkpt lat="47.599716" lon="8.363957">
<ele>614.4</ele>
<time>2003-07-20T11:43:47Z</time>
<speed>1.4</speed>
</trkpt>
<trkpt lat="47.599697" lon="8.363861">
<ele>613.6</ele>
<time>2003-07-20T11:43:52Z</time>
<speed>1.4</speed>
</trkpt>
<trkpt lat="47.599685" lon="8.363765">
<ele>613.5</ele>
<time>2003-07-20T11:43:57Z</time>
<speed>1.4</speed>
</trkpt>
<trkpt lat="47.599672" lon="8.363685">
<ele>612.1</ele>
<time>2003-07-20T11:44:02Z</time>
<speed>1.4</speed>
</trkpt>
<trkpt lat="47.599660" lon="8.363589">
<ele>612.0</ele>
<time>2003-07-20T11:44:07Z</time>
<speed>1.4</speed>
</trkpt>
<trkpt lat="47.599655" lon="8.363481">
<ele>611.2</ele>
<time>2003-07-20T11:44:12Z</time>
<speed>1.4</speed>
</trkpt>
<trkpt lat="47.599649" lon="8.363387">
<ele>610.4</ele>
<time>2003-07-20T11:44:17Z</time>
<speed>1.1</speed>
</trkpt>
<trkpt lat="47.599649" lon="8.363293">
<ele>610.4</ele>
<time>2003-07-20T11:44:22Z</time>
<speed>1.4</speed>
</trkpt>
<trkpt lat="47.599644" lon="8.363186">
<ele>609.5</ele>
<time>2003-07-20T11:44:27Z</time>
<speed>1.1</speed>
</trkpt>
<trkpt lat="47.599633" lon="8.363077">
<ele>609.4</ele>
<time>2003-07-20T11:44:32Z</time>
<speed>1.4</speed>
</trkpt>
<trkpt lat="47.599620" lon="8.362981">
<ele>609.3</ele>
<time>2003-07-20T11:44:37Z</time>
<speed>1.4</speed>
</trkpt>
<trkpt lat="47.599626" lon="8.362887">
<ele>610.0</ele>
<time>2003-07-20T11:44:42Z</time>
<speed>1.4</speed>
</trkpt>
<trkpt lat="47.599627" lon="8.362778">
<ele>611.3</ele>
<time>2003-07-20T11:44:47Z</time>
<speed>1.4</speed>
</trkpt>
<trkpt lat="47.599634" lon="8.362671">
<ele>611.9</ele>
<time>2003-07-20T11:44:52Z</time>
<speed>1.4</speed>
</trkpt>
<trkpt lat="47.599629" lon="8.362564">
<ele>611.0</ele>
<time>2003-07-20T11:44:57Z</time>
<speed>1.4</speed>
</trkpt>
<trkpt lat="47.599630" lon="8.362470">
<ele>611.0</ele>
<time>2003-07-20T11:45:02Z</time>
<speed>1.4</speed>
</trkpt>
<trkpt lat="47.599624" lon="8.362361">
<ele>611.6</ele>
<time>2003-07-20T11:45:07Z</time>
<speed>1.4</speed>
</trkpt>
<trkpt lat="47.599619" lon="8.362253">
<ele>610.7</ele>
<time>2003-07-20T11:45:12Z</time>
<speed>1.4</speed>
</trkpt>
<trkpt lat="47.599626" lon="8.362146">
<ele>611.3</ele>
<time>2003-07-20T11:45:17Z</time>
<speed>1.4</speed>
</trkpt>
<trkpt lat="47.599627" lon="8.362052">
<ele>611.3</ele>
<time>2003-07-20T11:45:22Z</time>
<speed>1.4</speed>
</trkpt>
<trkpt lat="47.599640" lon="8.361947">
<ele>611.3</ele>
<time>2003-07-20T11:45:27Z</time>
<speed>1.4</speed>
</trkpt>
<trkpt lat="47.599660" lon="8.361842">
<ele>612.0</ele>
<time>2003-07-20T11:45:32Z</time>
<speed>1.4</speed>
</trkpt>
<trkpt lat="47.599673" lon="8.361750">
<ele>612.0</ele>
<time>2003-07-20T11:45:37Z</time>
<speed>1.4</speed>
</trkpt>
<trkpt lat="47.599687" lon="8.361644">
<ele>612.0</ele>
<time>2003-07-20T11:45:42Z</time>
<speed>1.4</speed>
</trkpt>
<trkpt lat="47.599700" lon="8.361552">
<ele>612.0</ele>
<time>2003-07-20T11:45:47Z</time>
<speed>1.4</speed>
</trkpt>
<trkpt lat="47.599713" lon="8.361460">
<ele>612.1</ele>
<time>2003-07-20T11:45:52Z</time>
<speed>1.4</speed>
</trkpt>
<trkpt lat="47.599720" lon="8.361353">
<ele>612.7</ele>
<time>2003-07-20T11:45:57Z</time>
<speed>1.4</speed>
</trkpt>
<trkpt lat="47.599733" lon="8.361261">
<ele>612.7</ele>
<time>2003-07-20T11:46:02Z</time>
<speed>1.4</speed>
</trkpt>
<trkpt lat="47.599746" lon="8.361156">
<ele>612.7</ele>
<time>2003-07-20T11:46:07Z</time>
<speed>1.4</speed>
</trkpt>
<trkpt lat="47.599759" lon="8.361064">
<ele>612.7</ele>
<time>2003-07-20T11:46:12Z</time>
<speed>1.4</speed>
</trkpt>
<trkpt lat="47.599773" lon="8.360958">
<ele>612.7</ele>
<time>2003-07-20T11:46:17Z</time>
<speed>1.4</speed>
</trkpt>
<trkpt lat="47.599787" lon="8.360853">
<ele>612.7</ele>
<time>2003-07-20T11:46:22Z</time>
<speed>1.4</speed>
</trkpt>
<trkpt lat="47.599794" lon="8.360761">
<ele>612.0</ele>
<time>2003-07-20T11:46:27Z</time>
<speed>1.4</speed>
</trkpt>
<trkpt lat="47.599821" lon="8.360645">
<ele>611.9</ele>
<time>2003-07-20T11:46:33Z</time>
<speed>1.4</speed>
</trkpt>
<trkpt lat="47.599859" lon="8.360556">
<ele>612.1</ele>
<time>2003-07-20T11:46:38Z</time>
<speed>1.4</speed>
</trkpt>
<trkpt lat="47.599897" lon="8.360483">
<ele>611.0</ele>
<time>2003-07-20T11:46:43Z</time>
<speed>1.4</speed>
</trkpt>
<trkpt lat="47.599947" lon="8.360412">
<ele>609.9</ele>
<time>2003-07-20T11:46:48Z</time>
<speed>1.4</speed>
</trkpt>
<trkpt lat="47.600003" lon="8.360356">
<ele>608.3</ele>
<time>2003-07-20T11:46:53Z</time>
<speed>1.4</speed>
</trkpt>
<trkpt lat="47.600053" lon="8.360300">
<ele>606.0</ele>
<time>2003-07-20T11:46:58Z</time>
<speed>1.4</speed>
</trkpt>
<trkpt lat="47.600090" lon="8.360227">
<ele>604.9</ele>
<time>2003-07-20T11:47:03Z</time>
<speed>1.1</speed>
</trkpt>
<trkpt lat="47.600146" lon="8.360171">
<ele>603.3</ele>
<time>2003-07-20T11:47:08Z</time>
<speed>1.4</speed>
</trkpt>
<trkpt lat="47.600201" lon="8.360113">
<ele>603.0</ele>
<time>2003-07-20T11:47:13Z</time>
<speed>1.4</speed>
</trkpt>
<trkpt lat="47.600250" lon="8.360068">
<ele>602.2</ele>
<time>2003-07-20T11:47:18Z</time>
<speed>1.4</speed>
</trkpt>
<trkpt lat="47.600258" lon="8.360043">
<ele>601.3</ele>
<time>2003-07-20T11:47:23Z</time>
<speed>0.0</speed>
</trkpt>
<trkpt lat="47.600258" lon="8.360043">
<ele>601.3</ele>
<time>2003-07-20T11:47:28Z</time>
<speed>0.0</speed>
</trkpt>
<trkpt lat="47.600272" lon="8.360032">
<ele>601.3</ele>
<time>2003-07-20T11:47:33Z</time>
<speed>0.3</speed>
</trkpt>
<trkpt lat="47.600314" lon="8.359985">
<ele>601.1</ele>
<time>2003-07-20T11:47:38Z</time>
<speed>1.4</speed>
</trkpt>
<trkpt lat="47.600369" lon="8.359927">
<ele>600.9</ele>
<time>2003-07-20T11:47:43Z</time>
<speed>1.4</speed>
</trkpt>
<trkpt lat="47.600423" lon="8.359882">
<ele>600.8</ele>
<time>2003-07-20T11:47:48Z</time>
<speed>1.4</speed>
</trkpt>
<trkpt lat="47.600479" lon="8.359824">
<ele>600.6</ele>
<time>2003-07-20T11:47:53Z</time>
<speed>1.4</speed>
</trkpt>
<trkpt lat="47.600534" lon="8.359766">
<ele>600.4</ele>
<time>2003-07-20T11:47:58Z</time>
<speed>1.4</speed>
</trkpt>
<trkpt lat="47.600595" lon="8.359723">
<ele>599.6</ele>
<time>2003-07-20T11:48:03Z</time>
<speed>1.1</speed>
</trkpt>
<trkpt lat="47.600644" lon="8.359665">
<ele>598.7</ele>
<time>2003-07-20T11:48:08Z</time>
<speed>1.4</speed>
</trkpt>
<trkpt lat="47.600651" lon="8.359652">
<ele>599.3</ele>
<time>2003-07-20T11:48:13Z</time>
<speed>0.0</speed>
</trkpt>
<trkpt lat="47.600651" lon="8.359652">
<ele>599.3</ele>
<time>2003-07-20T11:48:18Z</time>
<speed>0.3</speed>
</trkpt>
<trkpt lat="47.600666" lon="8.359628">
<ele>599.2</ele>
<time>2003-07-20T11:48:23Z</time>
<speed>0.0</speed>
</trkpt>
<trkpt lat="47.600701" lon="8.359579">
<ele>599.7</ele>
<time>2003-07-20T11:48:28Z</time>
<speed>1.1</speed>
</trkpt>
<trkpt lat="47.600745" lon="8.359506">
<ele>599.3</ele>
<time>2003-07-20T11:48:33Z</time>
<speed>1.4</speed>
</trkpt>
<trkpt lat="47.600802" lon="8.359421">
<ele>598.9</ele>
<time>2003-07-20T11:48:38Z</time>
<speed>1.4</speed>
</trkpt>
<trkpt lat="47.600858" lon="8.359363">
<ele>598.7</ele>
<time>2003-07-20T11:48:43Z</time>
<speed>1.1</speed>
</trkpt>
<trkpt lat="47.600901" lon="8.359290">
<ele>598.3</ele>
<time>2003-07-20T11:48:48Z</time>
<speed>1.1</speed>
</trkpt>
<trkpt lat="47.600945" lon="8.359202">
<ele>599.3</ele>
<time>2003-07-20T11:48:53Z</time>
<speed>1.1</speed>
</trkpt>
<trkpt lat="47.600977" lon="8.359127">
<ele>598.8</ele>
<time>2003-07-20T11:48:58Z</time>
<speed>0.8</speed>
</trkpt>
<trkpt lat="47.600996" lon="8.359037">
<ele>598.2</ele>
<time>2003-07-20T11:49:03Z</time>
<speed>1.1</speed>
</trkpt>
<trkpt lat="47.601026" lon="8.358975">
<ele>597.9</ele>
<time>2003-07-20T11:49:08Z</time>
<speed>0.6</speed>
</trkpt>
<trkpt lat="47.601047" lon="8.358952">
<ele>597.1</ele>
<time>2003-07-20T11:49:13Z</time>
<speed>0.0</speed>
</trkpt>
<trkpt lat="47.601047" lon="8.358952">
<ele>597.1</ele>
<time>2003-07-20T11:49:18Z</time>
<speed>0.0</speed>
</trkpt>
<trkpt lat="47.601046" lon="8.358966">
<ele>597.2</ele>
<time>2003-07-20T11:49:23Z</time>
<speed>0.0</speed>
</trkpt>
<trkpt lat="47.601054" lon="8.358954">
<ele>596.4</ele>
<time>2003-07-20T11:49:28Z</time>
<speed>0.0</speed>
</trkpt>
<trkpt lat="47.601054" lon="8.358954">
<ele>596.4</ele>
<time>2003-07-20T11:49:33Z</time>
<speed>0.0</speed>
</trkpt>
<trkpt lat="47.601054" lon="8.358954">
<ele>596.4</ele>
<time>2003-07-20T11:49:38Z</time>
<speed>0.0</speed>
</trkpt>
<trkpt lat="47.601054" lon="8.358954">
<ele>596.4</ele>
<time>2003-07-20T11:49:43Z</time>
<speed>0.0</speed>
</trkpt>
<trkpt lat="47.601054" lon="8.358954">
<ele>596.4</ele>
<time>2003-07-20T11:49:48Z</time>
<speed>0.0</speed>
</trkpt>
<trkpt lat="47.601054" lon="8.358954">
<ele>596.4</ele>
<time>2003-07-20T11:49:53Z</time>
<speed>0.0</speed>
</trkpt>
<trkpt lat="47.601054" lon="8.358954">
<ele>596.4</ele>
<time>2003-07-20T11:49:58Z</time>
<speed>0.0</speed>
</trkpt>
<trkpt lat="47.601054" lon="8.358954">
<ele>596.4</ele>
<time>2003-07-20T11:50:03Z</time>
<speed>0.0</speed>
</trkpt>
<trkpt lat="47.601054" lon="8.358954">
<ele>596.4</ele>
<time>2003-07-20T11:50:08Z</time>
<speed>0.0</speed>
</trkpt>
<trkpt lat="47.601054" lon="8.358954">
<ele>596.4</ele>
<time>2003-07-20T11:50:13Z</time>
<speed>0.0</speed>
</trkpt>
<trkpt lat="47.601054" lon="8.358954">
<ele>596.4</ele>
<time>2003-07-20T11:50:18Z</time>
<speed>0.0</speed>
</trkpt>
<trkpt lat="47.601054" lon="8.358954">
<ele>596.4</ele>
<time>2003-07-20T11:50:23Z</time>
<speed>0.0</speed>
</trkpt>
<trkpt lat="47.601054" lon="8.358954">
<ele>596.4</ele>
<time>2003-07-20T11:50:28Z</time>
<speed>0.0</speed>
</trkpt>
<trkpt lat="47.601054" lon="8.358954">
<ele>596.4</ele>
<time>2003-07-20T11:50:33Z</time>
<speed>0.0</speed>
</trkpt>
<trkpt lat="47.601060" lon="8.358956">
<ele>595.7</ele>
<time>2003-07-20T11:50:39Z</time>
<speed>0.0</speed>
</trkpt>
<trkpt lat="47.601060" lon="8.358956">
<ele>595.7</ele>
<time>2003-07-20T11:50:44Z</time>
<speed>0.0</speed>
</trkpt>
<trkpt lat="47.601059" lon="8.358970">
<ele>595.8</ele>
<time>2003-07-20T11:50:49Z</time>
<speed>0.0</speed>
</trkpt>
<trkpt lat="47.601050" lon="8.358928">
<ele>595.5</ele>
<time>2003-07-20T11:50:54Z</time>
<speed>0.0</speed>
</trkpt>
<trkpt lat="47.601050" lon="8.358928">
<ele>595.5</ele>
<time>2003-07-20T11:50:59Z</time>
<speed>0.0</speed>
</trkpt>
<trkpt lat="47.601043" lon="8.358941">
<ele>594.8</ele>
<time>2003-07-20T11:51:04Z</time>
<speed>0.0</speed>
</trkpt>
<trkpt lat="47.601043" lon="8.358941">
<ele>594.8</ele>
<time>2003-07-20T11:51:09Z</time>
<speed>0.0</speed>
</trkpt>
<trkpt lat="47.601035" lon="8.358952">
<ele>595.6</ele>
<time>2003-07-20T11:51:14Z</time>
<speed>0.8</speed>
</trkpt>
<trkpt lat="47.600999" lon="8.359014">
<ele>595.2</ele>
<time>2003-07-20T11:51:19Z</time>
<speed>0.6</speed>
</trkpt>
<trkpt lat="47.601003" lon="8.359041">
<ele>596.1</ele>
<time>2003-07-20T11:51:24Z</time>
<speed>0.8</speed>
</trkpt>
<trkpt lat="47.601000" lon="8.359080">
<ele>596.4</ele>
<time>2003-07-20T11:51:29Z</time>
<speed>0.0</speed>
</trkpt>
<trkpt lat="47.601000" lon="8.359080">
<ele>596.4</ele>
<time>2003-07-20T11:51:34Z</time>
<speed>0.0</speed>
</trkpt>
<trkpt lat="47.600973" lon="8.359103">
<ele>596.5</ele>
<time>2003-07-20T11:51:39Z</time>
<speed>0.8</speed>
</trkpt>
<trkpt lat="47.600931" lon="8.359165">
<ele>595.4</ele>
<time>2003-07-20T11:51:44Z</time>
<speed>1.1</speed>
</trkpt>
<trkpt lat="47.600894" lon="8.359240">
<ele>595.1</ele>
<time>2003-07-20T11:51:49Z</time>
<speed>1.1</speed>
</trkpt>
<trkpt lat="47.600844" lon="8.359298">
<ele>596.0</ele>
<time>2003-07-20T11:51:54Z</time>
<speed>1.4</speed>
</trkpt>
<trkpt lat="47.600776" lon="8.359354">
<ele>596.2</ele>
<time>2003-07-20T11:51:59Z</time>
<speed>1.1</speed>
</trkpt>
<trkpt lat="47.600713" lon="8.359423">
<ele>597.1</ele>
<time>2003-07-20T11:52:04Z</time>
<speed>1.4</speed>
</trkpt>
<trkpt lat="47.600658" lon="8.359481">
<ele>597.3</ele>
<time>2003-07-20T11:52:09Z</time>
<speed>1.4</speed>
</trkpt>
<trkpt lat="47.600596" lon="8.359537">
<ele>598.2</ele>
<time>2003-07-20T11:52:14Z</time>
<speed>1.4</speed>
</trkpt>
<trkpt lat="47.600534" lon="8.359608">
<ele>597.8</ele>
<time>2003-07-20T11:52:19Z</time>
<speed>1.4</speed>
</trkpt>
<trkpt lat="47.600478" lon="8.359666">
<ele>598.0</ele>
<time>2003-07-20T11:52:24Z</time>
<speed>1.1</speed>
</trkpt>
<trkpt lat="47.600442" lon="8.359728">
<ele>597.6</ele>
<time>2003-07-20T11:52:29Z</time>
<speed>1.1</speed>
</trkpt>
<trkpt lat="47.600387" lon="8.359786">
<ele>597.8</ele>
<time>2003-07-20T11:52:34Z</time>
<speed>1.1</speed>
</trkpt>
<trkpt lat="47.600325" lon="8.359842">
<ele>598.7</ele>
<time>2003-07-20T11:52:39Z</time>
<speed>1.4</speed>
</trkpt>
<trkpt lat="47.600276" lon="8.359902">
<ele>598.2</ele>
<time>2003-07-20T11:52:44Z</time>
<speed>1.1</speed>
</trkpt>
<trkpt lat="47.600241" lon="8.359951">
<ele>597.7</ele>
<time>2003-07-20T11:52:49Z</time>
<speed>0.8</speed>
</trkpt>
<trkpt lat="47.600207" lon="8.359987">
<ele>597.1</ele>
<time>2003-07-20T11:52:54Z</time>
<speed>0.8</speed>
</trkpt>
<trkpt lat="47.600151" lon="8.360045">
<ele>597.3</ele>
<time>2003-07-20T11:52:59Z</time>
<speed>1.1</speed>
</trkpt>
<trkpt lat="47.600103" lon="8.360090">
<ele>598.2</ele>
<time>2003-07-20T11:53:04Z</time>
<speed>1.1</speed>
</trkpt>
<trkpt lat="47.600061" lon="8.360137">
<ele>598.3</ele>
<time>2003-07-20T11:53:09Z</time>
<speed>1.1</speed>
</trkpt>
<trkpt lat="47.600018" lon="8.360197">
<ele>598.6</ele>
<time>2003-07-20T11:53:14Z</time>
<speed>1.1</speed>
</trkpt>
<trkpt lat="47.599976" lon="8.360241">
<ele>600.2</ele>
<time>2003-07-20T11:53:19Z</time>
<speed>0.8</speed>
</trkpt>
<trkpt lat="47.599935" lon="8.360275">
<ele>600.3</ele>
<time>2003-07-20T11:53:24Z</time>
<speed>0.8</speed>
</trkpt>
<trkpt lat="47.599899" lon="8.360335">
<ele>601.3</ele>
<time>2003-07-20T11:53:29Z</time>
<speed>0.8</speed>
</trkpt>
<trkpt lat="47.599869" lon="8.360384">
<ele>601.5</ele>
<time>2003-07-20T11:53:34Z</time>
<speed>1.1</speed>
</trkpt>
<trkpt lat="47.599820" lon="8.360442">
<ele>602.5</ele>
<time>2003-07-20T11:53:39Z</time>
<speed>1.1</speed>
</trkpt>
<trkpt lat="47.599789" lon="8.360517">
<ele>602.9</ele>
<time>2003-07-20T11:53:44Z</time>
<speed>1.1</speed>
</trkpt>
<trkpt lat="47.599759" lon="8.360579">
<ele>603.3</ele>
<time>2003-07-20T11:53:49Z</time>
<speed>0.8</speed>
</trkpt>
<trkpt lat="47.599741" lon="8.360656">
<ele>603.8</ele>
<time>2003-07-20T11:53:54Z</time>
<speed>1.1</speed>
</trkpt>
<trkpt lat="47.599728" lon="8.360748">
<ele>603.7</ele>
<time>2003-07-20T11:53:59Z</time>
<speed>1.1</speed>
</trkpt>
<trkpt lat="47.599722" lon="8.360827">
<ele>604.3</ele>
<time>2003-07-20T11:54:04Z</time>
<speed>1.1</speed>
</trkpt>
<trkpt lat="47.599722" lon="8.360921">
<ele>604.4</ele>
<time>2003-07-20T11:54:09Z</time>
<speed>1.1</speed>
</trkpt>
<trkpt lat="47.599715" lon="8.361013">
<ele>605.0</ele>
<time>2003-07-20T11:54:14Z</time>
<speed>1.1</speed>
</trkpt>
<trkpt lat="47.599708" lon="8.361105">
<ele>605.7</ele>
<time>2003-07-20T11:54:19Z</time>
<speed>1.1</speed>
</trkpt>
<trkpt lat="47.599702" lon="8.361184">
<ele>606.3</ele>
<time>2003-07-20T11:54:24Z</time>
<speed>1.1</speed>
</trkpt>
<trkpt lat="47.599696" lon="8.361278">
<ele>605.6</ele>
<time>2003-07-20T11:54:29Z</time>
<speed>1.1</speed>
</trkpt>
<trkpt lat="47.599683" lon="8.361370">
<ele>605.5</ele>
<time>2003-07-20T11:54:34Z</time>
<speed>1.1</speed>
</trkpt>
<trkpt lat="47.599683" lon="8.361464">
<ele>605.6</ele>
<time>2003-07-20T11:54:39Z</time>
<speed>1.1</speed>
</trkpt>
<trkpt lat="47.599678" lon="8.361545">
<ele>604.7</ele>
<time>2003-07-20T11:54:44Z</time>
<speed>1.4</speed>
</trkpt>
<trkpt lat="47.599672" lon="8.361639">
<ele>604.0</ele>
<time>2003-07-20T11:54:49Z</time>
<speed>1.1</speed>
</trkpt>
<trkpt lat="47.599665" lon="8.361731">
<ele>604.7</ele>
<time>2003-07-20T11:54:54Z</time>
<speed>1.4</speed>
</trkpt>
<trkpt lat="47.599651" lon="8.361836">
<ele>604.8</ele>
<time>2003-07-20T11:54:59Z</time>
<speed>1.4</speed>
</trkpt>
<trkpt lat="47.599644" lon="8.361928">
<ele>605.4</ele>
<time>2003-07-20T11:55:04Z</time>
<speed>1.4</speed>
</trkpt>
<trkpt lat="47.599625" lon="8.362019">
<ele>606.1</ele>
<time>2003-07-20T11:55:09Z</time>
<speed>1.1</speed>
</trkpt>
<trkpt lat="47.599625" lon="8.362113">
<ele>606.1</ele>
<time>2003-07-20T11:55:14Z</time>
<speed>1.1</speed>
</trkpt>
<trkpt lat="47.599619" lon="8.362207">
<ele>605.4</ele>
<time>2003-07-20T11:55:19Z</time>
<speed>1.4</speed>
</trkpt>
<trkpt lat="47.599612" lon="8.362299">
<ele>606.0</ele>
<time>2003-07-20T11:55:24Z</time>
<speed>1.4</speed>
</trkpt>
<trkpt lat="47.599612" lon="8.362393">
<ele>606.1</ele>
<time>2003-07-20T11:55:29Z</time>
<speed>1.1</speed>
</trkpt>
<trkpt lat="47.599617" lon="8.362487">
<ele>606.8</ele>
<time>2003-07-20T11:55:34Z</time>
<speed>1.4</speed>
</trkpt>
<trkpt lat="47.599623" lon="8.362581">
<ele>607.6</ele>
<time>2003-07-20T11:55:39Z</time>
<speed>1.4</speed>
</trkpt>
<trkpt lat="47.599624" lon="8.362662">
<ele>607.5</ele>
<time>2003-07-20T11:55:44Z</time>
<speed>1.1</speed>
</trkpt>
<trkpt lat="47.599630" lon="8.362756">
<ele>608.3</ele>
<time>2003-07-20T11:55:49Z</time>
<speed>1.1</speed>
</trkpt>
<trkpt lat="47.599635" lon="8.362863">
<ele>609.1</ele>
<time>2003-07-20T11:55:54Z</time>
<speed>1.1</speed>
</trkpt>
<trkpt lat="47.599636" lon="8.362944">
<ele>609.0</ele>
<time>2003-07-20T11:55:59Z</time>
<speed>1.1</speed>
</trkpt>
<trkpt lat="47.599642" lon="8.363038">
<ele>609.8</ele>
<time>2003-07-20T11:56:04Z</time>
<speed>1.1</speed>
</trkpt>
<trkpt lat="47.599647" lon="8.363132">
<ele>610.6</ele>
<time>2003-07-20T11:56:09Z</time>
<speed>1.1</speed>
</trkpt>
<trkpt lat="47.599647" lon="8.363226">
<ele>610.6</ele>
<time>2003-07-20T11:56:14Z</time>
<speed>1.4</speed>
</trkpt>
<trkpt lat="47.599648" lon="8.363307">
<ele>610.5</ele>
<time>2003-07-20T11:56:19Z</time>
<speed>0.8</speed>
</trkpt>
<trkpt lat="47.599647" lon="8.363414">
<ele>610.6</ele>
<time>2003-07-20T11:56:24Z</time>
<speed>1.4</speed>
</trkpt>
<trkpt lat="47.599660" lon="8.363495">
<ele>612.0</ele>
<time>2003-07-20T11:56:29Z</time>
<speed>1.1</speed>
</trkpt>
<trkpt lat="47.599666" lon="8.363589">
<ele>612.8</ele>
<time>2003-07-20T11:56:34Z</time>
<speed>1.1</speed>
</trkpt>
<trkpt lat="47.599684" lon="8.363683">
<ele>615.0</ele>
<time>2003-07-20T11:56:39Z</time>
<speed>1.1</speed>
</trkpt>
<trkpt lat="47.599690" lon="8.363764">
<ele>615.7</ele>
<time>2003-07-20T11:56:44Z</time>
<speed>1.1</speed>
</trkpt>
<trkpt lat="47.599716" lon="8.363848">
<ele>615.7</ele>
<time>2003-07-20T11:56:49Z</time>
<speed>1.1</speed>
</trkpt>
<trkpt lat="47.599729" lon="8.363944">
<ele>615.8</ele>
<time>2003-07-20T11:56:54Z</time>
<speed>1.1</speed>
</trkpt>
<trkpt lat="47.599749" lon="8.364029">
<ele>615.1</ele>
<time>2003-07-20T11:56:59Z</time>
<speed>1.1</speed>
</trkpt>
<trkpt lat="47.599776" lon="8.364101">
<ele>615.1</ele>
<time>2003-07-20T11:57:04Z</time>
<speed>1.1</speed>
</trkpt>
<trkpt lat="47.599788" lon="8.364196">
<ele>615.2</ele>
<time>2003-07-20T11:57:09Z</time>
<speed>1.1</speed>
</trkpt>
<trkpt lat="47.599822" lon="8.364270">
<ele>614.5</ele>
<time>2003-07-20T11:57:14Z</time>
<speed>1.1</speed>
</trkpt>
<trkpt lat="47.599841" lon="8.364353">
<ele>615.2</ele>
<time>2003-07-20T11:57:19Z</time>
<speed>1.1</speed>
</trkpt>
<trkpt lat="47.599867" lon="8.364438">
<ele>615.3</ele>
<time>2003-07-20T11:57:24Z</time>
<speed>1.1</speed>
</trkpt>
<trkpt lat="47.599881" lon="8.364520">
<ele>615.3</ele>
<time>2003-07-20T11:57:29Z</time>
<speed>1.1</speed>
</trkpt>
<trkpt lat="47.599893" lon="8.364616">
<ele>615.4</ele>
<time>2003-07-20T11:57:34Z</time>
<speed>1.1</speed>
</trkpt>
<trkpt lat="47.599907" lon="8.364699">
<ele>615.4</ele>
<time>2003-07-20T11:57:39Z</time>
<speed>0.8</speed>
</trkpt>
<trkpt lat="47.599929" lon="8.364758">
<ele>614.5</ele>
<time>2003-07-20T11:57:44Z</time>
<speed>0.0</speed>
</trkpt>
<trkpt lat="47.599927" lon="8.364784">
<ele>614.7</ele>
<time>2003-07-20T11:57:49Z</time>
<speed>1.1</speed>
</trkpt>
<trkpt lat="47.599914" lon="8.364876">
<ele>614.6</ele>
<time>2003-07-20T11:57:54Z</time>
<speed>1.1</speed>
</trkpt>
<trkpt lat="47.599901" lon="8.364968">
<ele>614.6</ele>
<time>2003-07-20T11:57:59Z</time>
<speed>1.4</speed>
</trkpt>
<trkpt lat="47.599876" lon="8.365058">
<ele>614.5</ele>
<time>2003-07-20T11:58:04Z</time>
<speed>1.1</speed>
</trkpt>
<trkpt lat="47.599869" lon="8.365152">
<ele>613.8</ele>
<time>2003-07-20T11:58:09Z</time>
<speed>1.1</speed>
</trkpt>
<trkpt lat="47.599863" lon="8.365244">
<ele>614.4</ele>
<time>2003-07-20T11:58:14Z</time>
<speed>1.1</speed>
</trkpt>
<trkpt lat="47.599856" lon="8.365338">
<ele>613.7</ele>
<time>2003-07-20T11:58:19Z</time>
<speed>1.1</speed>
</trkpt>
<trkpt lat="47.599838" lon="8.365417">
<ele>612.8</ele>
<time>2003-07-20T11:58:24Z</time>
<speed>1.1</speed>
</trkpt>
<trkpt lat="47.599832" lon="8.365509">
<ele>613.5</ele>
<time>2003-07-20T11:58:29Z</time>
<speed>1.1</speed>
</trkpt>
<trkpt lat="47.599811" lon="8.365613">
<ele>614.2</ele>
<time>2003-07-20T11:58:34Z</time>
<speed>1.1</speed>
</trkpt>
<trkpt lat="47.599797" lon="8.365718">
<ele>614.3</ele>
<time>2003-07-20T11:58:39Z</time>
<speed>1.4</speed>
</trkpt>
<trkpt lat="47.599784" lon="8.365808">
<ele>615.6</ele>
<time>2003-07-20T11:58:44Z</time>
<speed>1.4</speed>
</trkpt>
<trkpt lat="47.599770" lon="8.365913">
<ele>615.7</ele>
<time>2003-07-20T11:58:49Z</time>
<speed>1.4</speed>
</trkpt>
<trkpt lat="47.599771" lon="8.365994">
<ele>615.6</ele>
<time>2003-07-20T11:58:54Z</time>
<speed>1.1</speed>
</trkpt>
<trkpt lat="47.599787" lon="8.366052">
<ele>614.0</ele>
<time>2003-07-20T11:58:59Z</time>
<speed>0.6</speed>
</trkpt>
<trkpt lat="47.599789" lon="8.366120">
<ele>613.8</ele>
<time>2003-07-20T11:59:04Z</time>
<speed>0.6</speed>
</trkpt>
<trkpt lat="47.599802" lon="8.366203">
<ele>613.8</ele>
<time>2003-07-20T11:59:09Z</time>
<speed>0.8</speed>
</trkpt>
<trkpt lat="47.599803" lon="8.366284">
<ele>613.7</ele>
<time>2003-07-20T11:59:14Z</time>
<speed>0.8</speed>
</trkpt>
<trkpt lat="47.599816" lon="8.366365">
<ele>615.1</ele>
<time>2003-07-20T11:59:19Z</time>
<speed>0.8</speed>
</trkpt>
<trkpt lat="47.599822" lon="8.366459">
<ele>615.9</ele>
<time>2003-07-20T11:59:24Z</time>
<speed>0.8</speed>
</trkpt>
<trkpt lat="47.599801" lon="8.366562">
<ele>616.6</ele>
<time>2003-07-20T11:59:29Z</time>
<speed>1.1</speed>
</trkpt>
<trkpt lat="47.599787" lon="8.366665">
<ele>618.1</ele>
<time>2003-07-20T11:59:34Z</time>
<speed>1.1</speed>
</trkpt>
<trkpt lat="47.599774" lon="8.366757">
<ele>618.0</ele>
<time>2003-07-20T11:59:39Z</time>
<speed>1.1</speed>
</trkpt>
<trkpt lat="47.599760" lon="8.366863">
<ele>618.0</ele>
<time>2003-07-20T11:59:44Z</time>
<speed>1.1</speed>
</trkpt>
<trkpt lat="47.599741" lon="8.366953">
<ele>618.7</ele>
<time>2003-07-20T11:59:49Z</time>
<speed>1.4</speed>
</trkpt>
<trkpt lat="47.599722" lon="8.367043">
<ele>619.3</ele>
<time>2003-07-20T11:59:54Z</time>
<speed>1.4</speed>
</trkpt>
<trkpt lat="47.599725" lon="8.367163">
<ele>620.2</ele>
<time>2003-07-20T11:59:59Z</time>
<speed>1.4</speed>
</trkpt>
<trkpt lat="47.599720" lon="8.367242">
<ele>620.8</ele>
<time>2003-07-20T12:00:04Z</time>
<speed>1.1</speed>
</trkpt>
<trkpt lat="47.599713" lon="8.367334">
<ele>621.5</ele>
<time>2003-07-20T12:00:09Z</time>
<speed>1.1</speed>
</trkpt>
<trkpt lat="47.599694" lon="8.367424">
<ele>622.1</ele>
<time>2003-07-20T12:00:14Z</time>
<speed>1.4</speed>
</trkpt>
<trkpt lat="47.599680" lon="8.367515">
<ele>623.5</ele>
<time>2003-07-20T12:00:19Z</time>
<speed>1.1</speed>
</trkpt>
<trkpt lat="47.599693" lon="8.367611">
<ele>623.6</ele>
<time>2003-07-20T12:00:24Z</time>
<speed>1.1</speed>
</trkpt>
<trkpt lat="47.599714" lon="8.367667">
<ele>624.1</ele>
<time>2003-07-20T12:00:29Z</time>
<speed>0.6</speed>
</trkpt>
<trkpt lat="47.599728" lon="8.367737">
<ele>624.0</ele>
<time>2003-07-20T12:00:34Z</time>
<speed>0.6</speed>
</trkpt>
<trkpt lat="47.599756" lon="8.367795">
<ele>623.9</ele>
<time>2003-07-20T12:00:39Z</time>
<speed>0.6</speed>
</trkpt>
<trkpt lat="47.599763" lon="8.367876">
<ele>624.5</ele>
<time>2003-07-20T12:00:44Z</time>
<speed>0.6</speed>
</trkpt>
<trkpt lat="47.599758" lon="8.367957">
<ele>623.7</ele>
<time>2003-07-20T12:00:49Z</time>
<speed>0.6</speed>
</trkpt>
<trkpt lat="47.599757" lon="8.368066">
<ele>622.4</ele>
<time>2003-07-20T12:00:54Z</time>
<speed>0.8</speed>
</trkpt>
<trkpt lat="47.599764" lon="8.368147">
<ele>623.1</ele>
<time>2003-07-20T12:00:59Z</time>
<speed>0.8</speed>
</trkpt>
<trkpt lat="47.599763" lon="8.368239">
<ele>624.5</ele>
<time>2003-07-20T12:01:04Z</time>
<speed>0.6</speed>
</trkpt>
<trkpt lat="47.599770" lon="8.368320">
<ele>625.2</ele>
<time>2003-07-20T12:01:09Z</time>
<speed>0.8</speed>
</trkpt>
<trkpt lat="47.599778" lon="8.368403">
<ele>624.4</ele>
<time>2003-07-20T12:01:14Z</time>
<speed>0.8</speed>
</trkpt>
<trkpt lat="47.599784" lon="8.368482">
<ele>626.5</ele>
<time>2003-07-20T12:01:19Z</time>
<speed>0.8</speed>
</trkpt>
<trkpt lat="47.599778" lon="8.368560">
<ele>627.1</ele>
<time>2003-07-20T12:01:24Z</time>
<speed>0.8</speed>
</trkpt>
<trkpt lat="47.599771" lon="8.368653">
<ele>627.8</ele>
<time>2003-07-20T12:01:29Z</time>
<speed>1.1</speed>
</trkpt>
<trkpt lat="47.599751" lon="8.368741">
<ele>629.8</ele>
<time>2003-07-20T12:01:34Z</time>
<speed>1.1</speed>
</trkpt>
<trkpt lat="47.599738" lon="8.368829">
<ele>632.5</ele>
<time>2003-07-20T12:01:39Z</time>
<speed>1.1</speed>
</trkpt>
<trkpt lat="47.599711" lon="8.368915">
<ele>635.2</ele>
<time>2003-07-20T12:01:44Z</time>
<speed>1.1</speed>
</trkpt>
<trkpt lat="47.599710" lon="8.369007">
<ele>636.7</ele>
<time>2003-07-20T12:01:49Z</time>
<speed>1.1</speed>
</trkpt>
<trkpt lat="47.599710" lon="8.369099">
<ele>638.1</ele>
<time>2003-07-20T12:01:54Z</time>
<speed>1.1</speed>
</trkpt>
<trkpt lat="47.599690" lon="8.369188">
<ele>640.1</ele>
<time>2003-07-20T12:01:59Z</time>
<speed>1.4</speed>
</trkpt>
<trkpt lat="47.599670" lon="8.369278">
<ele>640.7</ele>
<time>2003-07-20T12:02:04Z</time>
<speed>1.1</speed>
</trkpt>
<trkpt lat="47.599665" lon="8.369357">
<ele>641.3</ele>
<time>2003-07-20T12:02:09Z</time>
<speed>1.1</speed>
</trkpt>
<trkpt lat="47.599658" lon="8.369449">
<ele>642.0</ele>
<time>2003-07-20T12:02:14Z</time>
<speed>1.1</speed>
</trkpt>
<trkpt lat="47.599670" lon="8.369545">
<ele>642.1</ele>
<time>2003-07-20T12:02:19Z</time>
<speed>1.1</speed>
</trkpt>
<trkpt lat="47.599677" lon="8.369626">
<ele>642.7</ele>
<time>2003-07-20T12:02:24Z</time>
<speed>1.1</speed>
</trkpt>
<trkpt lat="47.599691" lon="8.369708">
<ele>642.7</ele>
<time>2003-07-20T12:02:29Z</time>
<speed>0.8</speed>
</trkpt>
<trkpt lat="47.599691" lon="8.369789">
<ele>642.7</ele>
<time>2003-07-20T12:02:34Z</time>
<speed>0.8</speed>
</trkpt>
<trkpt lat="47.599698" lon="8.369870">
<ele>643.3</ele>
<time>2003-07-20T12:02:39Z</time>
<speed>1.1</speed>
</trkpt>
<trkpt lat="47.599719" lon="8.369940">
<ele>644.0</ele>
<time>2003-07-20T12:02:44Z</time>
<speed>0.8</speed>
</trkpt>
<trkpt lat="47.599713" lon="8.370019">
<ele>644.5</ele>
<time>2003-07-20T12:02:49Z</time>
<speed>1.1</speed>
</trkpt>
<trkpt lat="47.599720" lon="8.370100">
<ele>645.2</ele>
<time>2003-07-20T12:02:54Z</time>
<speed>1.1</speed>
</trkpt>
<trkpt lat="47.599726" lon="8.370196">
<ele>644.6</ele>
<time>2003-07-20T12:02:59Z</time>
<speed>0.8</speed>
</trkpt>
<trkpt lat="47.599726" lon="8.370274">
<ele>645.9</ele>
<time>2003-07-20T12:03:04Z</time>
<speed>0.8</speed>
</trkpt>
<trkpt lat="47.599752" lon="8.370359">
<ele>646.0</ele>
<time>2003-07-20T12:03:09Z</time>
<speed>1.1</speed>
</trkpt>
<trkpt lat="47.599766" lon="8.370427">
<ele>647.3</ele>
<time>2003-07-20T12:03:14Z</time>
<speed>0.8</speed>
</trkpt>
<trkpt lat="47.599793" lon="8.370498">
<ele>647.2</ele>
<time>2003-07-20T12:03:19Z</time>
<speed>0.8</speed>
</trkpt>
<trkpt lat="47.599808" lon="8.370568">
<ele>647.1</ele>
<time>2003-07-20T12:03:24Z</time>
<speed>0.8</speed>
</trkpt>
<trkpt lat="47.599814" lon="8.370664">
<ele>646.5</ele>
<time>2003-07-20T12:03:29Z</time>
<speed>0.8</speed>
</trkpt>
<trkpt lat="47.599816" lon="8.370732">
<ele>646.3</ele>
<time>2003-07-20T12:03:34Z</time>
<speed>0.8</speed>
</trkpt>
<trkpt lat="47.599818" lon="8.370801">
<ele>644.7</ele>
<time>2003-07-20T12:03:39Z</time>
<speed>0.8</speed>
</trkpt>
<trkpt lat="47.599820" lon="8.370886">
<ele>641.8</ele>
<time>2003-07-20T12:03:44Z</time>
<speed>0.8</speed>
</trkpt>
<trkpt lat="47.599807" lon="8.370978">
<ele>641.8</ele>
<time>2003-07-20T12:03:49Z</time>
<speed>1.1</speed>
</trkpt>
<trkpt lat="47.599801" lon="8.371072">
<ele>641.0</ele>
<time>2003-07-20T12:03:54Z</time>
<speed>1.1</speed>
</trkpt>
<trkpt lat="47.599799" lon="8.371179">
<ele>641.2</ele>
<time>2003-07-20T12:03:59Z</time>
<speed>1.1</speed>
</trkpt>
<trkpt lat="47.599794" lon="8.371258">
<ele>641.8</ele>
<time>2003-07-20T12:04:04Z</time>
<speed>1.1</speed>
</trkpt>
<trkpt lat="47.599787" lon="8.371350">
<ele>642.4</ele>
<time>2003-07-20T12:04:09Z</time>
<speed>0.8</speed>
</trkpt>
<trkpt lat="47.599790" lon="8.371390">
<ele>643.5</ele>
<time>2003-07-20T12:04:14Z</time>
<speed>0.0</speed>
</trkpt>
<trkpt lat="47.599790" lon="8.371390">
<ele>643.5</ele>
<time>2003-07-20T12:04:19Z</time>
<speed>0.0</speed>
</trkpt>
<trkpt lat="47.599800" lon="8.371431">
<ele>643.8</ele>
<time>2003-07-20T12:04:24Z</time>
<speed>0.8</speed>
</trkpt>
<trkpt lat="47.599795" lon="8.371497">
<ele>644.3</ele>
<time>2003-07-20T12:04:29Z</time>
<speed>1.1</speed>
</trkpt>
<trkpt lat="47.599775" lon="8.371587">
<ele>644.9</ele>
<time>2003-07-20T12:04:34Z</time>
<speed>1.1</speed>
</trkpt>
<trkpt lat="47.599776" lon="8.371668">
<ele>644.9</ele>
<time>2003-07-20T12:04:39Z</time>
<speed>1.4</speed>
</trkpt>
<trkpt lat="47.599782" lon="8.371762">
<ele>645.6</ele>
<time>2003-07-20T12:04:44Z</time>
<speed>1.1</speed>
</trkpt>
<trkpt lat="47.599770" lon="8.371841">
<ele>645.5</ele>
<time>2003-07-20T12:04:49Z</time>
<speed>1.1</speed>
</trkpt>
<trkpt lat="47.599771" lon="8.371920">
<ele>646.8</ele>
<time>2003-07-20T12:04:54Z</time>
<speed>1.1</speed>
</trkpt>
<trkpt lat="47.599769" lon="8.372027">
<ele>646.9</ele>
<time>2003-07-20T12:05:00Z</time>
<speed>1.1</speed>
</trkpt>
<trkpt lat="47.599770" lon="8.372106">
<ele>648.3</ele>
<time>2003-07-20T12:05:05Z</time>
<speed>1.1</speed>
</trkpt>
<trkpt lat="47.599776" lon="8.372187">
<ele>648.9</ele>
<time>2003-07-20T12:05:10Z</time>
<speed>1.1</speed>
</trkpt>
<trkpt lat="47.599782" lon="8.372281">
<ele>649.7</ele>
<time>2003-07-20T12:05:15Z</time>
<speed>1.1</speed>
</trkpt>
<trkpt lat="47.599770" lon="8.372360">
<ele>649.5</ele>
<time>2003-07-20T12:05:20Z</time>
<speed>1.1</speed>
</trkpt>
<trkpt lat="47.599770" lon="8.372452">
<ele>650.9</ele>
<time>2003-07-20T12:05:25Z</time>
<speed>1.1</speed>
</trkpt>
<trkpt lat="47.599769" lon="8.372544">
<ele>652.4</ele>
<time>2003-07-20T12:05:30Z</time>
<speed>1.1</speed>
</trkpt>
<trkpt lat="47.599762" lon="8.372636">
<ele>653.1</ele>
<time>2003-07-20T12:05:35Z</time>
<speed>1.1</speed>
</trkpt>
<trkpt lat="47.599768" lon="8.372730">
<ele>653.8</ele>
<time>2003-07-20T12:05:40Z</time>
<speed>1.1</speed>
</trkpt>
<trkpt lat="47.599775" lon="8.372811">
<ele>654.5</ele>
<time>2003-07-20T12:05:45Z</time>
<speed>1.4</speed>
</trkpt>
<trkpt lat="47.599801" lon="8.372896">
<ele>654.5</ele>
<time>2003-07-20T12:05:50Z</time>
<speed>1.1</speed>
</trkpt>
<trkpt lat="47.599821" lon="8.372963">
<ele>656.6</ele>
<time>2003-07-20T12:05:55Z</time>
<speed>1.1</speed>
</trkpt>
<trkpt lat="47.599854" lon="8.373037">
<ele>655.9</ele>
<time>2003-07-20T12:06:00Z</time>
<speed>0.8</speed>
</trkpt>
<trkpt lat="47.599870" lon="8.373093">
<ele>655.7</ele>
<time>2003-07-20T12:06:05Z</time>
<speed>0.8</speed>
</trkpt>
<trkpt lat="47.599890" lon="8.373178">
<ele>655.0</ele>
<time>2003-07-20T12:06:10Z</time>
<speed>0.8</speed>
</trkpt>
<trkpt lat="47.599900" lon="8.373220">
<ele>655.4</ele>
<time>2003-07-20T12:06:15Z</time>
<speed>0.6</speed>
</trkpt>
<trkpt lat="47.599927" lon="8.373291">
<ele>655.3</ele>
<time>2003-07-20T12:06:20Z</time>
<speed>0.6</speed>
</trkpt>
<trkpt lat="47.599940" lon="8.373374">
<ele>655.3</ele>
<time>2003-07-20T12:06:25Z</time>
<speed>0.6</speed>
</trkpt>
<trkpt lat="47.599953" lon="8.373457">
<ele>655.3</ele>
<time>2003-07-20T12:06:30Z</time>
<speed>0.8</speed>
</trkpt>
<trkpt lat="47.599947" lon="8.373551">
<ele>654.6</ele>
<time>2003-07-20T12:06:35Z</time>
<speed>0.8</speed>
</trkpt>
<trkpt lat="47.599941" lon="8.373630">
<ele>655.2</ele>
<time>2003-07-20T12:06:40Z</time>
<speed>0.6</speed>
</trkpt>
<trkpt lat="47.599954" lon="8.373711">
<ele>656.6</ele>
<time>2003-07-20T12:06:45Z</time>
<speed>0.8</speed>
</trkpt>
<trkpt lat="47.599968" lon="8.373793">
<ele>656.6</ele>
<time>2003-07-20T12:06:50Z</time>
<speed>0.8</speed>
</trkpt>
<trkpt lat="47.599998" lon="8.373906">
<ele>656.2</ele>
<time>2003-07-20T12:06:55Z</time>
<speed>0.8</speed>
</trkpt>
<trkpt lat="47.600025" lon="8.373978">
<ele>656.1</ele>
<time>2003-07-20T12:07:00Z</time>
<speed>0.8</speed>
</trkpt>
<trkpt lat="47.600057" lon="8.374078">
<ele>655.6</ele>
<time>2003-07-20T12:07:05Z</time>
<speed>0.8</speed>
</trkpt>
<trkpt lat="47.600063" lon="8.374172">
<ele>656.4</ele>
<time>2003-07-20T12:07:10Z</time>
<speed>0.8</speed>
</trkpt>
<trkpt lat="47.600082" lon="8.374255">
<ele>657.1</ele>
<time>2003-07-20T12:07:15Z</time>
<speed>0.8</speed>
</trkpt>
<trkpt lat="47.600096" lon="8.374339">
<ele>655.7</ele>
<time>2003-07-20T12:07:20Z</time>
<speed>0.8</speed>
</trkpt>
<trkpt lat="47.600135" lon="8.374426">
<ele>655.9</ele>
<time>2003-07-20T12:07:25Z</time>
<speed>0.8</speed>
</trkpt>
<trkpt lat="47.600155" lon="8.374496">
<ele>656.5</ele>
<time>2003-07-20T12:07:30Z</time>
<speed>0.6</speed>
</trkpt>
<trkpt lat="47.600176" lon="8.374565">
<ele>657.1</ele>
<time>2003-07-20T12:07:35Z</time>
<speed>0.8</speed>
</trkpt>
<trkpt lat="47.600209" lon="8.374639">
<ele>656.4</ele>
<time>2003-07-20T12:07:40Z</time>
<speed>0.6</speed>
</trkpt>
<trkpt lat="47.600229" lon="8.374722">
<ele>657.2</ele>
<time>2003-07-20T12:07:45Z</time>
<speed>0.6</speed>
</trkpt>
<trkpt lat="47.600262" lon="8.374793">
<ele>657.9</ele>
<time>2003-07-20T12:07:50Z</time>
<speed>0.8</speed>
</trkpt>
<trkpt lat="47.600281" lon="8.374876">
<ele>658.6</ele>
<time>2003-07-20T12:07:55Z</time>
<speed>0.8</speed>
</trkpt>
<trkpt lat="47.600293" lon="8.374970">
<ele>660.1</ele>
<time>2003-07-20T12:08:00Z</time>
<speed>0.6</speed>
</trkpt>
<trkpt lat="47.600313" lon="8.375053">
<ele>660.8</ele>
<time>2003-07-20T12:08:05Z</time>
<speed>0.8</speed>
</trkpt>
<trkpt lat="47.600326" lon="8.375134">
<ele>662.2</ele>
<time>2003-07-20T12:08:10Z</time>
<speed>0.6</speed>
</trkpt>
<trkpt lat="47.600345" lon="8.375217">
<ele>663.0</ele>
<time>2003-07-20T12:08:15Z</time>
<speed>1.1</speed>
</trkpt>
<trkpt lat="47.600377" lon="8.375301">
<ele>663.8</ele>
<time>2003-07-20T12:08:20Z</time>
<speed>0.8</speed>
</trkpt>
<trkpt lat="47.600383" lon="8.375395">
<ele>664.5</ele>
<time>2003-07-20T12:08:25Z</time>
<speed>0.6</speed>
</trkpt>
<trkpt lat="47.600395" lon="8.375491">
<ele>664.6</ele>
<time>2003-07-20T12:08:30Z</time>
<speed>0.8</speed>
</trkpt>
<trkpt lat="47.600396" lon="8.375587">
<ele>663.2</ele>
<time>2003-07-20T12:08:35Z</time>
<speed>0.8</speed>
</trkpt>
<trkpt lat="47.600416" lon="8.375672">
<ele>662.6</ele>
<time>2003-07-20T12:08:40Z</time>
<speed>0.8</speed>
</trkpt>
<trkpt lat="47.600410" lon="8.375751">
<ele>663.1</ele>
<time>2003-07-20T12:08:45Z</time>
<speed>0.8</speed>
</trkpt>
<trkpt lat="47.600430" lon="8.375821">
<ele>663.8</ele>
<time>2003-07-20T12:08:50Z</time>
<speed>0.6</speed>
</trkpt>
<trkpt lat="47.600444" lon="8.375903">
<ele>663.8</ele>
<time>2003-07-20T12:08:55Z</time>
<speed>0.8</speed>
</trkpt>
<trkpt lat="47.600430" lon="8.376009">
<ele>663.8</ele>
<time>2003-07-20T12:09:00Z</time>
<speed>0.8</speed>
</trkpt>
<trkpt lat="47.600418" lon="8.376103">
<ele>662.4</ele>
<time>2003-07-20T12:09:05Z</time>
<speed>0.8</speed>
</trkpt>
<trkpt lat="47.600398" lon="8.376210">
<ele>660.3</ele>
<time>2003-07-20T12:09:10Z</time>
<speed>0.8</speed>
</trkpt>
<trkpt lat="47.600373" lon="8.376300">
<ele>660.1</ele>
<time>2003-07-20T12:09:15Z</time>
<speed>1.1</speed>
</trkpt>
<trkpt lat="47.600359" lon="8.376405">
<ele>660.2</ele>
<time>2003-07-20T12:09:20Z</time>
<speed>1.1</speed>
</trkpt>
<trkpt lat="47.600333" lon="8.376495">
<ele>660.1</ele>
<time>2003-07-20T12:09:25Z</time>
<speed>1.4</speed>
</trkpt>
<trkpt lat="47.600320" lon="8.376601">
<ele>660.1</ele>
<time>2003-07-20T12:09:30Z</time>
<speed>1.1</speed>
</trkpt>
<trkpt lat="47.600299" lon="8.376704">
<ele>660.8</ele>
<time>2003-07-20T12:09:35Z</time>
<speed>1.4</speed>
</trkpt>
<trkpt lat="47.600300" lon="8.376783">
<ele>662.2</ele>
<time>2003-07-20T12:09:40Z</time>
<speed>0.8</speed>
</trkpt>
<trkpt lat="47.600319" lon="8.376866">
<ele>662.9</ele>
<time>2003-07-20T12:09:45Z</time>
<speed>0.6</speed>
</trkpt>
<trkpt lat="47.600332" lon="8.376948">
<ele>662.9</ele>
<time>2003-07-20T12:09:50Z</time>
<speed>1.1</speed>
</trkpt>
<trkpt lat="47.600338" lon="8.377042">
<ele>663.6</ele>
<time>2003-07-20T12:09:55Z</time>
<speed>1.1</speed>
</trkpt>
<trkpt lat="47.600371" lon="8.377129">
<ele>663.0</ele>
<time>2003-07-20T12:10:00Z</time>
<speed>0.8</speed>
</trkpt>
<trkpt lat="47.600384" lon="8.377212">
<ele>663.0</ele>
<time>2003-07-20T12:10:05Z</time>
<speed>0.8</speed>
</trkpt>
<trkpt lat="47.600370" lon="8.377317">
<ele>663.1</ele>
<time>2003-07-20T12:10:10Z</time>
<speed>1.1</speed>
</trkpt>
<trkpt lat="47.600363" lon="8.377422">
<ele>663.9</ele>
<time>2003-07-20T12:10:15Z</time>
<speed>1.1</speed>
</trkpt>
<trkpt lat="47.600343" lon="8.377512">
<ele>664.5</ele>
<time>2003-07-20T12:10:20Z</time>
<speed>0.8</speed>
</trkpt>
<trkpt lat="47.600343" lon="8.377606">
<ele>664.5</ele>
<time>2003-07-20T12:10:25Z</time>
<speed>0.8</speed>
</trkpt>
<trkpt lat="47.600335" lon="8.377712">
<ele>665.3</ele>
<time>2003-07-20T12:10:30Z</time>
<speed>1.1</speed>
</trkpt>
<trkpt lat="47.600348" lon="8.377808">
<ele>665.4</ele>
<time>2003-07-20T12:10:35Z</time>
<speed>1.1</speed>
</trkpt>
<trkpt lat="47.600349" lon="8.377889">
<ele>665.3</ele>
<time>2003-07-20T12:10:40Z</time>
<speed>1.1</speed>
</trkpt>
<trkpt lat="47.600348" lon="8.377983">
<ele>665.3</ele>
<time>2003-07-20T12:10:45Z</time>
<speed>1.1</speed>
</trkpt>
<trkpt lat="47.600342" lon="8.378075">
<ele>666.0</ele>
<time>2003-07-20T12:10:50Z</time>
<speed>0.8</speed>
</trkpt>
<trkpt lat="47.600367" lon="8.378157">
<ele>667.5</ele>
<time>2003-07-20T12:10:55Z</time>
<speed>0.8</speed>
</trkpt>
<trkpt lat="47.600411" lon="8.378259">
<ele>667.0</ele>
<time>2003-07-20T12:11:00Z</time>
<speed>1.1</speed>
</trkpt>
<trkpt lat="47.600445" lon="8.378333">
<ele>666.3</ele>
<time>2003-07-20T12:11:05Z</time>
<speed>1.1</speed>
</trkpt>
<trkpt lat="47.600471" lon="8.378417">
<ele>666.4</ele>
<time>2003-07-20T12:11:10Z</time>
<speed>1.1</speed>
</trkpt>
<trkpt lat="47.600505" lon="8.378491">
<ele>665.7</ele>
<time>2003-07-20T12:11:15Z</time>
<speed>1.1</speed>
</trkpt>
<trkpt lat="47.600537" lon="8.378578">
<ele>665.1</ele>
<time>2003-07-20T12:11:20Z</time>
<speed>0.8</speed>
</trkpt>
<trkpt lat="47.600552" lon="8.378647">
<ele>665.0</ele>
<time>2003-07-20T12:11:25Z</time>
<speed>1.1</speed>
</trkpt>
<trkpt lat="47.600584" lon="8.378734">
<ele>664.4</ele>
<time>2003-07-20T12:11:30Z</time>
<speed>1.1</speed>
</trkpt>
<trkpt lat="47.600598" lon="8.378817">
<ele>664.4</ele>
<time>2003-07-20T12:11:35Z</time>
<speed>0.8</speed>
</trkpt>
<trkpt lat="47.600618" lon="8.378888">
<ele>663.6</ele>
<time>2003-07-20T12:11:40Z</time>
<speed>0.8</speed>
</trkpt>
<trkpt lat="47.600632" lon="8.378971">
<ele>663.6</ele>
<time>2003-07-20T12:11:45Z</time>
<speed>1.1</speed>
</trkpt>
<trkpt lat="47.600652" lon="8.379056">
<ele>662.9</ele>
<time>2003-07-20T12:11:50Z</time>
<speed>0.8</speed>
</trkpt>
<trkpt lat="47.600670" lon="8.379152">
<ele>663.8</ele>
<time>2003-07-20T12:11:55Z</time>
<speed>1.1</speed>
</trkpt>
<trkpt lat="47.600690" lon="8.379235">
<ele>664.5</ele>
<time>2003-07-20T12:12:00Z</time>
<speed>0.8</speed>
</trkpt>
<trkpt lat="47.600730" lon="8.379295">
<ele>664.5</ele>
<time>2003-07-20T12:12:05Z</time>
<speed>0.6</speed>
</trkpt>
<trkpt lat="47.600750" lon="8.379378">
<ele>665.2</ele>
<time>2003-07-20T12:12:10Z</time>
<speed>1.1</speed>
</trkpt>
<trkpt lat="47.600762" lon="8.379393">
<ele>665.4</ele>
<time>2003-07-20T12:12:15Z</time>
<speed>0.0</speed>
</trkpt>
<trkpt lat="47.600762" lon="8.379380">
<ele>665.3</ele>
<time>2003-07-20T12:12:20Z</time>
<speed>0.0</speed>
</trkpt>
<trkpt lat="47.600764" lon="8.379446">
<ele>666.5</ele>
<time>2003-07-20T12:12:25Z</time>
<speed>0.8</speed>
</trkpt>
<trkpt lat="47.600756" lon="8.379553">
<ele>665.9</ele>
<time>2003-07-20T12:12:30Z</time>
<speed>0.6</speed>
</trkpt>
<trkpt lat="47.600790" lon="8.379626">
<ele>665.2</ele>
<time>2003-07-20T12:12:35Z</time>
<speed>0.6</speed>
</trkpt>
<trkpt lat="47.600829" lon="8.379713">
<ele>665.3</ele>
<time>2003-07-20T12:12:40Z</time>
<speed>0.6</speed>
</trkpt>
<trkpt lat="47.600874" lon="8.379802">
<ele>664.8</ele>
<time>2003-07-20T12:12:45Z</time>
<speed>1.1</speed>
</trkpt>
<trkpt lat="47.600888" lon="8.379871">
<ele>664.7</ele>
<time>2003-07-20T12:12:50Z</time>
<speed>0.6</speed>
</trkpt>
<trkpt lat="47.600922" lon="8.379945">
<ele>664.0</ele>
<time>2003-07-20T12:12:55Z</time>
<speed>0.6</speed>
</trkpt>
<trkpt lat="47.600941" lon="8.380043">
<ele>663.4</ele>
<time>2003-07-20T12:13:00Z</time>
<speed>0.6</speed>
</trkpt>
<trkpt lat="47.600973" lon="8.380129">
<ele>662.8</ele>
<time>2003-07-20T12:13:05Z</time>
<speed>0.6</speed>
</trkpt>
<trkpt lat="47.601000" lon="8.380201">
<ele>662.8</ele>
<time>2003-07-20T12:13:10Z</time>
<speed>0.6</speed>
</trkpt>
<trkpt lat="47.601027" lon="8.380272">
<ele>662.7</ele>
<time>2003-07-20T12:13:15Z</time>
<speed>0.6</speed>
</trkpt>
<trkpt lat="47.601046" lon="8.380368">
<ele>663.6</ele>
<time>2003-07-20T12:13:20Z</time>
<speed>0.6</speed>
</trkpt>
<trkpt lat="47.601066" lon="8.380453">
<ele>662.9</ele>
<time>2003-07-20T12:13:25Z</time>
<speed>0.6</speed>
</trkpt>
<trkpt lat="47.601105" lon="8.380540">
<ele>663.0</ele>
<time>2003-07-20T12:13:30Z</time>
<speed>0.8</speed>
</trkpt>
<trkpt lat="47.601137" lon="8.380625">
<ele>663.8</ele>
<time>2003-07-20T12:13:35Z</time>
<speed>0.6</speed>
</trkpt>
<trkpt lat="47.601189" lon="8.380702">
<ele>662.5</ele>
<time>2003-07-20T12:13:40Z</time>
<speed>0.6</speed>
</trkpt>
<trkpt lat="47.601208" lon="8.380800">
<ele>662.0</ele>
<time>2003-07-20T12:13:45Z</time>
<speed>0.6</speed>
</trkpt>
<trkpt lat="47.601235" lon="8.380885">
<ele>662.0</ele>
<time>2003-07-20T12:13:50Z</time>
<speed>0.6</speed>
</trkpt>
<trkpt lat="47.601267" lon="8.380971">
<ele>661.4</ele>
<time>2003-07-20T12:13:55Z</time>
<speed>0.6</speed>
</trkpt>
<trkpt lat="47.601292" lon="8.381069">
<ele>661.6</ele>
<time>2003-07-20T12:14:00Z</time>
<speed>0.8</speed>
</trkpt>
<trkpt lat="47.601345" lon="8.381147">
<ele>660.3</ele>
<time>2003-07-20T12:14:05Z</time>
<speed>0.6</speed>
</trkpt>
<trkpt lat="47.601370" lon="8.381245">
<ele>660.4</ele>
<time>2003-07-20T12:14:10Z</time>
<speed>0.8</speed>
</trkpt>
<trkpt lat="47.601390" lon="8.381329">
<ele>659.8</ele>
<time>2003-07-20T12:14:15Z</time>
<speed>0.6</speed>
</trkpt>
<trkpt lat="47.601423" lon="8.381416">
<ele>659.2</ele>
<time>2003-07-20T12:14:20Z</time>
<speed>0.8</speed>
</trkpt>
<trkpt lat="47.601469" lon="8.381491">
<ele>658.5</ele>
<time>2003-07-20T12:14:25Z</time>
<speed>0.8</speed>
</trkpt>
<trkpt lat="47.601508" lon="8.381580">
<ele>657.3</ele>
<time>2003-07-20T12:14:30Z</time>
<speed>0.6</speed>
</trkpt>
<trkpt lat="47.601541" lon="8.381652">
<ele>658.0</ele>
<time>2003-07-20T12:14:35Z</time>
<speed>0.8</speed>
</trkpt>
<trkpt lat="47.601561" lon="8.381736">
<ele>657.3</ele>
<time>2003-07-20T12:14:40Z</time>
<speed>0.6</speed>
</trkpt>
<trkpt lat="47.601574" lon="8.381819">
<ele>657.3</ele>
<time>2003-07-20T12:14:45Z</time>
<speed>0.6</speed>
</trkpt>
<trkpt lat="47.601588" lon="8.381902">
<ele>657.3</ele>
<time>2003-07-20T12:14:50Z</time>
<speed>0.8</speed>
</trkpt>
<trkpt lat="47.601595" lon="8.381985">
<ele>656.6</ele>
<time>2003-07-20T12:14:55Z</time>
<speed>0.6</speed>
</trkpt>
<trkpt lat="47.601601" lon="8.382079">
<ele>657.3</ele>
<time>2003-07-20T12:15:00Z</time>
<speed>0.6</speed>
</trkpt>
<trkpt lat="47.601646" lon="8.382167">
<ele>656.8</ele>
<time>2003-07-20T12:15:05Z</time>
<speed>0.8</speed>
</trkpt>
<trkpt lat="47.601678" lon="8.382267">
<ele>656.3</ele>
<time>2003-07-20T12:15:10Z</time>
<speed>0.8</speed>
</trkpt>
<trkpt lat="47.601711" lon="8.382341">
<ele>655.6</ele>
<time>2003-07-20T12:15:15Z</time>
<speed>0.6</speed>
</trkpt>
<trkpt lat="47.601731" lon="8.382426">
<ele>654.9</ele>
<time>2003-07-20T12:15:20Z</time>
<speed>0.8</speed>
</trkpt>
<trkpt lat="47.601763" lon="8.382525">
<ele>654.4</ele>
<time>2003-07-20T12:15:25Z</time>
<speed>0.8</speed>
</trkpt>
<trkpt lat="47.601782" lon="8.382623">
<ele>653.8</ele>
<time>2003-07-20T12:15:30Z</time>
<speed>0.8</speed>
</trkpt>
<trkpt lat="47.601794" lon="8.382719">
<ele>653.9</ele>
<time>2003-07-20T12:15:35Z</time>
<speed>0.6</speed>
</trkpt>
<trkpt lat="47.601802" lon="8.382802">
<ele>653.2</ele>
<time>2003-07-20T12:15:40Z</time>
<speed>0.6</speed>
</trkpt>
<trkpt lat="47.601815" lon="8.382900">
<ele>651.9</ele>
<time>2003-07-20T12:15:45Z</time>
<speed>0.8</speed>
</trkpt>
<trkpt lat="47.601822" lon="8.382983">
<ele>651.1</ele>
<time>2003-07-20T12:15:50Z</time>
<speed>0.8</speed>
</trkpt>
<trkpt lat="47.601822" lon="8.383077">
<ele>651.1</ele>
<time>2003-07-20T12:15:55Z</time>
<speed>0.8</speed>
</trkpt>
<trkpt lat="47.601833" lon="8.383186">
<ele>651.3</ele>
<time>2003-07-20T12:16:00Z</time>
<speed>0.8</speed>
</trkpt>
<trkpt lat="47.601840" lon="8.383282">
<ele>650.7</ele>
<time>2003-07-20T12:16:05Z</time>
<speed>0.8</speed>
</trkpt>
<trkpt lat="47.601871" lon="8.383380">
<ele>651.6</ele>
<time>2003-07-20T12:16:10Z</time>
<speed>0.8</speed>
</trkpt>
<trkpt lat="47.601883" lon="8.383476">
<ele>651.7</ele>
<time>2003-07-20T12:16:15Z</time>
<speed>0.8</speed>
</trkpt>
<trkpt lat="47.601883" lon="8.383570">
<ele>651.7</ele>
<time>2003-07-20T12:16:20Z</time>
<speed>0.8</speed>
</trkpt>
<trkpt lat="47.601888" lon="8.383679">
<ele>651.2</ele>
<time>2003-07-20T12:16:25Z</time>
<speed>1.1</speed>
</trkpt>
<trkpt lat="47.601896" lon="8.383762">
<ele>650.4</ele>
<time>2003-07-20T12:16:30Z</time>
<speed>0.8</speed>
</trkpt>
<trkpt lat="47.601915" lon="8.383861">
<ele>648.4</ele>
<time>2003-07-20T12:16:35Z</time>
<speed>1.1</speed>
</trkpt>
<trkpt lat="47.601922" lon="8.383957">
<ele>647.8</ele>
<time>2003-07-20T12:16:40Z</time>
<speed>0.8</speed>
</trkpt>
<trkpt lat="47.601920" lon="8.384065">
<ele>647.9</ele>
<time>2003-07-20T12:16:45Z</time>
<speed>1.1</speed>
</trkpt>
<trkpt lat="47.601900" lon="8.384183">
<ele>647.3</ele>
<time>2003-07-20T12:16:50Z</time>
<speed>1.4</speed>
</trkpt>
<trkpt lat="47.601899" lon="8.384277">
<ele>647.3</ele>
<time>2003-07-20T12:16:55Z</time>
<speed>1.1</speed>
</trkpt>
<trkpt lat="47.601947" lon="8.384326">
<ele>646.5</ele>
<time>2003-07-20T12:17:00Z</time>
<speed>0.6</speed>
</trkpt>
<trkpt lat="47.601961" lon="8.384409">
<ele>646.5</ele>
<time>2003-07-20T12:17:05Z</time>
<speed>0.6</speed>
</trkpt>
<trkpt lat="47.601961" lon="8.384505">
<ele>645.1</ele>
<time>2003-07-20T12:17:10Z</time>
<speed>0.8</speed>
</trkpt>
<trkpt lat="47.601967" lon="8.384599">
<ele>645.9</ele>
<time>2003-07-20T12:17:15Z</time>
<speed>0.8</speed>
</trkpt>
<trkpt lat="47.601973" lon="8.384695">
<ele>645.2</ele>
<time>2003-07-20T12:17:20Z</time>
<speed>0.8</speed>
</trkpt>
<trkpt lat="47.601966" lon="8.384800">
<ele>646.0</ele>
<time>2003-07-20T12:17:25Z</time>
<speed>0.8</speed>
</trkpt>
<trkpt lat="47.601958" lon="8.384907">
<ele>645.4</ele>
<time>2003-07-20T12:17:30Z</time>
<speed>1.1</speed>
</trkpt>
<trkpt lat="47.601973" lon="8.384962">
<ele>646.6</ele>
<time>2003-07-20T12:17:35Z</time>
<speed>0.0</speed>
</trkpt>
<trkpt lat="47.601996" lon="8.385005">
<ele>647.0</ele>
<time>2003-07-20T12:17:40Z</time>
<speed>0.6</speed>
</trkpt>
<trkpt lat="47.602004" lon="8.385075">
<ele>646.2</ele>
<time>2003-07-20T12:17:45Z</time>
<speed>0.8</speed>
</trkpt>
<trkpt lat="47.602022" lon="8.385171">
<ele>647.0</ele>
<time>2003-07-20T12:17:50Z</time>
<speed>1.1</speed>
</trkpt>
<trkpt lat="47.602049" lon="8.385242">
<ele>647.0</ele>
<time>2003-07-20T12:17:55Z</time>
<speed>0.8</speed>
</trkpt>
<trkpt lat="47.602083" lon="8.385316">
<ele>646.3</ele>
<time>2003-07-20T12:18:00Z</time>
<speed>1.1</speed>
</trkpt>
<trkpt lat="47.602090" lon="8.385399">
<ele>645.5</ele>
<time>2003-07-20T12:18:05Z</time>
<speed>0.3</speed>
</trkpt>
<trkpt lat="47.602116" lon="8.385482">
<ele>647.0</ele>
<time>2003-07-20T12:18:10Z</time>
<speed>0.8</speed>
</trkpt>
<trkpt lat="47.602122" lon="8.385576">
<ele>647.8</ele>
<time>2003-07-20T12:18:15Z</time>
<speed>0.8</speed>
</trkpt>
<trkpt lat="47.602155" lon="8.385647">
<ele>648.5</ele>
<time>2003-07-20T12:18:20Z</time>
<speed>0.6</speed>
</trkpt>
<trkpt lat="47.602167" lon="8.385743">
<ele>648.6</ele>
<time>2003-07-20T12:18:25Z</time>
<speed>0.8</speed>
</trkpt>
<trkpt lat="47.602180" lon="8.385841">
<ele>647.3</ele>
<time>2003-07-20T12:18:30Z</time>
<speed>0.8</speed>
</trkpt>
<trkpt lat="47.602205" lon="8.385939">
<ele>647.4</ele>
<time>2003-07-20T12:18:35Z</time>
<speed>1.1</speed>
</trkpt>
<trkpt lat="47.602218" lon="8.386035">
<ele>647.5</ele>
<time>2003-07-20T12:18:40Z</time>
<speed>1.1</speed>
</trkpt>
<trkpt lat="47.602264" lon="8.386110">
<ele>646.9</ele>
<time>2003-07-20T12:18:45Z</time>
<speed>1.1</speed>
</trkpt>
<trkpt lat="47.602285" lon="8.386182">
<ele>646.1</ele>
<time>2003-07-20T12:18:50Z</time>
<speed>0.6</speed>
</trkpt>
<trkpt lat="47.602306" lon="8.386254">
<ele>645.4</ele>
<time>2003-07-20T12:18:55Z</time>
<speed>0.8</speed>
</trkpt>
<trkpt lat="47.602326" lon="8.386323">
<ele>646.0</ele>
<time>2003-07-20T12:19:00Z</time>
<speed>0.8</speed>
</trkpt>
<trkpt lat="47.602341" lon="8.386380">
<ele>645.8</ele>
<time>2003-07-20T12:19:05Z</time>
<speed>0.6</speed>
</trkpt>
<trkpt lat="47.602355" lon="8.386463">
<ele>645.8</ele>
<time>2003-07-20T12:19:10Z</time>
<speed>1.1</speed>
</trkpt>
<trkpt lat="47.602382" lon="8.386534">
<ele>645.7</ele>
<time>2003-07-20T12:19:15Z</time>
<speed>0.8</speed>
</trkpt>
<trkpt lat="47.602390" lon="8.386602">
<ele>646.3</ele>
<time>2003-07-20T12:19:20Z</time>
<speed>0.6</speed>
</trkpt>
<trkpt lat="47.602404" lon="8.386672">
<ele>646.2</ele>
<time>2003-07-20T12:19:25Z</time>
<speed>0.6</speed>
</trkpt>
<trkpt lat="47.602423" lon="8.386754">
<ele>646.9</ele>
<time>2003-07-20T12:19:30Z</time>
<speed>0.6</speed>
</trkpt>
<trkpt lat="47.602432" lon="8.386809">
<ele>647.4</ele>
<time>2003-07-20T12:19:35Z</time>
<speed>0.6</speed>
</trkpt>
<trkpt lat="47.602446" lon="8.386879">
<ele>647.3</ele>
<time>2003-07-20T12:19:40Z</time>
<speed>0.6</speed>
</trkpt>
<trkpt lat="47.602467" lon="8.386948">
<ele>647.9</ele>
<time>2003-07-20T12:19:45Z</time>
<speed>0.8</speed>
</trkpt>
<trkpt lat="47.602472" lon="8.387055">
<ele>648.8</ele>
<time>2003-07-20T12:19:50Z</time>
<speed>1.7</speed>
</trkpt>
<trkpt lat="47.602477" lon="8.387163">
<ele>649.6</ele>
<time>2003-07-20T12:19:55Z</time>
<speed>1.1</speed>
</trkpt>
<trkpt lat="47.602489" lon="8.387259">
<ele>649.7</ele>
<time>2003-07-20T12:20:00Z</time>
<speed>1.1</speed>
</trkpt>
<trkpt lat="47.602501" lon="8.387353">
<ele>651.2</ele>
<time>2003-07-20T12:20:05Z</time>
<speed>0.8</speed>
</trkpt>
<trkpt lat="47.602515" lon="8.387422">
<ele>651.1</ele>
<time>2003-07-20T12:20:10Z</time>
<speed>0.8</speed>
</trkpt>
<trkpt lat="47.602521" lon="8.387516">
<ele>651.9</ele>
<time>2003-07-20T12:20:15Z</time>
<speed>1.1</speed>
</trkpt>
<trkpt lat="47.602535" lon="8.387599">
<ele>651.9</ele>
<time>2003-07-20T12:20:20Z</time>
<speed>0.8</speed>
</trkpt>
<trkpt lat="47.602554" lon="8.387682">
<ele>652.6</ele>
<time>2003-07-20T12:20:25Z</time>
<speed>0.8</speed>
</trkpt>
<trkpt lat="47.602562" lon="8.387752">
<ele>651.8</ele>
<time>2003-07-20T12:20:30Z</time>
<speed>0.8</speed>
</trkpt>
<trkpt lat="47.602568" lon="8.387861">
<ele>651.2</ele>
<time>2003-07-20T12:20:35Z</time>
<speed>0.8</speed>
</trkpt>
<trkpt lat="47.602573" lon="8.387970">
<ele>650.7</ele>
<time>2003-07-20T12:20:40Z</time>
<speed>0.8</speed>
</trkpt>
<trkpt lat="47.602594" lon="8.388039">
<ele>651.3</ele>
<time>2003-07-20T12:20:45Z</time>
<speed>0.8</speed>
</trkpt>
<trkpt lat="47.602607" lon="8.388122">
<ele>651.3</ele>
<time>2003-07-20T12:20:50Z</time>
<speed>0.8</speed>
</trkpt>
<trkpt lat="47.602606" lon="8.388229">
<ele>651.4</ele>
<time>2003-07-20T12:20:55Z</time>
<speed>0.8</speed>
</trkpt>
<trkpt lat="47.602611" lon="8.388339">
<ele>650.9</ele>
<time>2003-07-20T12:21:00Z</time>
<speed>1.1</speed>
</trkpt>
<trkpt lat="47.602625" lon="8.388421">
<ele>650.9</ele>
<time>2003-07-20T12:21:05Z</time>
<speed>1.1</speed>
</trkpt>
<trkpt lat="47.602644" lon="8.388504">
<ele>651.6</ele>
<time>2003-07-20T12:21:10Z</time>
<speed>0.8</speed>
</trkpt>
<trkpt lat="47.602645" lon="8.388585">
<ele>651.5</ele>
<time>2003-07-20T12:21:15Z</time>
<speed>1.1</speed>
</trkpt>
<trkpt lat="47.602651" lon="8.388681">
<ele>650.9</ele>
<time>2003-07-20T12:21:20Z</time>
<speed>1.1</speed>
</trkpt>
<trkpt lat="47.602625" lon="8.388784">
<ele>650.9</ele>
<time>2003-07-20T12:21:25Z</time>
<speed>1.1</speed>
</trkpt>
<trkpt lat="47.602618" lon="8.388876">
<ele>651.6</ele>
<time>2003-07-20T12:21:30Z</time>
<speed>0.8</speed>
</trkpt>
<trkpt lat="47.602617" lon="8.388968">
<ele>653.0</ele>
<time>2003-07-20T12:21:35Z</time>
<speed>1.1</speed>
</trkpt>
<trkpt lat="47.602603" lon="8.389074">
<ele>653.0</ele>
<time>2003-07-20T12:21:40Z</time>
<speed>1.1</speed>
</trkpt>
<trkpt lat="47.602609" lon="8.389168">
<ele>653.8</ele>
<time>2003-07-20T12:21:45Z</time>
<speed>1.1</speed>
</trkpt>
<trkpt lat="47.602608" lon="8.389275">
<ele>653.9</ele>
<time>2003-07-20T12:21:50Z</time>
<speed>1.1</speed>
</trkpt>
<trkpt lat="47.602614" lon="8.389369">
<ele>654.7</ele>
<time>2003-07-20T12:21:55Z</time>
<speed>1.1</speed>
</trkpt>
<trkpt lat="47.602620" lon="8.389463">
<ele>655.4</ele>
<time>2003-07-20T12:22:00Z</time>
<speed>0.8</speed>
</trkpt>
<trkpt lat="47.602619" lon="8.389570">
<ele>655.6</ele>
<time>2003-07-20T12:22:05Z</time>
<speed>1.1</speed>
</trkpt>
<trkpt lat="47.602619" lon="8.389651">
<ele>655.5</ele>
<time>2003-07-20T12:22:10Z</time>
<speed>1.1</speed>
</trkpt>
<trkpt lat="47.602606" lon="8.389756">
<ele>655.5</ele>
<time>2003-07-20T12:22:15Z</time>
<speed>0.8</speed>
</trkpt>
<trkpt lat="47.602593" lon="8.389848">
<ele>655.5</ele>
<time>2003-07-20T12:22:20Z</time>
<speed>0.8</speed>
</trkpt>
<trkpt lat="47.602567" lon="8.389938">
<ele>655.4</ele>
<time>2003-07-20T12:22:25Z</time>
<speed>0.8</speed>
</trkpt>
<trkpt lat="47.602546" lon="8.390040">
<ele>657.5</ele>
<time>2003-07-20T12:22:30Z</time>
<speed>1.1</speed>
</trkpt>
<trkpt lat="47.602539" lon="8.390145">
<ele>658.3</ele>
<time>2003-07-20T12:22:35Z</time>
<speed>1.1</speed>
</trkpt>
<trkpt lat="47.602511" lon="8.390261">
<ele>658.3</ele>
<time>2003-07-20T12:22:40Z</time>
<speed>1.1</speed>
</trkpt>
<trkpt lat="47.602511" lon="8.390355">
<ele>658.4</ele>
<time>2003-07-20T12:22:45Z</time>
<speed>0.6</speed>
</trkpt>
<trkpt lat="47.602504" lon="8.390448">
<ele>659.1</ele>
<time>2003-07-20T12:22:50Z</time>
<speed>0.8</speed>
</trkpt>
<trkpt lat="47.602534" lon="8.390559">
<ele>660.1</ele>
<time>2003-07-20T12:22:55Z</time>
<speed>1.1</speed>
</trkpt>
<trkpt lat="47.602527" lon="8.390664">
<ele>660.8</ele>
<time>2003-07-20T12:23:00Z</time>
<speed>0.8</speed>
</trkpt>
<trkpt lat="47.602519" lon="8.390769">
<ele>661.6</ele>
<time>2003-07-20T12:23:05Z</time>
<speed>0.8</speed>
</trkpt>
<trkpt lat="47.602512" lon="8.390863">
<ele>660.9</ele>
<time>2003-07-20T12:23:10Z</time>
<speed>1.1</speed>
</trkpt>
<trkpt lat="47.602519" lon="8.390959">
<ele>660.3</ele>
<time>2003-07-20T12:23:15Z</time>
<speed>0.8</speed>
</trkpt>
<trkpt lat="47.602520" lon="8.391042">
<ele>658.8</ele>
<time>2003-07-20T12:23:20Z</time>
<speed>0.8</speed>
</trkpt>
<trkpt lat="47.602520" lon="8.391136">
<ele>658.8</ele>
<time>2003-07-20T12:23:25Z</time>
<speed>1.1</speed>
</trkpt>
<trkpt lat="47.602518" lon="8.391256">
<ele>659.0</ele>
<time>2003-07-20T12:23:30Z</time>
<speed>1.1</speed>
</trkpt>
<trkpt lat="47.602518" lon="8.391350">
<ele>659.0</ele>
<time>2003-07-20T12:23:35Z</time>
<speed>1.1</speed>
</trkpt>
<trkpt lat="47.602533" lon="8.391407">
<ele>658.8</ele>
<time>2003-07-20T12:23:40Z</time>
<speed>0.6</speed>
</trkpt>
<trkpt lat="47.602539" lon="8.391501">
<ele>659.6</ele>
<time>2003-07-20T12:23:45Z</time>
<speed>0.8</speed>
</trkpt>
<trkpt lat="47.602547" lon="8.391555">
<ele>660.1</ele>
<time>2003-07-20T12:23:50Z</time>
<speed>0.6</speed>
</trkpt>
<trkpt lat="47.602515" lon="8.391661">
<ele>657.9</ele>
<time>2003-07-20T12:23:55Z</time>
<speed>0.8</speed>
</trkpt>
<trkpt lat="47.602510" lon="8.391741">
<ele>657.1</ele>
<time>2003-07-20T12:24:00Z</time>
<speed>0.8</speed>
</trkpt>
<trkpt lat="47.602492" lon="8.391818">
<ele>657.6</ele>
<time>2003-07-20T12:24:05Z</time>
<speed>0.6</speed>
</trkpt>
<trkpt lat="47.602474" lon="8.391882">
<ele>658.0</ele>
<time>2003-07-20T12:24:10Z</time>
<speed>0.6</speed>
</trkpt>
<trkpt lat="47.602467" lon="8.391974">
<ele>658.7</ele>
<time>2003-07-20T12:24:15Z</time>
<speed>0.6</speed>
</trkpt>
<trkpt lat="47.602444" lon="8.392040">
<ele>657.0</ele>
<time>2003-07-20T12:24:20Z</time>
<speed>0.8</speed>
</trkpt>
<trkpt lat="47.602412" lon="8.392143">
<ele>656.2</ele>
<time>2003-07-20T12:24:25Z</time>
<speed>0.8</speed>
</trkpt>
<trkpt lat="47.602399" lon="8.392236">
<ele>656.2</ele>
<time>2003-07-20T12:24:30Z</time>
<speed>1.1</speed>
</trkpt>
<trkpt lat="47.602374" lon="8.392326">
<ele>656.1</ele>
<time>2003-07-20T12:24:35Z</time>
<speed>1.1</speed>
</trkpt>
<trkpt lat="47.602348" lon="8.392416">
<ele>655.9</ele>
<time>2003-07-20T12:24:40Z</time>
<speed>1.1</speed>
</trkpt>
<trkpt lat="47.602322" lon="8.392504">
<ele>657.2</ele>
<time>2003-07-20T12:24:45Z</time>
<speed>0.8</speed>
</trkpt>
<trkpt lat="47.602263" lon="8.392617">
<ele>656.4</ele>
<time>2003-07-20T12:24:50Z</time>
<speed>1.4</speed>
</trkpt>
<trkpt lat="47.602252" lon="8.392697">
<ele>654.9</ele>
<time>2003-07-20T12:24:55Z</time>
<speed>0.8</speed>
</trkpt>
<trkpt lat="47.602233" lon="8.392774">
<ele>655.4</ele>
<time>2003-07-20T12:25:00Z</time>
<speed>1.1</speed>
</trkpt>
<trkpt lat="47.602227" lon="8.392868">
<ele>654.7</ele>
<time>2003-07-20T12:25:05Z</time>
<speed>0.8</speed>
</trkpt>
<trkpt lat="47.602234" lon="8.392949">
<ele>655.3</ele>
<time>2003-07-20T12:25:10Z</time>
<speed>0.8</speed>
</trkpt>
<trkpt lat="47.602242" lon="8.393017">
<ele>655.9</ele>
<time>2003-07-20T12:25:15Z</time>
<speed>0.6</speed>
</trkpt>
<trkpt lat="47.602257" lon="8.393089">
<ele>654.4</ele>
<time>2003-07-20T12:25:20Z</time>
<speed>0.8</speed>
</trkpt>
<trkpt lat="47.602259" lon="8.393143">
<ele>654.1</ele>
<time>2003-07-20T12:25:25Z</time>
<speed>0.6</speed>
</trkpt>
<trkpt lat="47.602260" lon="8.393224">
<ele>654.0</ele>
<time>2003-07-20T12:25:30Z</time>
<speed>0.6</speed>
</trkpt>
<trkpt lat="47.602274" lon="8.393309">
<ele>652.6</ele>
<time>2003-07-20T12:25:35Z</time>
<speed>0.8</speed>
</trkpt>
<trkpt lat="47.602268" lon="8.393388">
<ele>653.2</ele>
<time>2003-07-20T12:25:40Z</time>
<speed>1.1</speed>
</trkpt>
<trkpt lat="47.602260" lon="8.393493">
<ele>654.0</ele>
<time>2003-07-20T12:25:45Z</time>
<speed>0.6</speed>
</trkpt>
<trkpt lat="47.602268" lon="8.393561">
<ele>654.6</ele>
<time>2003-07-20T12:25:50Z</time>
<speed>0.6</speed>
</trkpt>
<trkpt lat="47.602269" lon="8.393642">
<ele>654.5</ele>
<time>2003-07-20T12:25:55Z</time>
<speed>0.8</speed>
</trkpt>
<trkpt lat="47.602268" lon="8.393734">
<ele>655.9</ele>
<time>2003-07-20T12:26:00Z</time>
<speed>0.8</speed>
</trkpt>
<trkpt lat="47.602269" lon="8.393830">
<ele>654.5</ele>
<time>2003-07-20T12:26:05Z</time>
<speed>0.6</speed>
</trkpt>
<trkpt lat="47.602274" lon="8.393924">
<ele>655.3</ele>
<time>2003-07-20T12:26:10Z</time>
<speed>0.8</speed>
</trkpt>
<trkpt lat="47.602269" lon="8.394005">
<ele>654.5</ele>
<time>2003-07-20T12:26:15Z</time>
<speed>0.6</speed>
</trkpt>
<trkpt lat="47.602309" lon="8.394078">
<ele>654.5</ele>
<time>2003-07-20T12:26:20Z</time>
<speed>0.8</speed>
</trkpt>
<trkpt lat="47.602336" lon="8.394135">
<ele>655.8</ele>
<time>2003-07-20T12:26:25Z</time>
<speed>0.6</speed>
</trkpt>
<trkpt lat="47.602359" lon="8.394178">
<ele>656.2</ele>
<time>2003-07-20T12:26:30Z</time>
<speed>0.3</speed>
</trkpt>
<trkpt lat="47.602367" lon="8.394232">
<ele>656.7</ele>
<time>2003-07-20T12:26:35Z</time>
<speed>0.3</speed>
</trkpt>
<trkpt lat="47.602353" lon="8.394257">
<ele>656.8</ele>
<time>2003-07-20T12:26:40Z</time>
<speed>0.6</speed>
</trkpt>
<trkpt lat="47.602287" lon="8.394287">
<ele>656.8</ele>
<time>2003-07-20T12:26:45Z</time>
<speed>0.6</speed>
</trkpt>
<trkpt lat="47.602206" lon="8.394341">
<ele>656.8</ele>
<time>2003-07-20T12:26:50Z</time>
<speed>1.1</speed>
</trkpt>
<trkpt lat="47.602139" lon="8.394369">
<ele>658.2</ele>
<time>2003-07-20T12:26:55Z</time>
<speed>0.8</speed>
</trkpt>
<trkpt lat="47.602077" lon="8.394425">
<ele>659.0</ele>
<time>2003-07-20T12:27:00Z</time>
<speed>0.8</speed>
</trkpt>
<trkpt lat="47.602024" lon="8.394456">
<ele>659.0</ele>
<time>2003-07-20T12:27:05Z</time>
<speed>0.8</speed>
</trkpt>
<trkpt lat="47.601937" lon="8.394508">
<ele>659.8</ele>
<time>2003-07-20T12:27:10Z</time>
<speed>1.1</speed>
</trkpt>
<trkpt lat="47.601842" lon="8.394557">
<ele>662.6</ele>
<time>2003-07-20T12:27:15Z</time>
<speed>1.1</speed>
</trkpt>
<trkpt lat="47.601760" lon="8.394622">
<ele>664.1</ele>
<time>2003-07-20T12:27:20Z</time>
<speed>1.1</speed>
</trkpt>
<trkpt lat="47.601677" lon="8.394699">
<ele>667.2</ele>
<time>2003-07-20T12:27:25Z</time>
<speed>1.4</speed>
</trkpt>
<trkpt lat="47.601609" lon="8.394738">
<ele>670.1</ele>
<time>2003-07-20T12:27:30Z</time>
<speed>1.1</speed>
</trkpt>
<trkpt lat="47.601559" lon="8.394794">
<ele>672.4</ele>
<time>2003-07-20T12:27:35Z</time>
<speed>1.1</speed>
</trkpt>
<trkpt lat="47.601566" lon="8.394875">
<ele>673.1</ele>
<time>2003-07-20T12:27:40Z</time>
<speed>0.8</speed>
</trkpt>
<trkpt lat="47.601579" lon="8.394957">
<ele>673.1</ele>
<time>2003-07-20T12:27:45Z</time>
<speed>0.3</speed>
</trkpt>
<trkpt lat="47.601594" lon="8.395012">
<ele>674.3</ele>
<time>2003-07-20T12:27:50Z</time>
<speed>0.3</speed>
</trkpt>
<trkpt lat="47.601601" lon="8.395078">
<ele>676.2</ele>
<time>2003-07-20T12:27:55Z</time>
<speed>0.6</speed>
</trkpt>
<trkpt lat="47.601613" lon="8.395172">
<ele>677.7</ele>
<time>2003-07-20T12:28:00Z</time>
<speed>0.6</speed>
</trkpt>
<trkpt lat="47.601602" lon="8.395236">
<ele>678.9</ele>
<time>2003-07-20T12:28:05Z</time>
<speed>0.6</speed>
</trkpt>
<trkpt lat="47.601610" lon="8.395288">
<ele>680.8</ele>
<time>2003-07-20T12:28:10Z</time>
<speed>0.3</speed>
</trkpt>
<trkpt lat="47.601612" lon="8.395341">
<ele>681.9</ele>
<time>2003-07-20T12:28:15Z</time>
<speed>0.6</speed>
</trkpt>
<trkpt lat="47.601622" lon="8.395382">
<ele>682.3</ele>
<time>2003-07-20T12:28:20Z</time>
<speed>0.3</speed>
</trkpt>
<trkpt lat="47.601619" lon="8.395422">
<ele>682.6</ele>
<time>2003-07-20T12:28:25Z</time>
<speed>0.3</speed>
</trkpt>
<trkpt lat="47.601584" lon="8.395455">
<ele>683.4</ele>
<time>2003-07-20T12:28:30Z</time>
<speed>0.3</speed>
</trkpt>
<trkpt lat="47.601554" lon="8.395517">
<ele>683.7</ele>
<time>2003-07-20T12:28:35Z</time>
<speed>0.8</speed>
</trkpt>
<trkpt lat="47.601523" lon="8.395594">
<ele>682.8</ele>
<time>2003-07-20T12:28:40Z</time>
<speed>0.6</speed>
</trkpt>
<trkpt lat="47.601525" lon="8.395662">
<ele>682.6</ele>
<time>2003-07-20T12:28:45Z</time>
<speed>0.6</speed>
</trkpt>
<trkpt lat="47.601502" lon="8.395726">
<ele>682.3</ele>
<time>2003-07-20T12:28:50Z</time>
<speed>0.6</speed>
</trkpt>
<trkpt lat="47.601503" lon="8.395793">
<ele>682.1</ele>
<time>2003-07-20T12:28:55Z</time>
<speed>0.3</speed>
</trkpt>
<trkpt lat="47.601483" lon="8.395897">
<ele>682.8</ele>
<time>2003-07-20T12:29:00Z</time>
<speed>0.6</speed>
</trkpt>
<trkpt lat="47.601477" lon="8.395976">
<ele>683.4</ele>
<time>2003-07-20T12:29:05Z</time>
<speed>0.6</speed>
</trkpt>
<trkpt lat="47.601472" lon="8.396057">
<ele>682.6</ele>
<time>2003-07-20T12:29:10Z</time>
<speed>0.6</speed>
</trkpt>
<trkpt lat="47.601474" lon="8.396124">
<ele>682.4</ele>
<time>2003-07-20T12:29:15Z</time>
<speed>0.6</speed>
</trkpt>
<trkpt lat="47.601481" lon="8.396190">
<ele>684.4</ele>
<time>2003-07-20T12:29:20Z</time>
<speed>0.6</speed>
</trkpt>
<trkpt lat="47.601477" lon="8.396245">
<ele>683.4</ele>
<time>2003-07-20T12:29:25Z</time>
<speed>0.6</speed>
</trkpt>
<trkpt lat="47.601486" lon="8.396299">
<ele>683.9</ele>
<time>2003-07-20T12:29:30Z</time>
<speed>0.3</speed>
</trkpt>
<trkpt lat="47.601495" lon="8.396354">
<ele>684.3</ele>
<time>2003-07-20T12:29:35Z</time>
<speed>0.6</speed>
</trkpt>
<trkpt lat="47.601498" lon="8.396408">
<ele>684.0</ele>
<time>2003-07-20T12:29:40Z</time>
<speed>0.6</speed>
</trkpt>
<trkpt lat="47.601520" lon="8.396467">
<ele>683.2</ele>
<time>2003-07-20T12:29:45Z</time>
<speed>0.3</speed>
</trkpt>
<trkpt lat="47.601549" lon="8.396499">
<ele>682.9</ele>
<time>2003-07-20T12:29:50Z</time>
<speed>0.3</speed>
</trkpt>
<trkpt lat="47.601539" lon="8.396565">
<ele>682.6</ele>
<time>2003-07-20T12:29:55Z</time>
<speed>0.6</speed>
</trkpt>
<trkpt lat="47.601505" lon="8.396681">
<ele>681.9</ele>
<time>2003-07-20T12:30:00Z</time>
<speed>0.6</speed>
</trkpt>
<trkpt lat="47.601493" lon="8.396758">
<ele>683.2</ele>
<time>2003-07-20T12:30:05Z</time>
<speed>0.3</speed>
</trkpt>
<trkpt lat="47.601468" lon="8.396835">
<ele>683.0</ele>
<time>2003-07-20T12:30:10Z</time>
<speed>0.6</speed>
</trkpt>
<trkpt lat="47.601445" lon="8.396899">
<ele>682.7</ele>
<time>2003-07-20T12:30:15Z</time>
<speed>0.6</speed>
</trkpt>
<trkpt lat="47.601414" lon="8.396976">
<ele>681.7</ele>
<time>2003-07-20T12:30:20Z</time>
<speed>0.6</speed>
</trkpt>
<trkpt lat="47.601435" lon="8.397030">
<ele>683.6</ele>
<time>2003-07-20T12:30:25Z</time>
<speed>0.3</speed>
</trkpt>
<trkpt lat="47.601457" lon="8.397074">
<ele>684.1</ele>
<time>2003-07-20T12:30:30Z</time>
<speed>0.3</speed>
</trkpt>
<trkpt lat="47.601486" lon="8.397119">
<ele>683.9</ele>
<time>2003-07-20T12:30:35Z</time>
<speed>0.3</speed>
</trkpt>
<trkpt lat="47.601495" lon="8.397174">
<ele>684.3</ele>
<time>2003-07-20T12:30:40Z</time>
<speed>0.3</speed>
</trkpt>
<trkpt lat="47.601504" lon="8.397228">
<ele>684.8</ele>
<time>2003-07-20T12:30:45Z</time>
<speed>0.3</speed>
</trkpt>
<trkpt lat="47.601504" lon="8.397292">
<ele>687.4</ele>
<time>2003-07-20T12:30:50Z</time>
<speed>0.3</speed>
</trkpt>
<trkpt lat="47.601499" lon="8.397371">
<ele>688.0</ele>
<time>2003-07-20T12:30:55Z</time>
<speed>0.3</speed>
</trkpt>
<trkpt lat="47.601513" lon="8.397425">
<ele>689.2</ele>
<time>2003-07-20T12:31:00Z</time>
<speed>0.6</speed>
</trkpt>
<trkpt lat="47.601528" lon="8.397480">
<ele>690.4</ele>
<time>2003-07-20T12:31:05Z</time>
<speed>0.3</speed>
</trkpt>
<trkpt lat="47.601544" lon="8.397521">
<ele>691.5</ele>
<time>2003-07-20T12:31:10Z</time>
<speed>0.3</speed>
</trkpt>
<trkpt lat="47.601579" lon="8.397582">
<ele>690.7</ele>
<time>2003-07-20T12:31:15Z</time>
<speed>0.3</speed>
</trkpt>
<trkpt lat="47.601607" lon="8.397625">
<ele>691.9</ele>
<time>2003-07-20T12:31:20Z</time>
<speed>0.0</speed>
</trkpt>
<trkpt lat="47.601594" lon="8.397621">
<ele>693.2</ele>
<time>2003-07-20T12:31:25Z</time>
<speed>0.0</speed>
</trkpt>
<trkpt lat="47.601599" lon="8.397634">
<ele>694.1</ele>
<time>2003-07-20T12:31:30Z</time>
<speed>0.0</speed>
</trkpt>
<trkpt lat="47.601598" lon="8.397648">
<ele>694.2</ele>
<time>2003-07-20T12:31:35Z</time>
<speed>0.0</speed>
</trkpt>
<trkpt lat="47.601596" lon="8.397659">
<ele>695.7</ele>
<time>2003-07-20T12:31:40Z</time>
<speed>0.3</speed>
</trkpt>
<trkpt lat="47.601596" lon="8.397672">
<ele>695.8</ele>
<time>2003-07-20T12:31:45Z</time>
<speed>0.0</speed>
</trkpt>
<trkpt lat="47.601587" lon="8.397696">
<ele>696.6</ele>
<time>2003-07-20T12:31:50Z</time>
<speed>0.0</speed>
</trkpt>
<trkpt lat="47.601592" lon="8.397709">
<ele>697.5</ele>
<time>2003-07-20T12:31:55Z</time>
<speed>0.0</speed>
</trkpt>
<trkpt lat="47.601595" lon="8.397749">
<ele>698.5</ele>
<time>2003-07-20T12:32:00Z</time>
<speed>0.3</speed>
</trkpt>
<trkpt lat="47.601592" lon="8.397786">
<ele>700.2</ele>
<time>2003-07-20T12:32:05Z</time>
<speed>0.3</speed>
</trkpt>
<trkpt lat="47.601587" lon="8.397852">
<ele>700.7</ele>
<time>2003-07-20T12:32:10Z</time>
<speed>0.6</speed>
</trkpt>
<trkpt lat="47.601593" lon="8.397948">
<ele>700.1</ele>
<time>2003-07-20T12:32:15Z</time>
<speed>1.1</speed>
</trkpt>
<trkpt lat="47.601602" lon="8.398018">
<ele>699.2</ele>
<time>2003-07-20T12:32:20Z</time>
<speed>0.8</speed>
</trkpt>
<trkpt lat="47.601597" lon="8.398086">
<ele>698.3</ele>
<time>2003-07-20T12:32:25Z</time>
<speed>0.8</speed>
</trkpt>
<trkpt lat="47.601613" lon="8.398142">
<ele>698.1</ele>
<time>2003-07-20T12:32:30Z</time>
<speed>0.8</speed>
</trkpt>
<trkpt lat="47.601594" lon="8.398219">
<ele>698.6</ele>
<time>2003-07-20T12:32:35Z</time>
<speed>0.3</speed>
</trkpt>
<trkpt lat="47.601576" lon="8.398298">
<ele>697.7</ele>
<time>2003-07-20T12:32:40Z</time>
<speed>1.1</speed>
</trkpt>
<trkpt lat="47.601569" lon="8.398390">
<ele>698.4</ele>
<time>2003-07-20T12:32:45Z</time>
<speed>0.8</speed>
</trkpt>
<trkpt lat="47.601558" lon="8.398469">
<ele>698.3</ele>
<time>2003-07-20T12:32:50Z</time>
<speed>0.8</speed>
</trkpt>
<trkpt lat="47.601557" lon="8.398563">
<ele>698.3</ele>
<time>2003-07-20T12:32:55Z</time>
<speed>0.8</speed>
</trkpt>
<trkpt lat="47.601518" lon="8.398679">
<ele>696.9</ele>
<time>2003-07-20T12:33:00Z</time>
<speed>1.1</speed>
</trkpt>
<trkpt lat="47.601500" lon="8.398758">
<ele>696.0</ele>
<time>2003-07-20T12:33:05Z</time>
<speed>0.8</speed>
</trkpt>
<trkpt lat="47.601483" lon="8.398809">
<ele>696.3</ele>
<time>2003-07-20T12:33:10Z</time>
<speed>0.0</speed>
</trkpt>
<trkpt lat="47.601454" lon="8.398858">
<ele>696.6</ele>
<time>2003-07-20T12:33:15Z</time>
<speed>0.3</speed>
</trkpt>
<trkpt lat="47.601450" lon="8.398925">
<ele>695.7</ele>
<time>2003-07-20T12:33:20Z</time>
<speed>0.8</speed>
</trkpt>
<trkpt lat="47.601464" lon="8.398995">
<ele>695.6</ele>
<time>2003-07-20T12:33:26Z</time>
<speed>0.8</speed>
</trkpt>
<trkpt lat="47.601473" lon="8.399050">
<ele>696.0</ele>
<time>2003-07-20T12:33:31Z</time>
<speed>0.8</speed>
</trkpt>
<trkpt lat="47.601482" lon="8.399106">
<ele>695.1</ele>
<time>2003-07-20T12:33:36Z</time>
<speed>0.8</speed>
</trkpt>
<trkpt lat="47.601484" lon="8.399174">
<ele>694.9</ele>
<time>2003-07-20T12:33:41Z</time>
<speed>0.8</speed>
</trkpt>
<trkpt lat="47.601516" lon="8.399261">
<ele>694.3</ele>
<time>2003-07-20T12:33:46Z</time>
<speed>0.8</speed>
</trkpt>
<trkpt lat="47.601524" lon="8.399343">
<ele>693.6</ele>
<time>2003-07-20T12:33:51Z</time>
<speed>0.6</speed>
</trkpt>
<trkpt lat="47.601513" lon="8.399409">
<ele>693.3</ele>
<time>2003-07-20T12:33:56Z</time>
<speed>0.6</speed>
</trkpt>
<trkpt lat="47.601507" lon="8.399488">
<ele>693.9</ele>
<time>2003-07-20T12:34:01Z</time>
<speed>0.6</speed>
</trkpt>
<trkpt lat="47.601475" lon="8.399591">
<ele>693.2</ele>
<time>2003-07-20T12:34:06Z</time>
<speed>0.6</speed>
</trkpt>
<trkpt lat="47.601469" lon="8.399670">
<ele>693.8</ele>
<time>2003-07-20T12:34:11Z</time>
<speed>0.8</speed>
</trkpt>
<trkpt lat="47.601475" lon="8.399766">
<ele>693.1</ele>
<time>2003-07-20T12:34:16Z</time>
<speed>0.8</speed>
</trkpt>
<trkpt lat="47.601461" lon="8.399872">
<ele>693.2</ele>
<time>2003-07-20T12:34:21Z</time>
<speed>1.1</speed>
</trkpt>
<trkpt lat="47.601453" lon="8.399992">
<ele>692.6</ele>
<time>2003-07-20T12:34:26Z</time>
<speed>1.1</speed>
</trkpt>
<trkpt lat="47.601447" lon="8.400071">
<ele>693.2</ele>
<time>2003-07-20T12:34:31Z</time>
<speed>0.6</speed>
</trkpt>
<trkpt lat="47.601472" lon="8.400184">
<ele>692.1</ele>
<time>2003-07-20T12:34:36Z</time>
<speed>0.8</speed>
</trkpt>
<trkpt lat="47.601499" lon="8.400257">
<ele>690.7</ele>
<time>2003-07-20T12:34:41Z</time>
<speed>0.6</speed>
</trkpt>
<trkpt lat="47.601513" lon="8.400342">
<ele>689.2</ele>
<time>2003-07-20T12:34:46Z</time>
<speed>0.8</speed>
</trkpt>
<trkpt lat="47.601493" lon="8.400447">
<ele>688.6</ele>
<time>2003-07-20T12:34:51Z</time>
<speed>0.8</speed>
</trkpt>
<trkpt lat="47.601506" lon="8.400545">
<ele>687.2</ele>
<time>2003-07-20T12:34:56Z</time>
<speed>1.1</speed>
</trkpt>
<trkpt lat="47.601526" lon="8.400630">
<ele>686.6</ele>
<time>2003-07-20T12:35:01Z</time>
<speed>0.8</speed>
</trkpt>
<trkpt lat="47.601534" lon="8.400700">
<ele>685.7</ele>
<time>2003-07-20T12:35:06Z</time>
<speed>0.8</speed>
</trkpt>
<trkpt lat="47.601536" lon="8.400782">
<ele>684.3</ele>
<time>2003-07-20T12:35:11Z</time>
<speed>0.8</speed>
</trkpt>
<trkpt lat="47.601528" lon="8.400888">
<ele>685.0</ele>
<time>2003-07-20T12:35:16Z</time>
<speed>1.1</speed>
</trkpt>
<trkpt lat="47.601534" lon="8.400984">
<ele>684.4</ele>
<time>2003-07-20T12:35:21Z</time>
<speed>0.6</speed>
</trkpt>
<trkpt lat="47.601543" lon="8.401038">
<ele>684.9</ele>
<time>2003-07-20T12:35:26Z</time>
<speed>0.0</speed>
</trkpt>
<trkpt lat="47.601555" lon="8.401053">
<ele>685.0</ele>
<time>2003-07-20T12:35:31Z</time>
<speed>0.0</speed>
</trkpt>
<trkpt lat="47.601564" lon="8.401095">
<ele>685.4</ele>
<time>2003-07-20T12:35:36Z</time>
<speed>0.0</speed>
</trkpt>
<trkpt lat="47.601575" lon="8.401121">
<ele>687.1</ele>
<time>2003-07-20T12:35:41Z</time>
<speed>0.0</speed>
</trkpt>
<trkpt lat="47.601575" lon="8.401121">
<ele>687.1</ele>
<time>2003-07-20T12:35:46Z</time>
<speed>0.0</speed>
</trkpt>
<trkpt lat="47.601599" lon="8.401138">
<ele>687.3</ele>
<time>2003-07-20T12:35:51Z</time>
<speed>0.0</speed>
</trkpt>
<trkpt lat="47.601602" lon="8.401195">
<ele>685.6</ele>
<time>2003-07-20T12:35:56Z</time>
<speed>0.8</speed>
</trkpt>
<trkpt lat="47.601618" lon="8.401253">
<ele>684.0</ele>
<time>2003-07-20T12:36:01Z</time>
<speed>0.6</speed>
</trkpt>
<trkpt lat="47.601628" lon="8.401296">
<ele>683.0</ele>
<time>2003-07-20T12:36:06Z</time>
<speed>0.8</speed>
</trkpt>
<trkpt lat="47.601633" lon="8.401325">
<ele>682.5</ele>
<time>2003-07-20T12:36:11Z</time>
<speed>0.3</speed>
</trkpt>
<trkpt lat="47.601629" lon="8.401377">
<ele>682.9</ele>
<time>2003-07-20T12:36:16Z</time>
<speed>0.8</speed>
</trkpt>
<trkpt lat="47.601616" lon="8.401469">
<ele>682.9</ele>
<time>2003-07-20T12:36:21Z</time>
<speed>0.8</speed>
</trkpt>
<trkpt lat="47.601604" lon="8.401548">
<ele>682.7</ele>
<time>2003-07-20T12:36:26Z</time>
<speed>0.8</speed>
</trkpt>
<trkpt lat="47.601618" lon="8.401633">
<ele>681.3</ele>
<time>2003-07-20T12:36:31Z</time>
<speed>0.8</speed>
</trkpt>
<trkpt lat="47.601626" lon="8.401701">
<ele>681.9</ele>
<time>2003-07-20T12:36:36Z</time>
<speed>0.3</speed>
</trkpt>
<trkpt lat="47.601628" lon="8.401768">
<ele>681.7</ele>
<time>2003-07-20T12:36:41Z</time>
<speed>0.8</speed>
</trkpt>
<trkpt lat="47.601627" lon="8.401862">
<ele>681.7</ele>
<time>2003-07-20T12:36:46Z</time>
<speed>0.6</speed>
</trkpt>
<trkpt lat="47.601637" lon="8.401904">
<ele>682.1</ele>
<time>2003-07-20T12:36:51Z</time>
<speed>0.0</speed>
</trkpt>
<trkpt lat="47.601643" lon="8.401919">
<ele>681.5</ele>
<time>2003-07-20T12:36:56Z</time>
<speed>0.6</speed>
</trkpt>
<trkpt lat="47.601662" lon="8.402002">
<ele>682.3</ele>
<time>2003-07-20T12:37:01Z</time>
<speed>0.8</speed>
</trkpt>
<trkpt lat="47.601656" lon="8.402081">
<ele>682.8</ele>
<time>2003-07-20T12:37:06Z</time>
<speed>0.6</speed>
</trkpt>
<trkpt lat="47.601663" lon="8.402177">
<ele>682.2</ele>
<time>2003-07-20T12:37:11Z</time>
<speed>0.6</speed>
</trkpt>
<trkpt lat="47.601636" lon="8.402295">
<ele>680.9</ele>
<time>2003-07-20T12:37:16Z</time>
<speed>0.3</speed>
</trkpt>
<trkpt lat="47.601658" lon="8.402353">
<ele>680.0</ele>
<time>2003-07-20T12:37:21Z</time>
<speed>0.6</speed>
</trkpt>
<trkpt lat="47.601692" lon="8.402414">
<ele>679.2</ele>
<time>2003-07-20T12:37:26Z</time>
<speed>0.8</speed>
</trkpt>
<trkpt lat="47.601717" lon="8.402512">
<ele>679.4</ele>
<time>2003-07-20T12:37:31Z</time>
<speed>0.8</speed>
</trkpt>
<trkpt lat="47.601710" lon="8.402619">
<ele>678.8</ele>
<time>2003-07-20T12:37:36Z</time>
<speed>0.8</speed>
</trkpt>
<trkpt lat="47.601737" lon="8.402691">
<ele>678.7</ele>
<time>2003-07-20T12:37:41Z</time>
<speed>0.6</speed>
</trkpt>
<trkpt lat="47.601758" lon="8.402747">
<ele>679.3</ele>
<time>2003-07-20T12:37:46Z</time>
<speed>0.6</speed>
</trkpt>
<trkpt lat="47.601766" lon="8.402815">
<ele>679.8</ele>
<time>2003-07-20T12:37:51Z</time>
<speed>0.8</speed>
</trkpt>
<trkpt lat="47.601779" lon="8.402898">
<ele>679.8</ele>
<time>2003-07-20T12:37:56Z</time>
<speed>0.6</speed>
</trkpt>
<trkpt lat="47.601815" lon="8.402945">
<ele>678.9</ele>
<time>2003-07-20T12:38:01Z</time>
<speed>0.8</speed>
</trkpt>
<trkpt lat="47.601843" lon="8.403005">
<ele>677.4</ele>
<time>2003-07-20T12:38:06Z</time>
<speed>0.6</speed>
</trkpt>
<trkpt lat="47.601871" lon="8.403064">
<ele>677.3</ele>
<time>2003-07-20T12:38:11Z</time>
<speed>0.3</speed>
</trkpt>
<trkpt lat="47.601866" lon="8.403143">
<ele>677.8</ele>
<time>2003-07-20T12:38:16Z</time>
<speed>0.6</speed>
</trkpt>
<trkpt lat="47.601869" lon="8.403184">
<ele>677.5</ele>
<time>2003-07-20T12:38:21Z</time>
<speed>0.0</speed>
</trkpt>
<trkpt lat="47.601873" lon="8.403225">
<ele>677.1</ele>
<time>2003-07-20T12:38:26Z</time>
<speed>0.6</speed>
</trkpt>
<trkpt lat="47.601880" lon="8.403306">
<ele>677.8</ele>
<time>2003-07-20T12:38:31Z</time>
<speed>0.6</speed>
</trkpt>
<trkpt lat="47.601887" lon="8.403374">
<ele>678.3</ele>
<time>2003-07-20T12:38:36Z</time>
<speed>0.3</speed>
</trkpt>
<trkpt lat="47.601845" lon="8.403434">
<ele>678.6</ele>
<time>2003-07-20T12:38:41Z</time>
<speed>0.0</speed>
</trkpt>
<trkpt lat="47.601838" lon="8.403447">
<ele>678.0</ele>
<time>2003-07-20T12:38:46Z</time>
<speed>0.0</speed>
</trkpt>
<trkpt lat="47.601824" lon="8.403458">
<ele>678.0</ele>
<time>2003-07-20T12:38:51Z</time>
<speed>0.0</speed>
</trkpt>
<trkpt lat="47.601810" lon="8.403469">
<ele>678.0</ele>
<time>2003-07-20T12:38:56Z</time>
<speed>0.0</speed>
</trkpt>
<trkpt lat="47.601798" lon="8.403468">
<ele>678.0</ele>
<time>2003-07-20T12:39:01Z</time>
<speed>0.0</speed>
</trkpt>
<trkpt lat="47.601791" lon="8.403481">
<ele>677.3</ele>
<time>2003-07-20T12:39:06Z</time>
<speed>0.0</speed>
</trkpt>
<trkpt lat="47.601783" lon="8.403492">
<ele>678.1</ele>
<time>2003-07-20T12:39:11Z</time>
<speed>0.0</speed>
</trkpt>
<trkpt lat="47.601777" lon="8.403492">
<ele>677.3</ele>
<time>2003-07-20T12:39:16Z</time>
<speed>0.0</speed>
</trkpt>
<trkpt lat="47.601771" lon="8.403490">
<ele>678.0</ele>
<time>2003-07-20T12:39:21Z</time>
<speed>0.0</speed>
</trkpt>
<trkpt lat="47.601770" lon="8.403503">
<ele>678.1</ele>
<time>2003-07-20T12:39:26Z</time>
<speed>0.0</speed>
</trkpt>
<trkpt lat="47.601776" lon="8.403505">
<ele>677.4</ele>
<time>2003-07-20T12:39:31Z</time>
<speed>0.3</speed>
</trkpt>
<trkpt lat="47.601795" lon="8.403507">
<ele>678.2</ele>
<time>2003-07-20T12:39:36Z</time>
<speed>0.3</speed>
</trkpt>
<trkpt lat="47.601832" lon="8.403526">
<ele>678.6</ele>
<time>2003-07-20T12:39:41Z</time>
<speed>0.3</speed>
</trkpt>
<trkpt lat="47.601872" lon="8.403586">
<ele>678.5</ele>
<time>2003-07-20T12:39:46Z</time>
<speed>0.6</speed>
</trkpt>
<trkpt lat="47.601905" lon="8.403658">
<ele>679.2</ele>
<time>2003-07-20T12:39:51Z</time>
<speed>0.8</speed>
</trkpt>
<trkpt lat="47.601912" lon="8.403754">
<ele>678.6</ele>
<time>2003-07-20T12:39:56Z</time>
<speed>0.8</speed>
</trkpt>
<trkpt lat="47.601926" lon="8.403824">
<ele>678.5</ele>
<time>2003-07-20T12:40:01Z</time>
<speed>0.6</speed>
</trkpt>
<trkpt lat="47.601940" lon="8.403893">
<ele>678.4</ele>
<time>2003-07-20T12:40:06Z</time>
<speed>0.6</speed>
</trkpt>
<trkpt lat="47.601947" lon="8.403989">
<ele>677.7</ele>
<time>2003-07-20T12:40:11Z</time>
<speed>0.8</speed>
</trkpt>
<trkpt lat="47.601960" lon="8.404072">
<ele>677.7</ele>
<time>2003-07-20T12:40:16Z</time>
<speed>0.8</speed>
</trkpt>
<trkpt lat="47.601973" lon="8.404168">
<ele>677.8</ele>
<time>2003-07-20T12:40:21Z</time>
<speed>0.8</speed>
</trkpt>
<trkpt lat="47.601971" lon="8.404275">
<ele>677.9</ele>
<time>2003-07-20T12:40:26Z</time>
<speed>0.8</speed>
</trkpt>
<trkpt lat="47.601976" lon="8.404382">
<ele>678.8</ele>
<time>2003-07-20T12:40:31Z</time>
<speed>0.8</speed>
</trkpt>
<trkpt lat="47.602008" lon="8.404482">
<ele>678.3</ele>
<time>2003-07-20T12:40:36Z</time>
<speed>0.8</speed>
</trkpt>
<trkpt lat="47.602046" lon="8.404582">
<ele>678.5</ele>
<time>2003-07-20T12:40:41Z</time>
<speed>0.8</speed>
</trkpt>
<trkpt lat="47.602059" lon="8.404665">
<ele>678.5</ele>
<time>2003-07-20T12:40:46Z</time>
<speed>0.6</speed>
</trkpt>
<trkpt lat="47.602079" lon="8.404750">
<ele>677.8</ele>
<time>2003-07-20T12:40:51Z</time>
<speed>0.8</speed>
</trkpt>
<trkpt lat="47.602065" lon="8.404855">
<ele>677.9</ele>
<time>2003-07-20T12:40:56Z</time>
<speed>0.8</speed>
</trkpt>
<trkpt lat="47.602085" lon="8.404938">
<ele>678.6</ele>
<time>2003-07-20T12:41:01Z</time>
<speed>0.6</speed>
</trkpt>
<trkpt lat="47.602118" lon="8.405011">
<ele>677.9</ele>
<time>2003-07-20T12:41:06Z</time>
<speed>0.3</speed>
</trkpt>
<trkpt lat="47.602137" lon="8.405109">
<ele>677.4</ele>
<time>2003-07-20T12:41:11Z</time>
<speed>0.8</speed>
</trkpt>
<trkpt lat="47.602170" lon="8.405181">
<ele>678.1</ele>
<time>2003-07-20T12:41:16Z</time>
<speed>0.6</speed>
</trkpt>
<trkpt lat="47.602198" lon="8.405239">
<ele>677.9</ele>
<time>2003-07-20T12:41:21Z</time>
<speed>0.8</speed>
</trkpt>
<trkpt lat="47.602218" lon="8.405324">
<ele>677.3</ele>
<time>2003-07-20T12:41:26Z</time>
<speed>0.6</speed>
</trkpt>
<trkpt lat="47.602231" lon="8.405407">
<ele>677.3</ele>
<time>2003-07-20T12:41:31Z</time>
<speed>0.8</speed>
</trkpt>
<trkpt lat="47.602258" lon="8.405478">
<ele>677.2</ele>
<time>2003-07-20T12:41:36Z</time>
<speed>0.6</speed>
</trkpt>
<trkpt lat="47.602259" lon="8.405559">
<ele>677.2</ele>
<time>2003-07-20T12:41:41Z</time>
<speed>0.6</speed>
</trkpt>
<trkpt lat="47.602274" lon="8.405616">
<ele>677.0</ele>
<time>2003-07-20T12:41:46Z</time>
<speed>0.6</speed>
</trkpt>
<trkpt lat="47.602282" lon="8.405698">
<ele>676.2</ele>
<time>2003-07-20T12:41:51Z</time>
<speed>0.8</speed>
</trkpt>
<trkpt lat="47.602290" lon="8.405766">
<ele>676.8</ele>
<time>2003-07-20T12:41:56Z</time>
<speed>0.6</speed>
</trkpt>
<trkpt lat="47.602290" lon="8.405847">
<ele>676.7</ele>
<time>2003-07-20T12:42:01Z</time>
<speed>0.6</speed>
</trkpt>
<trkpt lat="47.602292" lon="8.405915">
<ele>676.5</ele>
<time>2003-07-20T12:42:06Z</time>
<speed>0.6</speed>
</trkpt>
<trkpt lat="47.602284" lon="8.406020">
<ele>677.3</ele>
<time>2003-07-20T12:42:11Z</time>
<speed>0.8</speed>
</trkpt>
<trkpt lat="47.602265" lon="8.406110">
<ele>677.9</ele>
<time>2003-07-20T12:42:16Z</time>
<speed>0.6</speed>
</trkpt>
<trkpt lat="47.602273" lon="8.406178">
<ele>678.5</ele>
<time>2003-07-20T12:42:21Z</time>
<speed>0.8</speed>
</trkpt>
<trkpt lat="47.602261" lon="8.406257">
<ele>678.3</ele>
<time>2003-07-20T12:42:26Z</time>
<speed>0.8</speed>
</trkpt>
<trkpt lat="47.602299" lon="8.406359">
<ele>677.2</ele>
<time>2003-07-20T12:42:31Z</time>
<speed>0.8</speed>
</trkpt>
<trkpt lat="47.602332" lon="8.406430">
<ele>677.9</ele>
<time>2003-07-20T12:42:36Z</time>
<speed>0.8</speed>
</trkpt>
<trkpt lat="47.602350" lon="8.406526">
<ele>678.7</ele>
<time>2003-07-20T12:42:41Z</time>
<speed>0.6</speed>
</trkpt>
<trkpt lat="47.602373" lon="8.406570">
<ele>679.2</ele>
<time>2003-07-20T12:42:46Z</time>
<speed>0.6</speed>
</trkpt>
<trkpt lat="47.602406" lon="8.406641">
<ele>679.9</ele>
<time>2003-07-20T12:42:51Z</time>
<speed>0.3</speed>
</trkpt>
<trkpt lat="47.602427" lon="8.406713">
<ele>679.1</ele>
<time>2003-07-20T12:42:56Z</time>
<speed>0.6</speed>
</trkpt>
<trkpt lat="47.602454" lon="8.406784">
<ele>679.1</ele>
<time>2003-07-20T12:43:01Z</time>
<speed>0.6</speed>
</trkpt>
<trkpt lat="47.602455" lon="8.406852">
<ele>678.9</ele>
<time>2003-07-20T12:43:06Z</time>
<speed>0.6</speed>
</trkpt>
<trkpt lat="47.602468" lon="8.406948">
<ele>679.0</ele>
<time>2003-07-20T12:43:11Z</time>
<speed>1.1</speed>
</trkpt>
<trkpt lat="47.602508" lon="8.407023">
<ele>677.6</ele>
<time>2003-07-20T12:43:16Z</time>
<speed>0.6</speed>
</trkpt>
<trkpt lat="47.602533" lon="8.407121">
<ele>677.8</ele>
<time>2003-07-20T12:43:21Z</time>
<speed>0.6</speed>
</trkpt>
<trkpt lat="47.602584" lon="8.407131">
<ele>676.7</ele>
<time>2003-07-20T12:43:26Z</time>
<speed>0.6</speed>
</trkpt>
<trkpt lat="47.602626" lon="8.407178">
<ele>676.5</ele>
<time>2003-07-20T12:43:31Z</time>
<speed>0.3</speed>
</trkpt>
<trkpt lat="47.602632" lon="8.407178">
<ele>677.2</ele>
<time>2003-07-20T12:43:36Z</time>
<speed>0.0</speed>
</trkpt>
<trkpt lat="47.602654" lon="8.407222">
<ele>677.7</ele>
<time>2003-07-20T12:43:41Z</time>
<speed>0.0</speed>
</trkpt>
<trkpt lat="47.602684" lon="8.407254">
<ele>677.4</ele>
<time>2003-07-20T12:43:46Z</time>
<speed>0.8</speed>
</trkpt>
<trkpt lat="47.602714" lon="8.407286">
<ele>677.0</ele>
<time>2003-07-20T12:43:51Z</time>
<speed>0.6</speed>
</trkpt>
<trkpt lat="47.602743" lon="8.407331">
<ele>676.8</ele>
<time>2003-07-20T12:43:56Z</time>
<speed>0.6</speed>
</trkpt>
<trkpt lat="47.602744" lon="8.407397">
<ele>678.0</ele>
<time>2003-07-20T12:44:01Z</time>
<speed>0.6</speed>
</trkpt>
<trkpt lat="47.602759" lon="8.407469">
<ele>676.5</ele>
<time>2003-07-20T12:44:06Z</time>
<speed>0.6</speed>
</trkpt>
<trkpt lat="47.602767" lon="8.407536">
<ele>677.1</ele>
<time>2003-07-20T12:44:11Z</time>
<speed>0.8</speed>
</trkpt>
<trkpt lat="47.602766" lon="8.407630">
<ele>677.1</ele>
<time>2003-07-20T12:44:16Z</time>
<speed>0.8</speed>
</trkpt>
<trkpt lat="47.602760" lon="8.407724">
<ele>676.4</ele>
<time>2003-07-20T12:44:21Z</time>
<speed>0.8</speed>
</trkpt>
<trkpt lat="47.602779" lon="8.407807">
<ele>677.1</ele>
<time>2003-07-20T12:44:26Z</time>
<speed>0.3</speed>
</trkpt>
<trkpt lat="47.602800" lon="8.407879">
<ele>676.4</ele>
<time>2003-07-20T12:44:31Z</time>
<speed>0.6</speed>
</trkpt>
<trkpt lat="47.602795" lon="8.407958">
<ele>677.0</ele>
<time>2003-07-20T12:44:36Z</time>
<speed>0.8</speed>
</trkpt>
<trkpt lat="47.602803" lon="8.408012">
<ele>677.4</ele>
<time>2003-07-20T12:44:41Z</time>
<speed>0.0</speed>
</trkpt>
<trkpt lat="47.602809" lon="8.408027">
<ele>676.9</ele>
<time>2003-07-20T12:44:46Z</time>
<speed>0.3</speed>
</trkpt>
<trkpt lat="47.602800" lon="8.408146">
<ele>677.7</ele>
<time>2003-07-20T12:44:51Z</time>
<speed>1.1</speed>
</trkpt>
<trkpt lat="47.602793" lon="8.408253">
<ele>677.1</ele>
<time>2003-07-20T12:44:56Z</time>
<speed>0.8</speed>
</trkpt>
<trkpt lat="47.602812" lon="8.408351">
<ele>676.6</ele>
<time>2003-07-20T12:45:01Z</time>
<speed>0.8</speed>
</trkpt>
<trkpt lat="47.602826" lon="8.408436">
<ele>675.1</ele>
<time>2003-07-20T12:45:06Z</time>
<speed>0.8</speed>
</trkpt>
<trkpt lat="47.602834" lon="8.408503">
<ele>675.7</ele>
<time>2003-07-20T12:45:11Z</time>
<speed>0.6</speed>
</trkpt>
<trkpt lat="47.602866" lon="8.408590">
<ele>675.1</ele>
<time>2003-07-20T12:45:16Z</time>
<speed>0.6</speed>
</trkpt>
<trkpt lat="47.602905" lon="8.408679">
<ele>673.8</ele>
<time>2003-07-20T12:45:21Z</time>
<speed>0.6</speed>
</trkpt>
<trkpt lat="47.602931" lon="8.408763">
<ele>673.9</ele>
<time>2003-07-20T12:45:26Z</time>
<speed>0.6</speed>
</trkpt>
<trkpt lat="47.602958" lon="8.408835">
<ele>673.9</ele>
<time>2003-07-20T12:45:31Z</time>
<speed>0.8</speed>
</trkpt>
<trkpt lat="47.602991" lon="8.408922">
<ele>673.3</ele>
<time>2003-07-20T12:45:36Z</time>
<speed>0.6</speed>
</trkpt>
<trkpt lat="47.603011" lon="8.409007">
<ele>672.6</ele>
<time>2003-07-20T12:45:41Z</time>
<speed>0.3</speed>
</trkpt>
<trkpt lat="47.603038" lon="8.409078">
<ele>672.6</ele>
<time>2003-07-20T12:45:46Z</time>
<speed>0.3</speed>
</trkpt>
<trkpt lat="47.603080" lon="8.409112">
<ele>672.3</ele>
<time>2003-07-20T12:45:51Z</time>
<speed>0.6</speed>
</trkpt>
<trkpt lat="47.603130" lon="8.409135">
<ele>671.3</ele>
<time>2003-07-20T12:45:56Z</time>
<speed>0.6</speed>
</trkpt>
<trkpt lat="47.603178" lon="8.409197">
<ele>670.6</ele>
<time>2003-07-20T12:46:01Z</time>
<speed>0.8</speed>
</trkpt>
<trkpt lat="47.603225" lon="8.409260">
<ele>669.9</ele>
<time>2003-07-20T12:46:06Z</time>
<speed>0.6</speed>
</trkpt>
<trkpt lat="47.603266" lon="8.409307">
<ele>669.7</ele>
<time>2003-07-20T12:46:11Z</time>
<speed>0.3</speed>
</trkpt>
<trkpt lat="47.603279" lon="8.409403">
<ele>669.8</ele>
<time>2003-07-20T12:46:17Z</time>
<speed>0.3</speed>
</trkpt>
<trkpt lat="47.603305" lon="8.409488">
<ele>669.9</ele>
<time>2003-07-20T12:46:22Z</time>
<speed>0.6</speed>
</trkpt>
<trkpt lat="47.603318" lon="8.409571">
<ele>669.9</ele>
<time>2003-07-20T12:46:27Z</time>
<speed>0.6</speed>
</trkpt>
<trkpt lat="47.603359" lon="8.409633">
<ele>668.4</ele>
<time>2003-07-20T12:46:32Z</time>
<speed>0.6</speed>
</trkpt>
<trkpt lat="47.603400" lon="8.409693">
<ele>668.3</ele>
<time>2003-07-20T12:46:37Z</time>
<speed>0.6</speed>
</trkpt>
<trkpt lat="47.603420" lon="8.409778">
<ele>667.7</ele>
<time>2003-07-20T12:46:42Z</time>
<speed>0.6</speed>
</trkpt>
<trkpt lat="47.603441" lon="8.409835">
<ele>668.2</ele>
<time>2003-07-20T12:46:47Z</time>
<speed>0.6</speed>
</trkpt>
<trkpt lat="47.603468" lon="8.409921">
<ele>666.9</ele>
<time>2003-07-20T12:46:52Z</time>
<speed>0.6</speed>
</trkpt>
<trkpt lat="47.603493" lon="8.410021">
<ele>665.6</ele>
<time>2003-07-20T12:46:57Z</time>
<speed>0.6</speed>
</trkpt>
<trkpt lat="47.603512" lon="8.410119">
<ele>665.0</ele>
<time>2003-07-20T12:47:02Z</time>
<speed>0.8</speed>
</trkpt>
<trkpt lat="47.603523" lon="8.410241">
<ele>665.3</ele>
<time>2003-07-20T12:47:07Z</time>
<speed>1.1</speed>
</trkpt>
<trkpt lat="47.603542" lon="8.410339">
<ele>664.8</ele>
<time>2003-07-20T12:47:12Z</time>
<speed>0.8</speed>
</trkpt>
<trkpt lat="47.603561" lon="8.410424">
<ele>664.1</ele>
<time>2003-07-20T12:47:17Z</time>
<speed>0.6</speed>
</trkpt>
<trkpt lat="47.603587" lon="8.410509">
<ele>664.2</ele>
<time>2003-07-20T12:47:22Z</time>
<speed>0.8</speed>
</trkpt>
<trkpt lat="47.603621" lon="8.410582">
<ele>663.5</ele>
<time>2003-07-20T12:47:27Z</time>
<speed>0.8</speed>
</trkpt>
<trkpt lat="47.603641" lon="8.410667">
<ele>662.8</ele>
<time>2003-07-20T12:47:32Z</time>
<speed>0.6</speed>
</trkpt>
<trkpt lat="47.603675" lon="8.410741">
<ele>662.1</ele>
<time>2003-07-20T12:47:37Z</time>
<speed>0.6</speed>
</trkpt>
<trkpt lat="47.603706" lon="8.410841">
<ele>661.6</ele>
<time>2003-07-20T12:47:42Z</time>
<speed>0.8</speed>
</trkpt>
<trkpt lat="47.603751" lon="8.410929">
<ele>661.1</ele>
<time>2003-07-20T12:47:47Z</time>
<speed>1.1</speed>
</trkpt>
<trkpt lat="47.603785" lon="8.411003">
<ele>660.4</ele>
<time>2003-07-20T12:47:52Z</time>
<speed>0.8</speed>
</trkpt>
<trkpt lat="47.603825" lon="8.411076">
<ele>660.4</ele>
<time>2003-07-20T12:47:57Z</time>
<speed>0.8</speed>
</trkpt>
<trkpt lat="47.603851" lon="8.411148">
<ele>660.4</ele>
<time>2003-07-20T12:48:02Z</time>
<speed>0.8</speed>
</trkpt>
<trkpt lat="47.603898" lon="8.411223">
<ele>659.8</ele>
<time>2003-07-20T12:48:07Z</time>
<speed>1.1</speed>
</trkpt>
<trkpt lat="47.603943" lon="8.411312">
<ele>659.2</ele>
<time>2003-07-20T12:48:12Z</time>
<speed>1.1</speed>
</trkpt>
<trkpt lat="47.603995" lon="8.411388">
<ele>659.3</ele>
<time>2003-07-20T12:48:17Z</time>
<speed>1.4</speed>
</trkpt>
<trkpt lat="47.604055" lon="8.411452">
<ele>658.7</ele>
<time>2003-07-20T12:48:22Z</time>
<speed>1.1</speed>
</trkpt>
<trkpt lat="47.604108" lon="8.411514">
<ele>658.7</ele>
<time>2003-07-20T12:48:27Z</time>
<speed>1.4</speed>
</trkpt>
<trkpt lat="47.604169" lon="8.411565">
<ele>657.9</ele>
<time>2003-07-20T12:48:32Z</time>
<speed>1.1</speed>
</trkpt>
<trkpt lat="47.604223" lon="8.411614">
<ele>657.9</ele>
<time>2003-07-20T12:48:37Z</time>
<speed>1.1</speed>
</trkpt>
<trkpt lat="47.604278" lon="8.411651">
<ele>657.7</ele>
<time>2003-07-20T12:48:42Z</time>
<speed>1.1</speed>
</trkpt>
<trkpt lat="47.604322" lon="8.411671">
<ele>657.3</ele>
<time>2003-07-20T12:48:47Z</time>
<speed>0.0</speed>
</trkpt>
<trkpt lat="47.604341" lon="8.411675">
<ele>656.7</ele>
<time>2003-07-20T12:48:52Z</time>
<speed>1.1</speed>
</trkpt>
<trkpt lat="47.604391" lon="8.411696">
<ele>657.1</ele>
<time>2003-07-20T12:48:57Z</time>
<speed>0.8</speed>
</trkpt>
<trkpt lat="47.604430" lon="8.411785">
<ele>655.8</ele>
<time>2003-07-20T12:49:02Z</time>
<speed>1.1</speed>
</trkpt>
<trkpt lat="47.604437" lon="8.411868">
<ele>655.1</ele>
<time>2003-07-20T12:49:07Z</time>
<speed>1.4</speed>
</trkpt>
<trkpt lat="47.604436" lon="8.411975">
<ele>655.2</ele>
<time>2003-07-20T12:49:12Z</time>
<speed>1.1</speed>
</trkpt>
<trkpt lat="47.604429" lon="8.412082">
<ele>654.6</ele>
<time>2003-07-20T12:49:17Z</time>
<speed>1.4</speed>
</trkpt>
<trkpt lat="47.604422" lon="8.412176">
<ele>653.9</ele>
<time>2003-07-20T12:49:22Z</time>
<speed>1.4</speed>
</trkpt>
<trkpt lat="47.604416" lon="8.412270">
<ele>653.2</ele>
<time>2003-07-20T12:49:27Z</time>
<speed>1.4</speed>
</trkpt>
<trkpt lat="47.604397" lon="8.412362">
<ele>652.4</ele>
<time>2003-07-20T12:49:32Z</time>
<speed>1.4</speed>
</trkpt>
<trkpt lat="47.604385" lon="8.412441">
<ele>652.2</ele>
<time>2003-07-20T12:49:37Z</time>
<speed>1.4</speed>
</trkpt>
<trkpt lat="47.604366" lon="8.412533">
<ele>651.5</ele>
<time>2003-07-20T12:49:42Z</time>
<speed>1.4</speed>
</trkpt>
<trkpt lat="47.604353" lon="8.412625">
<ele>651.4</ele>
<time>2003-07-20T12:49:47Z</time>
<speed>1.4</speed>
</trkpt>
<trkpt lat="47.604360" lon="8.412721">
<ele>650.8</ele>
<time>2003-07-20T12:49:52Z</time>
<speed>1.1</speed>
</trkpt>
<trkpt lat="47.604367" lon="8.412804">
<ele>650.0</ele>
<time>2003-07-20T12:49:57Z</time>
<speed>1.4</speed>
</trkpt>
<trkpt lat="47.604374" lon="8.412887">
<ele>649.3</ele>
<time>2003-07-20T12:50:02Z</time>
<speed>1.1</speed>
</trkpt>
<trkpt lat="47.604387" lon="8.412983">
<ele>649.4</ele>
<time>2003-07-20T12:50:07Z</time>
<speed>1.4</speed>
</trkpt>
<trkpt lat="47.604380" lon="8.413077">
<ele>648.7</ele>
<time>2003-07-20T12:50:12Z</time>
<speed>1.4</speed>
</trkpt>
<trkpt lat="47.604386" lon="8.413186">
<ele>648.1</ele>
<time>2003-07-20T12:50:17Z</time>
<speed>1.4</speed>
</trkpt>
<trkpt lat="47.604387" lon="8.413269">
<ele>646.6</ele>
<time>2003-07-20T12:50:22Z</time>
<speed>1.1</speed>
</trkpt>
<trkpt lat="47.604387" lon="8.413363">
<ele>646.7</ele>
<time>2003-07-20T12:50:27Z</time>
<speed>1.1</speed>
</trkpt>
<trkpt lat="47.604374" lon="8.413455">
<ele>646.6</ele>
<time>2003-07-20T12:50:32Z</time>
<speed>1.4</speed>
</trkpt>
<trkpt lat="47.604381" lon="8.413538">
<ele>645.9</ele>
<time>2003-07-20T12:50:37Z</time>
<speed>0.8</speed>
</trkpt>
<trkpt lat="47.604375" lon="8.413632">
<ele>645.2</ele>
<time>2003-07-20T12:50:42Z</time>
<speed>1.1</speed>
</trkpt>
<trkpt lat="47.604362" lon="8.413724">
<ele>645.1</ele>
<time>2003-07-20T12:50:47Z</time>
<speed>1.1</speed>
</trkpt>
<trkpt lat="47.604349" lon="8.413831">
<ele>643.8</ele>
<time>2003-07-20T12:50:52Z</time>
<speed>1.1</speed>
</trkpt>
<trkpt lat="47.604337" lon="8.413910">
<ele>643.6</ele>
<time>2003-07-20T12:50:57Z</time>
<speed>1.4</speed>
</trkpt>
<trkpt lat="47.604330" lon="8.414017">
<ele>643.0</ele>
<time>2003-07-20T12:51:02Z</time>
<speed>1.4</speed>
</trkpt>
<trkpt lat="47.604317" lon="8.414109">
<ele>642.9</ele>
<time>2003-07-20T12:51:07Z</time>
<speed>1.4</speed>
</trkpt>
<trkpt lat="47.604310" lon="8.414203">
<ele>642.2</ele>
<time>2003-07-20T12:51:12Z</time>
<speed>1.4</speed>
</trkpt>
<trkpt lat="47.604310" lon="8.414297">
<ele>642.3</ele>
<time>2003-07-20T12:51:17Z</time>
<speed>1.4</speed>
</trkpt>
<trkpt lat="47.604316" lon="8.414393">
<ele>641.6</ele>
<time>2003-07-20T12:51:22Z</time>
<speed>1.4</speed>
</trkpt>
<trkpt lat="47.604330" lon="8.414476">
<ele>641.6</ele>
<time>2003-07-20T12:51:27Z</time>
<speed>1.1</speed>
</trkpt>
<trkpt lat="47.604331" lon="8.414557">
<ele>641.5</ele>
<time>2003-07-20T12:51:32Z</time>
<speed>1.1</speed>
</trkpt>
<trkpt lat="47.604337" lon="8.414653">
<ele>640.9</ele>
<time>2003-07-20T12:51:37Z</time>
<speed>1.1</speed>
</trkpt>
<trkpt lat="47.604338" lon="8.414734">
<ele>640.8</ele>
<time>2003-07-20T12:51:42Z</time>
<speed>1.1</speed>
</trkpt>
<trkpt lat="47.604337" lon="8.414828">
<ele>640.8</ele>
<time>2003-07-20T12:51:47Z</time>
<speed>1.1</speed>
</trkpt>
<trkpt lat="47.604323" lon="8.414946">
<ele>641.0</ele>
<time>2003-07-20T12:51:52Z</time>
<speed>1.4</speed>
</trkpt>
<trkpt lat="47.604335" lon="8.415042">
<ele>641.1</ele>
<time>2003-07-20T12:51:57Z</time>
<speed>1.1</speed>
</trkpt>
<trkpt lat="47.604336" lon="8.415123">
<ele>641.0</ele>
<time>2003-07-20T12:52:02Z</time>
<speed>0.8</speed>
</trkpt>
<trkpt lat="47.604350" lon="8.415193">
<ele>640.9</ele>
<time>2003-07-20T12:52:07Z</time>
<speed>0.8</speed>
</trkpt>
<trkpt lat="47.604363" lon="8.415289">
<ele>641.0</ele>
<time>2003-07-20T12:52:12Z</time>
<speed>0.8</speed>
</trkpt>
<trkpt lat="47.604369" lon="8.415385">
<ele>640.4</ele>
<time>2003-07-20T12:52:17Z</time>
<speed>0.8</speed>
</trkpt>
<trkpt lat="47.604355" lon="8.415490">
<ele>640.4</ele>
<time>2003-07-20T12:52:22Z</time>
<speed>0.8</speed>
</trkpt>
<trkpt lat="47.604342" lon="8.415582">
<ele>640.4</ele>
<time>2003-07-20T12:52:27Z</time>
<speed>0.8</speed>
</trkpt>
<trkpt lat="47.604349" lon="8.415665">
<ele>639.6</ele>
<time>2003-07-20T12:52:32Z</time>
<speed>0.8</speed>
</trkpt>
<trkpt lat="47.604350" lon="8.415746">
<ele>639.5</ele>
<time>2003-07-20T12:52:37Z</time>
<speed>1.1</speed>
</trkpt>
<trkpt lat="47.604350" lon="8.415840">
<ele>639.6</ele>
<time>2003-07-20T12:52:42Z</time>
<speed>0.8</speed>
</trkpt>
<trkpt lat="47.604350" lon="8.415934">
<ele>639.6</ele>
<time>2003-07-20T12:52:47Z</time>
<speed>0.8</speed>
</trkpt>
<trkpt lat="47.604362" lon="8.416030">
<ele>639.7</ele>
<time>2003-07-20T12:52:52Z</time>
<speed>1.4</speed>
</trkpt>
<trkpt lat="47.604355" lon="8.416137">
<ele>639.1</ele>
<time>2003-07-20T12:52:57Z</time>
<speed>1.1</speed>
</trkpt>
<trkpt lat="47.604375" lon="8.416222">
<ele>638.4</ele>
<time>2003-07-20T12:53:02Z</time>
<speed>1.1</speed>
</trkpt>
<trkpt lat="47.604381" lon="8.416318">
<ele>637.8</ele>
<time>2003-07-20T12:53:07Z</time>
<speed>1.1</speed>
</trkpt>
<trkpt lat="47.604382" lon="8.416399">
<ele>637.7</ele>
<time>2003-07-20T12:53:12Z</time>
<speed>1.1</speed>
</trkpt>
<trkpt lat="47.604376" lon="8.416493">
<ele>637.0</ele>
<time>2003-07-20T12:53:17Z</time>
<speed>1.1</speed>
</trkpt>
<trkpt lat="47.604381" lon="8.416587">
<ele>637.7</ele>
<time>2003-07-20T12:53:22Z</time>
<speed>0.8</speed>
</trkpt>
<trkpt lat="47.604389" lon="8.416669">
<ele>637.0</ele>
<time>2003-07-20T12:53:27Z</time>
<speed>0.8</speed>
</trkpt>
<trkpt lat="47.604401" lon="8.416765">
<ele>637.1</ele>
<time>2003-07-20T12:53:32Z</time>
<speed>0.8</speed>
</trkpt>
<trkpt lat="47.604407" lon="8.416861">
<ele>636.4</ele>
<time>2003-07-20T12:53:37Z</time>
<speed>1.1</speed>
</trkpt>
<trkpt lat="47.604394" lon="8.416967">
<ele>636.5</ele>
<time>2003-07-20T12:53:42Z</time>
<speed>1.1</speed>
</trkpt>
<trkpt lat="47.604371" lon="8.417096">
<ele>637.4</ele>
<time>2003-07-20T12:53:47Z</time>
<speed>1.4</speed>
</trkpt>
<trkpt lat="47.604357" lon="8.417201">
<ele>637.5</ele>
<time>2003-07-20T12:53:52Z</time>
<speed>1.1</speed>
</trkpt>
<trkpt lat="47.604369" lon="8.417311">
<ele>637.7</ele>
<time>2003-07-20T12:53:57Z</time>
<speed>1.4</speed>
</trkpt>
<trkpt lat="47.604355" lon="8.417416">
<ele>637.7</ele>
<time>2003-07-20T12:54:02Z</time>
<speed>1.1</speed>
</trkpt>
<trkpt lat="47.604368" lon="8.417499">
<ele>637.7</ele>
<time>2003-07-20T12:54:07Z</time>
<speed>0.8</speed>
</trkpt>
<trkpt lat="47.604348" lon="8.417602">
<ele>638.4</ele>
<time>2003-07-20T12:54:12Z</time>
<speed>1.1</speed>
</trkpt>
<trkpt lat="47.604341" lon="8.417694">
<ele>639.1</ele>
<time>2003-07-20T12:54:17Z</time>
<speed>1.1</speed>
</trkpt>
<trkpt lat="47.604335" lon="8.417773">
<ele>639.7</ele>
<time>2003-07-20T12:54:22Z</time>
<speed>1.1</speed>
</trkpt>
<trkpt lat="47.604316" lon="8.417863">
<ele>640.3</ele>
<time>2003-07-20T12:54:27Z</time>
<speed>0.8</speed>
</trkpt>
<trkpt lat="47.604302" lon="8.417953">
<ele>641.7</ele>
<time>2003-07-20T12:54:32Z</time>
<speed>1.1</speed>
</trkpt>
<trkpt lat="47.604295" lon="8.418058">
<ele>642.5</ele>
<time>2003-07-20T12:54:37Z</time>
<speed>0.8</speed>
</trkpt>
<trkpt lat="47.604282" lon="8.418150">
<ele>642.4</ele>
<time>2003-07-20T12:54:42Z</time>
<speed>0.8</speed>
</trkpt>
<trkpt lat="47.604261" lon="8.418254">
<ele>643.1</ele>
<time>2003-07-20T12:54:47Z</time>
<speed>1.4</speed>
</trkpt>
<trkpt lat="47.604241" lon="8.418357">
<ele>643.9</ele>
<time>2003-07-20T12:54:52Z</time>
<speed>1.1</speed>
</trkpt>
<trkpt lat="47.604208" lon="8.418458">
<ele>644.5</ele>
<time>2003-07-20T12:54:57Z</time>
<speed>1.1</speed>
</trkpt>
<trkpt lat="47.604189" lon="8.418549">
<ele>645.1</ele>
<time>2003-07-20T12:55:02Z</time>
<speed>1.1</speed>
</trkpt>
<trkpt lat="47.604176" lon="8.418641">
<ele>645.1</ele>
<time>2003-07-20T12:55:07Z</time>
<speed>1.1</speed>
</trkpt>
<trkpt lat="47.604155" lon="8.418744">
<ele>645.8</ele>
<time>2003-07-20T12:55:12Z</time>
<speed>0.8</speed>
</trkpt>
<trkpt lat="47.604155" lon="8.418838">
<ele>645.8</ele>
<time>2003-07-20T12:55:17Z</time>
<speed>1.1</speed>
</trkpt>
<trkpt lat="47.604122" lon="8.418939">
<ele>646.5</ele>
<time>2003-07-20T12:55:22Z</time>
<speed>1.1</speed>
</trkpt>
<trkpt lat="47.604107" lon="8.419058">
<ele>646.6</ele>
<time>2003-07-20T12:55:27Z</time>
<speed>1.1</speed>
</trkpt>
<trkpt lat="47.604073" lon="8.419172">
<ele>647.4</ele>
<time>2003-07-20T12:55:32Z</time>
<speed>1.4</speed>
</trkpt>
<trkpt lat="47.604054" lon="8.419264">
<ele>646.6</ele>
<time>2003-07-20T12:55:37Z</time>
<speed>1.4</speed>
</trkpt>
<trkpt lat="47.604040" lon="8.419368">
<ele>648.0</ele>
<time>2003-07-20T12:55:42Z</time>
<speed>1.1</speed>
</trkpt>
<trkpt lat="47.604020" lon="8.419473">
<ele>647.3</ele>
<time>2003-07-20T12:55:47Z</time>
<speed>1.1</speed>
</trkpt>
<trkpt lat="47.604014" lon="8.419552">
<ele>647.9</ele>
<time>2003-07-20T12:55:52Z</time>
<speed>1.1</speed>
</trkpt>
<trkpt lat="47.604001" lon="8.419644">
<ele>647.9</ele>
<time>2003-07-20T12:55:57Z</time>
<speed>1.4</speed>
</trkpt>
<trkpt lat="47.603988" lon="8.419736">
<ele>647.8</ele>
<time>2003-07-20T12:56:02Z</time>
<speed>0.8</speed>
</trkpt>
<trkpt lat="47.603990" lon="8.419819">
<ele>646.4</ele>
<time>2003-07-20T12:56:07Z</time>
<speed>1.1</speed>
</trkpt>
<trkpt lat="47.603990" lon="8.419900">
<ele>646.3</ele>
<time>2003-07-20T12:56:12Z</time>
<speed>0.8</speed>
</trkpt>
<trkpt lat="47.603985" lon="8.419980">
<ele>645.5</ele>
<time>2003-07-20T12:56:17Z</time>
<speed>0.8</speed>
</trkpt>
<trkpt lat="47.603973" lon="8.420074">
<ele>644.0</ele>
<time>2003-07-20T12:56:22Z</time>
<speed>1.1</speed>
</trkpt>
<trkpt lat="47.603946" lon="8.420178">
<ele>644.0</ele>
<time>2003-07-20T12:56:27Z</time>
<speed>1.4</speed>
</trkpt>
<trkpt lat="47.603925" lon="8.420296">
<ele>643.4</ele>
<time>2003-07-20T12:56:32Z</time>
<speed>1.4</speed>
</trkpt>
<trkpt lat="47.603913" lon="8.420390">
<ele>642.0</ele>
<time>2003-07-20T12:56:37Z</time>
<speed>1.4</speed>
</trkpt>
<trkpt lat="47.603894" lon="8.420482">
<ele>641.2</ele>
<time>2003-07-20T12:56:42Z</time>
<speed>1.4</speed>
</trkpt>
<trkpt lat="47.603875" lon="8.420574">
<ele>640.4</ele>
<time>2003-07-20T12:56:47Z</time>
<speed>1.4</speed>
</trkpt>
<trkpt lat="47.603863" lon="8.420668">
<ele>638.9</ele>
<time>2003-07-20T12:56:52Z</time>
<speed>1.4</speed>
</trkpt>
<trkpt lat="47.603850" lon="8.420760">
<ele>638.9</ele>
<time>2003-07-20T12:56:57Z</time>
<speed>1.4</speed>
</trkpt>
<trkpt lat="47.603838" lon="8.420839">
<ele>638.7</ele>
<time>2003-07-20T12:57:02Z</time>
<speed>1.7</speed>
</trkpt>
<trkpt lat="47.603819" lon="8.420946">
<ele>636.6</ele>
<time>2003-07-20T12:57:07Z</time>
<speed>1.4</speed>
</trkpt>
<trkpt lat="47.603806" lon="8.421039">
<ele>636.6</ele>
<time>2003-07-20T12:57:12Z</time>
<speed>1.4</speed>
</trkpt>
<trkpt lat="47.603787" lon="8.421131">
<ele>635.8</ele>
<time>2003-07-20T12:57:17Z</time>
<speed>1.1</speed>
</trkpt>
<trkpt lat="47.603768" lon="8.421223">
<ele>635.0</ele>
<time>2003-07-20T12:57:22Z</time>
<speed>1.4</speed>
</trkpt>
<trkpt lat="47.603742" lon="8.421313">
<ele>634.9</ele>
<time>2003-07-20T12:57:27Z</time>
<speed>1.4</speed>
</trkpt>
<trkpt lat="47.603723" lon="8.421405">
<ele>634.1</ele>
<time>2003-07-20T12:57:32Z</time>
<speed>1.7</speed>
</trkpt>
<trkpt lat="47.603703" lon="8.421510">
<ele>633.4</ele>
<time>2003-07-20T12:57:37Z</time>
<speed>1.4</speed>
</trkpt>
<trkpt lat="47.603691" lon="8.421602">
<ele>633.4</ele>
<time>2003-07-20T12:57:42Z</time>
<speed>1.4</speed>
</trkpt>
<trkpt lat="47.603672" lon="8.421694">
<ele>632.6</ele>
<time>2003-07-20T12:57:47Z</time>
<speed>1.4</speed>
</trkpt>
<trkpt lat="47.603653" lon="8.421786">
<ele>631.8</ele>
<time>2003-07-20T12:57:52Z</time>
<speed>1.4</speed>
</trkpt>
<trkpt lat="47.603646" lon="8.421880">
<ele>631.1</ele>
<time>2003-07-20T12:57:57Z</time>
<speed>1.4</speed>
</trkpt>
<trkpt lat="47.603634" lon="8.421974">
<ele>629.7</ele>
<time>2003-07-20T12:58:02Z</time>
<speed>1.7</speed>
</trkpt>
<trkpt lat="47.603620" lon="8.422080">
<ele>629.7</ele>
<time>2003-07-20T12:58:07Z</time>
<speed>1.4</speed>
</trkpt>
<trkpt lat="47.603614" lon="8.422174">
<ele>629.0</ele>
<time>2003-07-20T12:58:12Z</time>
<speed>1.4</speed>
</trkpt>
<trkpt lat="47.603600" lon="8.422279">
<ele>629.0</ele>
<time>2003-07-20T12:58:17Z</time>
<speed>1.4</speed>
</trkpt>
<trkpt lat="47.603587" lon="8.422386">
<ele>627.7</ele>
<time>2003-07-20T12:58:22Z</time>
<speed>1.4</speed>
</trkpt>
<trkpt lat="47.603580" lon="8.422480">
<ele>627.0</ele>
<time>2003-07-20T12:58:27Z</time>
<speed>1.4</speed>
</trkpt>
<trkpt lat="47.603567" lon="8.422572">
<ele>626.9</ele>
<time>2003-07-20T12:58:32Z</time>
<speed>1.4</speed>
</trkpt>
<trkpt lat="47.603555" lon="8.422664">
<ele>626.9</ele>
<time>2003-07-20T12:58:37Z</time>
<speed>1.4</speed>
</trkpt>
<trkpt lat="47.603541" lon="8.422770">
<ele>626.9</ele>
<time>2003-07-20T12:58:42Z</time>
<speed>1.4</speed>
</trkpt>
<trkpt lat="47.603527" lon="8.422875">
<ele>627.0</ele>
<time>2003-07-20T12:58:47Z</time>
<speed>1.4</speed>
</trkpt>
<trkpt lat="47.603508" lon="8.422967">
<ele>626.2</ele>
<time>2003-07-20T12:58:52Z</time>
<speed>1.4</speed>
</trkpt>
<trkpt lat="47.603488" lon="8.423070">
<ele>626.9</ele>
<time>2003-07-20T12:58:57Z</time>
<speed>1.1</speed>
</trkpt>
<trkpt lat="47.603488" lon="8.423151">
<ele>626.8</ele>
<time>2003-07-20T12:59:02Z</time>
<speed>1.1</speed>
</trkpt>
<trkpt lat="47.603475" lon="8.423243">
<ele>626.8</ele>
<time>2003-07-20T12:59:07Z</time>
<speed>1.4</speed>
</trkpt>
<trkpt lat="47.603463" lon="8.423335">
<ele>626.7</ele>
<time>2003-07-20T12:59:12Z</time>
<speed>1.1</speed>
</trkpt>
<trkpt lat="47.603442" lon="8.423438">
<ele>627.5</ele>
<time>2003-07-20T12:59:17Z</time>
<speed>1.4</speed>
</trkpt>
<trkpt lat="47.603429" lon="8.423531">
<ele>627.4</ele>
<time>2003-07-20T12:59:22Z</time>
<speed>1.4</speed>
</trkpt>
<trkpt lat="47.603416" lon="8.423623">
<ele>627.4</ele>
<time>2003-07-20T12:59:27Z</time>
<speed>1.4</speed>
</trkpt>
<trkpt lat="47.603404" lon="8.423715">
<ele>627.3</ele>
<time>2003-07-20T12:59:32Z</time>
<speed>1.1</speed>
</trkpt>
<trkpt lat="47.603391" lon="8.423807">
<ele>627.3</ele>
<time>2003-07-20T12:59:37Z</time>
<speed>1.4</speed>
</trkpt>
<trkpt lat="47.603377" lon="8.423912">
<ele>627.3</ele>
<time>2003-07-20T12:59:42Z</time>
<speed>1.1</speed>
</trkpt>
<trkpt lat="47.603357" lon="8.424017">
<ele>626.6</ele>
<time>2003-07-20T12:59:47Z</time>
<speed>1.4</speed>
</trkpt>
<trkpt lat="47.603344" lon="8.424109">
<ele>626.6</ele>
<time>2003-07-20T12:59:52Z</time>
<speed>1.4</speed>
</trkpt>
<trkpt lat="47.603330" lon="8.424215">
<ele>626.6</ele>
<time>2003-07-20T12:59:57Z</time>
<speed>1.4</speed>
</trkpt>
<trkpt lat="47.603317" lon="8.424307">
<ele>626.6</ele>
<time>2003-07-20T13:00:02Z</time>
<speed>1.4</speed>
</trkpt>
<trkpt lat="47.603303" lon="8.424412">
<ele>626.7</ele>
<time>2003-07-20T13:00:07Z</time>
<speed>1.4</speed>
</trkpt>
<trkpt lat="47.603303" lon="8.424506">
<ele>626.7</ele>
<time>2003-07-20T13:00:12Z</time>
<speed>1.1</speed>
</trkpt>
<trkpt lat="47.603290" lon="8.424598">
<ele>626.6</ele>
<time>2003-07-20T13:00:17Z</time>
<speed>1.1</speed>
</trkpt>
<trkpt lat="47.603304" lon="8.424681">
<ele>626.6</ele>
<time>2003-07-20T13:00:22Z</time>
<speed>0.8</speed>
</trkpt>
<trkpt lat="47.603304" lon="8.424681">
<ele>626.6</ele>
<time>2003-07-20T13:00:27Z</time>
<speed>0.0</speed>
</trkpt>
<trkpt lat="47.603307" lon="8.424722">
<ele>626.3</ele>
<time>2003-07-20T13:00:32Z</time>
<speed>1.1</speed>
</trkpt>
<trkpt lat="47.603301" lon="8.424816">
<ele>625.5</ele>
<time>2003-07-20T13:00:37Z</time>
<speed>1.4</speed>
</trkpt>
<trkpt lat="47.603294" lon="8.424908">
<ele>626.2</ele>
<time>2003-07-20T13:00:42Z</time>
<speed>1.1</speed>
</trkpt>
<trkpt lat="47.603293" lon="8.425015">
<ele>626.4</ele>
<time>2003-07-20T13:00:47Z</time>
<speed>1.4</speed>
</trkpt>
<trkpt lat="47.603292" lon="8.425123">
<ele>626.5</ele>
<time>2003-07-20T13:00:52Z</time>
<speed>1.1</speed>
</trkpt>
<trkpt lat="47.603291" lon="8.425230">
<ele>626.6</ele>
<time>2003-07-20T13:00:57Z</time>
<speed>1.4</speed>
</trkpt>
<trkpt lat="47.603297" lon="8.425326">
<ele>626.0</ele>
<time>2003-07-20T13:01:02Z</time>
<speed>1.4</speed>
</trkpt>
<trkpt lat="47.603297" lon="8.425420">
<ele>626.0</ele>
<time>2003-07-20T13:01:07Z</time>
<speed>1.4</speed>
</trkpt>
<trkpt lat="47.603295" lon="8.425527">
<ele>626.1</ele>
<time>2003-07-20T13:01:12Z</time>
<speed>1.4</speed>
</trkpt>
<trkpt lat="47.603302" lon="8.425623">
<ele>625.5</ele>
<time>2003-07-20T13:01:17Z</time>
<speed>1.4</speed>
</trkpt>
<trkpt lat="47.603295" lon="8.425717">
<ele>624.8</ele>
<time>2003-07-20T13:01:22Z</time>
<speed>1.4</speed>
</trkpt>
<trkpt lat="47.603294" lon="8.425824">
<ele>624.9</ele>
<time>2003-07-20T13:01:27Z</time>
<speed>1.4</speed>
</trkpt>
<trkpt lat="47.603293" lon="8.425931">
<ele>625.0</ele>
<time>2003-07-20T13:01:32Z</time>
<speed>1.4</speed>
</trkpt>
<trkpt lat="47.603293" lon="8.426025">
<ele>625.0</ele>
<time>2003-07-20T13:01:37Z</time>
<speed>1.4</speed>
</trkpt>
<trkpt lat="47.603286" lon="8.426133">
<ele>624.4</ele>
<time>2003-07-20T13:01:42Z</time>
<speed>1.4</speed>
</trkpt>
<trkpt lat="47.603285" lon="8.426227">
<ele>624.4</ele>
<time>2003-07-20T13:01:47Z</time>
<speed>1.4</speed>
</trkpt>
<trkpt lat="47.603285" lon="8.426321">
<ele>624.5</ele>
<time>2003-07-20T13:01:52Z</time>
<speed>1.4</speed>
</trkpt>
<trkpt lat="47.603279" lon="8.426415">
<ele>623.7</ele>
<time>2003-07-20T13:01:57Z</time>
<speed>1.1</speed>
</trkpt>
<trkpt lat="47.603272" lon="8.426507">
<ele>624.4</ele>
<time>2003-07-20T13:02:02Z</time>
<speed>0.3</speed>
</trkpt>
<trkpt lat="47.603262" lon="8.426544">
<ele>625.4</ele>
<time>2003-07-20T13:02:07Z</time>
<speed>1.1</speed>
</trkpt>
<trkpt lat="47.603237" lon="8.426634">
<ele>625.3</ele>
<time>2003-07-20T13:02:12Z</time>
<speed>0.8</speed>
</trkpt>
<trkpt lat="47.603231" lon="8.426713">
<ele>625.9</ele>
<time>2003-07-20T13:02:17Z</time>
<speed>0.8</speed>
</trkpt>
<trkpt lat="47.603219" lon="8.426792">
<ele>625.7</ele>
<time>2003-07-20T13:02:22Z</time>
<speed>1.1</speed>
</trkpt>
<trkpt lat="47.603212" lon="8.426884">
<ele>626.4</ele>
<time>2003-07-20T13:02:27Z</time>
<speed>1.1</speed>
</trkpt>
<trkpt lat="47.603201" lon="8.426948">
<ele>627.6</ele>
<time>2003-07-20T13:02:32Z</time>
<speed>0.0</speed>
</trkpt>
<trkpt lat="47.603194" lon="8.426946">
<ele>628.2</ele>
<time>2003-07-20T13:02:37Z</time>
<speed>0.0</speed>
</trkpt>
<trkpt lat="47.603193" lon="8.426957">
<ele>629.8</ele>
<time>2003-07-20T13:02:42Z</time>
<speed>0.0</speed>
</trkpt>
<trkpt lat="47.603198" lon="8.426970">
<ele>630.6</ele>
<time>2003-07-20T13:02:47Z</time>
<speed>0.0</speed>
</trkpt>
<trkpt lat="47.603190" lon="8.426982">
<ele>631.4</ele>
<time>2003-07-20T13:02:52Z</time>
<speed>0.0</speed>
</trkpt>
<trkpt lat="47.603189" lon="8.426993">
<ele>632.9</ele>
<time>2003-07-20T13:02:57Z</time>
<speed>0.0</speed>
</trkpt>
<trkpt lat="47.603194" lon="8.427004">
<ele>635.1</ele>
<time>2003-07-20T13:03:02Z</time>
<speed>0.0</speed>
</trkpt>
<trkpt lat="47.603192" lon="8.427015">
<ele>636.6</ele>
<time>2003-07-20T13:03:07Z</time>
<speed>0.0</speed>
</trkpt>
<trkpt lat="47.603190" lon="8.427040">
<ele>638.2</ele>
<time>2003-07-20T13:03:12Z</time>
<speed>0.0</speed>
</trkpt>
<trkpt lat="47.603189" lon="8.427038">
<ele>639.6</ele>
<time>2003-07-20T13:03:17Z</time>
<speed>0.0</speed>
</trkpt>
<trkpt lat="47.603202" lon="8.427040">
<ele>639.7</ele>
<time>2003-07-20T13:03:22Z</time>
<speed>0.8</speed>
</trkpt>
<trkpt lat="47.603170" lon="8.427130">
<ele>638.8</ele>
<time>2003-07-20T13:03:27Z</time>
<speed>1.1</speed>
</trkpt>
<trkpt lat="47.603138" lon="8.427218">
<ele>639.4</ele>
<time>2003-07-20T13:03:32Z</time>
<speed>1.4</speed>
</trkpt>
<trkpt lat="47.603106" lon="8.427306">
<ele>639.9</ele>
<time>2003-07-20T13:03:37Z</time>
<speed>1.4</speed>
</trkpt>
<trkpt lat="47.603073" lon="8.427407">
<ele>640.6</ele>
<time>2003-07-20T13:03:42Z</time>
<speed>1.4</speed>
</trkpt>
<trkpt lat="47.603041" lon="8.427496">
<ele>641.1</ele>
<time>2003-07-20T13:03:47Z</time>
<speed>1.7</speed>
</trkpt>
<trkpt lat="47.603002" lon="8.427597">
<ele>641.0</ele>
<time>2003-07-20T13:03:52Z</time>
<speed>1.4</speed>
</trkpt>
<trkpt lat="47.602976" lon="8.427687">
<ele>640.9</ele>
<time>2003-07-20T13:03:57Z</time>
<speed>1.4</speed>
</trkpt>
<trkpt lat="47.602943" lon="8.427788">
<ele>641.6</ele>
<time>2003-07-20T13:04:02Z</time>
<speed>1.7</speed>
</trkpt>
<trkpt lat="47.602930" lon="8.427881">
<ele>641.5</ele>
<time>2003-07-20T13:04:07Z</time>
<speed>1.4</speed>
</trkpt>
<trkpt lat="47.602911" lon="8.427973">
<ele>640.7</ele>
<time>2003-07-20T13:04:12Z</time>
<speed>1.4</speed>
</trkpt>
<trkpt lat="47.602886" lon="8.428063">
<ele>640.6</ele>
<time>2003-07-20T13:04:17Z</time>
<speed>1.4</speed>
</trkpt>
<trkpt lat="47.602854" lon="8.428151">
<ele>641.2</ele>
<time>2003-07-20T13:04:22Z</time>
<speed>1.4</speed>
</trkpt>
<trkpt lat="47.602822" lon="8.428241">
<ele>640.3</ele>
<time>2003-07-20T13:04:27Z</time>
<speed>1.4</speed>
</trkpt>
<trkpt lat="47.602785" lon="8.428316">
<ele>640.0</ele>
<time>2003-07-20T13:04:32Z</time>
<speed>1.4</speed>
</trkpt>
<trkpt lat="47.602741" lon="8.428389">
<ele>640.4</ele>
<time>2003-07-20T13:04:37Z</time>
<speed>1.4</speed>
</trkpt>
<trkpt lat="47.602703" lon="8.428477">
<ele>640.2</ele>
<time>2003-07-20T13:04:42Z</time>
<speed>1.4</speed>
</trkpt>
<trkpt lat="47.602658" lon="8.428564">
<ele>640.7</ele>
<time>2003-07-20T13:04:47Z</time>
<speed>1.4</speed>
</trkpt>
<trkpt lat="47.602615" lon="8.428639">
<ele>639.7</ele>
<time>2003-07-20T13:04:52Z</time>
<speed>1.4</speed>
</trkpt>
<trkpt lat="47.602603" lon="8.428717">
<ele>639.5</ele>
<time>2003-07-20T13:04:57Z</time>
<speed>1.4</speed>
</trkpt>
<trkpt lat="47.602573" lon="8.428794">
<ele>638.6</ele>
<time>2003-07-20T13:05:02Z</time>
<speed>1.4</speed>
</trkpt>
<trkpt lat="47.602535" lon="8.428883">
<ele>638.4</ele>
<time>2003-07-20T13:05:07Z</time>
<speed>1.7</speed>
</trkpt>
<trkpt lat="47.602509" lon="8.428973">
<ele>638.2</ele>
<time>2003-07-20T13:05:12Z</time>
<speed>1.4</speed>
</trkpt>
<trkpt lat="47.602478" lon="8.429050">
<ele>637.3</ele>
<time>2003-07-20T13:05:17Z</time>
<speed>1.4</speed>
</trkpt>
<trkpt lat="47.602447" lon="8.429140">
<ele>636.4</ele>
<time>2003-07-20T13:05:22Z</time>
<speed>1.4</speed>
</trkpt>
<trkpt lat="47.602420" lon="8.429243">
<ele>636.4</ele>
<time>2003-07-20T13:05:27Z</time>
<speed>1.4</speed>
</trkpt>
<trkpt lat="47.602376" lon="8.429331">
<ele>635.5</ele>
<time>2003-07-20T13:05:32Z</time>
<speed>1.4</speed>
</trkpt>
<trkpt lat="47.602449" lon="8.429344">
<ele>614.6</ele>
<time>2003-07-20T13:05:37Z</time>
<speed>1.4</speed>
</trkpt>
<trkpt lat="47.602441" lon="8.429404">
<ele>608.6</ele>
<time>2003-07-20T13:05:42Z</time>
<speed>1.4</speed>
</trkpt>
<trkpt lat="47.602431" lon="8.429476">
<ele>604.1</ele>
<time>2003-07-20T13:05:47Z</time>
<speed>1.4</speed>
</trkpt>
<trkpt lat="47.602414" lon="8.429557">
<ele>601.8</ele>
<time>2003-07-20T13:05:52Z</time>
<speed>1.4</speed>
</trkpt>
<trkpt lat="47.602390" lon="8.429636">
<ele>600.2</ele>
<time>2003-07-20T13:05:57Z</time>
<speed>1.4</speed>
</trkpt>
<trkpt lat="47.602372" lon="8.429730">
<ele>598.0</ele>
<time>2003-07-20T13:06:02Z</time>
<speed>1.4</speed>
</trkpt>
<trkpt lat="47.602359" lon="8.429824">
<ele>596.6</ele>
<time>2003-07-20T13:06:07Z</time>
<speed>1.4</speed>
</trkpt>
<trkpt lat="47.602335" lon="8.429901">
<ele>596.4</ele>
<time>2003-07-20T13:06:12Z</time>
<speed>1.4</speed>
</trkpt>
<trkpt lat="47.602315" lon="8.430006">
<ele>595.7</ele>
<time>2003-07-20T13:06:17Z</time>
<speed>1.4</speed>
</trkpt>
<trkpt lat="47.602296" lon="8.430098">
<ele>594.9</ele>
<time>2003-07-20T13:06:22Z</time>
<speed>1.4</speed>
</trkpt>
<trkpt lat="47.602277" lon="8.430190">
<ele>594.1</ele>
<time>2003-07-20T13:06:27Z</time>
<speed>1.4</speed>
</trkpt>
<trkpt lat="47.602251" lon="8.430280">
<ele>594.0</ele>
<time>2003-07-20T13:06:32Z</time>
<speed>1.4</speed>
</trkpt>
<trkpt lat="47.602225" lon="8.430384">
<ele>594.0</ele>
<time>2003-07-20T13:06:37Z</time>
<speed>1.4</speed>
</trkpt>
<trkpt lat="47.602206" lon="8.430476">
<ele>593.2</ele>
<time>2003-07-20T13:06:42Z</time>
<speed>1.4</speed>
</trkpt>
<trkpt lat="47.602179" lon="8.430579">
<ele>593.2</ele>
<time>2003-07-20T13:06:47Z</time>
<speed>1.9</speed>
</trkpt>
<trkpt lat="47.602147" lon="8.430667">
<ele>593.7</ele>
<time>2003-07-20T13:06:52Z</time>
<speed>1.4</speed>
</trkpt>
<trkpt lat="47.602122" lon="8.430757">
<ele>593.6</ele>
<time>2003-07-20T13:06:57Z</time>
<speed>1.4</speed>
</trkpt>
<trkpt lat="47.602096" lon="8.430847">
<ele>593.5</ele>
<time>2003-07-20T13:07:02Z</time>
<speed>1.4</speed>
</trkpt>
<trkpt lat="47.602075" lon="8.430966">
<ele>592.9</ele>
<time>2003-07-20T13:07:08Z</time>
<speed>1.1</speed>
</trkpt>
<trkpt lat="47.602056" lon="8.431056">
<ele>593.5</ele>
<time>2003-07-20T13:07:13Z</time>
<speed>1.4</speed>
</trkpt>
<trkpt lat="47.602030" lon="8.431146">
<ele>593.4</ele>
<time>2003-07-20T13:07:18Z</time>
<speed>1.4</speed>
</trkpt>
<trkpt lat="47.602004" lon="8.431249">
<ele>593.4</ele>
<time>2003-07-20T13:07:23Z</time>
<speed>1.4</speed>
</trkpt>
<trkpt lat="47.601985" lon="8.431341">
<ele>592.6</ele>
<time>2003-07-20T13:07:28Z</time>
<speed>1.4</speed>
</trkpt>
<trkpt lat="47.601966" lon="8.431431">
<ele>593.2</ele>
<time>2003-07-20T13:07:33Z</time>
<speed>1.1</speed>
</trkpt>
<trkpt lat="47.601940" lon="8.431522">
<ele>593.1</ele>
<time>2003-07-20T13:07:38Z</time>
<speed>1.4</speed>
</trkpt>
<trkpt lat="47.601921" lon="8.431614">
<ele>592.3</ele>
<time>2003-07-20T13:07:43Z</time>
<speed>1.4</speed>
</trkpt>
<trkpt lat="47.601908" lon="8.431706">
<ele>592.3</ele>
<time>2003-07-20T13:07:48Z</time>
<speed>1.4</speed>
</trkpt>
<trkpt lat="47.601877" lon="8.431796">
<ele>591.4</ele>
<time>2003-07-20T13:07:53Z</time>
<speed>1.4</speed>
</trkpt>
<trkpt lat="47.601845" lon="8.431884">
<ele>592.0</ele>
<time>2003-07-20T13:07:58Z</time>
<speed>1.4</speed>
</trkpt>
<trkpt lat="47.601806" lon="8.431972">
<ele>591.8</ele>
<time>2003-07-20T13:08:03Z</time>
<speed>1.4</speed>
</trkpt>
<trkpt lat="47.601774" lon="8.432060">
<ele>592.3</ele>
<time>2003-07-20T13:08:08Z</time>
<speed>1.4</speed>
</trkpt>
<trkpt lat="47.601742" lon="8.432149">
<ele>592.9</ele>
<time>2003-07-20T13:08:13Z</time>
<speed>1.4</speed>
</trkpt>
<trkpt lat="47.601718" lon="8.432226">
<ele>592.6</ele>
<time>2003-07-20T13:08:18Z</time>
<speed>1.4</speed>
</trkpt>
<trkpt lat="47.601680" lon="8.432314">
<ele>592.5</ele>
<time>2003-07-20T13:08:23Z</time>
<speed>1.1</speed>
</trkpt>
<trkpt lat="47.601642" lon="8.432389">
<ele>592.2</ele>
<time>2003-07-20T13:08:28Z</time>
<speed>1.4</speed>
</trkpt>
<trkpt lat="47.601598" lon="8.432475">
<ele>592.7</ele>
<time>2003-07-20T13:08:33Z</time>
<speed>1.4</speed>
</trkpt>
<trkpt lat="47.601559" lon="8.432563">
<ele>592.5</ele>
<time>2003-07-20T13:08:38Z</time>
<speed>1.1</speed>
</trkpt>
<trkpt lat="47.601533" lon="8.432651">
<ele>593.7</ele>
<time>2003-07-20T13:08:43Z</time>
<speed>1.1</speed>
</trkpt>
<trkpt lat="47.601482" lon="8.432751">
<ele>593.6</ele>
<time>2003-07-20T13:08:48Z</time>
<speed>1.4</speed>
</trkpt>
<trkpt lat="47.601429" lon="8.432848">
<ele>594.8</ele>
<time>2003-07-20T13:08:53Z</time>
<speed>1.7</speed>
</trkpt>
<trkpt lat="47.601387" lon="8.432908">
<ele>595.1</ele>
<time>2003-07-20T13:08:58Z</time>
<speed>1.1</speed>
</trkpt>
<trkpt lat="47.601380" lon="8.433000">
<ele>595.8</ele>
<time>2003-07-20T13:09:03Z</time>
<speed>0.8</speed>
</trkpt>
<trkpt lat="47.601422" lon="8.433034">
<ele>595.5</ele>
<time>2003-07-20T13:09:08Z</time>
<speed>0.6</speed>
</trkpt>
<trkpt lat="47.601454" lon="8.433040">
<ele>595.0</ele>
<time>2003-07-20T13:09:13Z</time>
<speed>0.6</speed>
</trkpt>
<trkpt lat="47.601507" lon="8.433022">
<ele>595.1</ele>
<time>2003-07-20T13:09:18Z</time>
<speed>0.8</speed>
</trkpt>
<trkpt lat="47.601559" lon="8.433003">
<ele>595.2</ele>
<time>2003-07-20T13:09:23Z</time>
<speed>1.1</speed>
</trkpt>
<trkpt lat="47.601626" lon="8.432960">
<ele>595.2</ele>
<time>2003-07-20T13:09:28Z</time>
<speed>1.1</speed>
</trkpt>
<trkpt lat="47.601677" lon="8.432968">
<ele>595.4</ele>
<time>2003-07-20T13:09:33Z</time>
<speed>0.8</speed>
</trkpt>
<trkpt lat="47.601719" lon="8.433002">
<ele>595.2</ele>
<time>2003-07-20T13:09:38Z</time>
<speed>0.3</speed>
</trkpt>
<trkpt lat="47.601780" lon="8.432959">
<ele>594.4</ele>
<time>2003-07-20T13:09:43Z</time>
<speed>0.8</speed>
</trkpt>
<trkpt lat="47.601807" lon="8.432935">
<ele>595.8</ele>
<time>2003-07-20T13:09:48Z</time>
<speed>0.8</speed>
</trkpt>
<trkpt lat="47.601843" lon="8.432952">
<ele>597.5</ele>
<time>2003-07-20T13:09:53Z</time>
<speed>0.6</speed>
</trkpt>
<trkpt lat="47.601881" lon="8.432958">
<ele>597.7</ele>
<time>2003-07-20T13:09:58Z</time>
<speed>0.3</speed>
</trkpt>
<trkpt lat="47.601927" lon="8.432937">
<ele>598.5</ele>
<time>2003-07-20T13:10:03Z</time>
<speed>0.6</speed>
</trkpt>
<trkpt lat="47.601974" lon="8.432902">
<ele>600.5</ele>
<time>2003-07-20T13:10:08Z</time>
<speed>0.6</speed>
</trkpt>
<trkpt lat="47.602005" lon="8.432908">
<ele>600.0</ele>
<time>2003-07-20T13:10:13Z</time>
<speed>0.6</speed>
</trkpt>
<trkpt lat="47.602040" lon="8.432951">
<ele>601.9</ele>
<time>2003-07-20T13:10:18Z</time>
<speed>0.6</speed>
</trkpt>
<trkpt lat="47.602075" lon="8.432996">
<ele>602.4</ele>
<time>2003-07-20T13:10:23Z</time>
<speed>0.6</speed>
</trkpt>
<trkpt lat="47.602108" lon="8.432974">
<ele>603.1</ele>
<time>2003-07-20T13:10:28Z</time>
<speed>0.3</speed>
</trkpt>
<trkpt lat="47.602189" lon="8.432920">
<ele>603.0</ele>
<time>2003-07-20T13:10:33Z</time>
<speed>0.8</speed>
</trkpt>
<trkpt lat="47.602268" lon="8.432877">
<ele>604.5</ele>
<time>2003-07-20T13:10:38Z</time>
<speed>0.8</speed>
</trkpt>
<trkpt lat="47.602286" lon="8.432892">
<ele>605.4</ele>
<time>2003-07-20T13:10:43Z</time>
<speed>0.3</speed>
</trkpt>
<trkpt lat="47.602303" lon="8.432920">
<ele>606.4</ele>
<time>2003-07-20T13:10:48Z</time>
<speed>0.6</speed>
</trkpt>
<trkpt lat="47.602322" lon="8.433003">
<ele>607.1</ele>
<time>2003-07-20T13:10:53Z</time>
<speed>0.3</speed>
</trkpt>
<trkpt lat="47.602364" lon="8.433050">
<ele>607.0</ele>
<time>2003-07-20T13:10:58Z</time>
<speed>0.6</speed>
</trkpt>
<trkpt lat="47.602382" lon="8.433131">
<ele>609.1</ele>
<time>2003-07-20T13:11:03Z</time>
<speed>0.3</speed>
</trkpt>
<trkpt lat="47.602425" lon="8.433165">
<ele>608.9</ele>
<time>2003-07-20T13:11:08Z</time>
<speed>0.8</speed>
</trkpt>
<trkpt lat="47.602444" lon="8.433248">
<ele>609.6</ele>
<time>2003-07-20T13:11:13Z</time>
<speed>0.6</speed>
</trkpt>
<trkpt lat="47.602472" lon="8.433305">
<ele>610.9</ele>
<time>2003-07-20T13:11:18Z</time>
<speed>0.6</speed>
</trkpt>
<trkpt lat="47.602477" lon="8.433412">
<ele>611.7</ele>
<time>2003-07-20T13:11:23Z</time>
<speed>0.8</speed>
</trkpt>
<trkpt lat="47.602512" lon="8.433459">
<ele>610.8</ele>
<time>2003-07-20T13:11:28Z</time>
<speed>0.8</speed>
</trkpt>
<trkpt lat="47.602505" lon="8.433549">
<ele>612.9</ele>
<time>2003-07-20T13:11:33Z</time>
<speed>0.6</speed>
</trkpt>
<trkpt lat="47.602504" lon="8.433641">
<ele>614.4</ele>
<time>2003-07-20T13:11:38Z</time>
<speed>1.1</speed>
</trkpt>
<trkpt lat="47.602517" lon="8.433724">
<ele>614.4</ele>
<time>2003-07-20T13:11:43Z</time>
<speed>0.8</speed>
</trkpt>
<trkpt lat="47.602531" lon="8.433807">
<ele>614.4</ele>
<time>2003-07-20T13:11:48Z</time>
<speed>0.8</speed>
</trkpt>
<trkpt lat="47.602566" lon="8.433852">
<ele>614.9</ele>
<time>2003-07-20T13:11:53Z</time>
<speed>0.6</speed>
</trkpt>
<trkpt lat="47.602602" lon="8.433965">
<ele>615.2</ele>
<time>2003-07-20T13:11:58Z</time>
<speed>0.8</speed>
</trkpt>
<trkpt lat="47.602627" lon="8.434063">
<ele>615.4</ele>
<time>2003-07-20T13:12:03Z</time>
<speed>0.8</speed>
</trkpt>
<trkpt lat="47.602654" lon="8.434135">
<ele>615.4</ele>
<time>2003-07-20T13:12:08Z</time>
<speed>0.8</speed>
</trkpt>
<trkpt lat="47.602675" lon="8.434204">
<ele>616.0</ele>
<time>2003-07-20T13:12:13Z</time>
<speed>0.3</speed>
</trkpt>
<trkpt lat="47.602707" lon="8.434289">
<ele>616.8</ele>
<time>2003-07-20T13:12:18Z</time>
<speed>0.8</speed>
</trkpt>
<trkpt lat="47.602732" lon="8.434387">
<ele>617.0</ele>
<time>2003-07-20T13:12:23Z</time>
<speed>0.6</speed>
</trkpt>
<trkpt lat="47.602738" lon="8.434483">
<ele>616.3</ele>
<time>2003-07-20T13:12:28Z</time>
<speed>0.8</speed>
</trkpt>
<trkpt lat="47.602745" lon="8.434564">
<ele>617.0</ele>
<time>2003-07-20T13:12:33Z</time>
<speed>0.6</speed>
</trkpt>
<trkpt lat="47.602765" lon="8.434634">
<ele>617.6</ele>
<time>2003-07-20T13:12:38Z</time>
<speed>0.8</speed>
</trkpt>
<trkpt lat="47.602797" lon="8.434718">
<ele>618.4</ele>
<time>2003-07-20T13:12:43Z</time>
<speed>0.8</speed>
</trkpt>
<trkpt lat="47.602836" lon="8.434820">
<ele>617.3</ele>
<time>2003-07-20T13:12:48Z</time>
<speed>0.8</speed>
</trkpt>
<trkpt lat="47.602869" lon="8.434894">
<ele>616.6</ele>
<time>2003-07-20T13:12:53Z</time>
<speed>0.8</speed>
</trkpt>
<trkpt lat="47.602899" lon="8.434926">
<ele>616.3</ele>
<time>2003-07-20T13:12:58Z</time>
<speed>0.8</speed>
</trkpt>
<trkpt lat="47.602912" lon="8.435024">
<ele>614.9</ele>
<time>2003-07-20T13:13:03Z</time>
<speed>0.6</speed>
</trkpt>
<trkpt lat="47.602924" lon="8.435120">
<ele>615.0</ele>
<time>2003-07-20T13:13:08Z</time>
<speed>0.8</speed>
</trkpt>
<trkpt lat="47.602938" lon="8.435203">
<ele>615.0</ele>
<time>2003-07-20T13:13:13Z</time>
<speed>0.8</speed>
</trkpt>
<trkpt lat="47.602989" lon="8.435213">
<ele>613.9</ele>
<time>2003-07-20T13:13:18Z</time>
<speed>0.6</speed>
</trkpt>
<trkpt lat="47.602983" lon="8.435291">
<ele>614.5</ele>
<time>2003-07-20T13:13:23Z</time>
<speed>0.3</speed>
</trkpt>
<trkpt lat="47.602986" lon="8.435333">
<ele>614.1</ele>
<time>2003-07-20T13:13:28Z</time>
<speed>0.3</speed>
</trkpt>
<trkpt lat="47.602972" lon="8.435453">
<ele>612.9</ele>
<time>2003-07-20T13:13:33Z</time>
<speed>1.1</speed>
</trkpt>
<trkpt lat="47.602973" lon="8.435534">
<ele>612.8</ele>
<time>2003-07-20T13:13:38Z</time>
<speed>0.6</speed>
</trkpt>
<trkpt lat="47.602980" lon="8.435617">
<ele>612.1</ele>
<time>2003-07-20T13:13:43Z</time>
<speed>0.8</speed>
</trkpt>
<trkpt lat="47.602993" lon="8.435713">
<ele>612.2</ele>
<time>2003-07-20T13:13:48Z</time>
<speed>0.8</speed>
</trkpt>
<trkpt lat="47.602991" lon="8.435835">
<ele>611.0</ele>
<time>2003-07-20T13:13:53Z</time>
<speed>0.8</speed>
</trkpt>
<trkpt lat="47.602996" lon="8.435944">
<ele>610.4</ele>
<time>2003-07-20T13:13:58Z</time>
<speed>0.8</speed>
</trkpt>
<trkpt lat="47.602994" lon="8.436065">
<ele>610.7</ele>
<time>2003-07-20T13:14:03Z</time>
<speed>0.6</speed>
</trkpt>
<trkpt lat="47.603014" lon="8.436134">
<ele>611.3</ele>
<time>2003-07-20T13:14:08Z</time>
<speed>0.0</speed>
</trkpt>
<trkpt lat="47.603050" lon="8.436166">
<ele>611.7</ele>
<time>2003-07-20T13:14:13Z</time>
<speed>0.6</speed>
</trkpt>
<trkpt lat="47.603093" lon="8.436201">
<ele>611.5</ele>
<time>2003-07-20T13:14:18Z</time>
<speed>0.8</speed>
</trkpt>
<trkpt lat="47.603112" lon="8.436202">
<ele>612.3</ele>
<time>2003-07-20T13:14:23Z</time>
<speed>0.3</speed>
</trkpt>
<trkpt lat="47.603125" lon="8.436191">
<ele>612.2</ele>
<time>2003-07-20T13:14:28Z</time>
<speed>0.3</speed>
</trkpt>
<trkpt lat="47.603152" lon="8.436263">
<ele>612.2</ele>
<time>2003-07-20T13:14:33Z</time>
<speed>1.1</speed>
</trkpt>
<trkpt lat="47.603201" lon="8.436297">
<ele>612.7</ele>
<time>2003-07-20T13:14:38Z</time>
<speed>0.6</speed>
</trkpt>
<trkpt lat="47.603251" lon="8.436305">
<ele>613.0</ele>
<time>2003-07-20T13:14:43Z</time>
<speed>0.8</speed>
</trkpt>
<trkpt lat="47.603256" lon="8.436318">
<ele>613.8</ele>
<time>2003-07-20T13:14:48Z</time>
<speed>0.0</speed>
</trkpt>
<trkpt lat="47.603249" lon="8.436329">
<ele>614.6</ele>
<time>2003-07-20T13:14:53Z</time>
<speed>0.0</speed>
</trkpt>
<trkpt lat="47.603255" lon="8.436331">
<ele>613.9</ele>
<time>2003-07-20T13:14:58Z</time>
<speed>0.0</speed>
</trkpt>
<trkpt lat="47.603264" lon="8.436307">
<ele>613.1</ele>
<time>2003-07-20T13:15:03Z</time>
<speed>0.0</speed>
</trkpt>
<trkpt lat="47.603267" lon="8.436269">
<ele>611.4</ele>
<time>2003-07-20T13:15:08Z</time>
<speed>0.0</speed>
</trkpt>
<trkpt lat="47.603263" lon="8.436243">
<ele>610.4</ele>
<time>2003-07-20T13:15:13Z</time>
<speed>0.0</speed>
</trkpt>
<trkpt lat="47.603264" lon="8.436228">
<ele>611.7</ele>
<time>2003-07-20T13:15:18Z</time>
<speed>0.0</speed>
</trkpt>
<trkpt lat="47.603269" lon="8.436243">
<ele>611.2</ele>
<time>2003-07-20T13:15:23Z</time>
<speed>0.0</speed>
</trkpt>
<trkpt lat="47.603270" lon="8.436230">
<ele>611.1</ele>
<time>2003-07-20T13:15:28Z</time>
<speed>0.0</speed>
</trkpt>
<trkpt lat="47.603264" lon="8.436228">
<ele>611.7</ele>
<time>2003-07-20T13:15:33Z</time>
<speed>0.0</speed>
</trkpt>
<trkpt lat="47.603265" lon="8.436215">
<ele>611.6</ele>
<time>2003-07-20T13:15:38Z</time>
<speed>0.0</speed>
</trkpt>
<trkpt lat="47.603267" lon="8.436188">
<ele>611.4</ele>
<time>2003-07-20T13:15:43Z</time>
<speed>0.0</speed>
</trkpt>
<trkpt lat="47.603266" lon="8.436202">
<ele>611.5</ele>
<time>2003-07-20T13:15:48Z</time>
<speed>0.0</speed>
</trkpt>
<trkpt lat="47.603247" lon="8.436200">
<ele>610.7</ele>
<time>2003-07-20T13:15:53Z</time>
<speed>0.6</speed>
</trkpt>
<trkpt lat="47.603182" lon="8.436310">
<ele>610.6</ele>
<time>2003-07-20T13:15:58Z</time>
<speed>2.2</speed>
</trkpt>
<trkpt lat="47.603195" lon="8.436489">
<ele>609.2</ele>
<time>2003-07-20T13:16:03Z</time>
<speed>3.1</speed>
</trkpt>
<trkpt lat="47.603227" lon="8.436683">
<ele>608.7</ele>
<time>2003-07-20T13:16:08Z</time>
<speed>2.2</speed>
</trkpt>
<trkpt lat="47.603207" lon="8.436788">
<ele>608.0</ele>
<time>2003-07-20T13:16:13Z</time>
<speed>1.1</speed>
</trkpt>
<trkpt lat="47.603301" lon="8.436992">
<ele>607.9</ele>
<time>2003-07-20T13:16:18Z</time>
<speed>5.0</speed>
</trkpt>
<trkpt lat="47.603537" lon="8.437287">
<ele>607.0</ele>
<time>2003-07-20T13:16:23Z</time>
<speed>5.8</speed>
</trkpt>
<trkpt lat="47.603682" lon="8.437498">
<ele>607.2</ele>
<time>2003-07-20T13:16:28Z</time>
<speed>3.3</speed>
</trkpt>
<trkpt lat="47.603677" lon="8.437739">
<ele>607.6</ele>
<time>2003-07-20T13:16:33Z</time>
<speed>3.3</speed>
</trkpt>
<trkpt lat="47.603532" lon="8.438268">
<ele>606.2</ele>
<time>2003-07-20T13:16:38Z</time>
<speed>7.5</speed>
</trkpt>
</trkseg>
</trk>
</gpx>
